<?xml version="1.0" encoding="UTF-8" standalone="no" ?>
<gpx xmlns="http://www.topografix.com/GPX/1/1" xmlns:xsi="http://www.w3.org/2001/XMLSchema-instance" xsi:schemaLocation="http://www.topografix.com/GPX/1/1 http://www.topografix.com/GPX/1/1/gpx.xsd" version="1.1" creator="VisuGPX - https://www.visugpx.com">
  <metadata>
    <name>toulouse colomiers</name>
    <desc><![CDATA[de toulouse à colomiers perget beaucoup de pistes cyclables pas trop de circulation le dimanche]]></desc>
  </metadata>
  <trk>
    <name><![CDATA[Çolomiersbasac]]></name>
    <trkseg>
      <trkpt lat="43.59096" lon="1.47197">
        <ele>182.79</ele>
        <time>2017-03-05T07:55:27Z</time>
      </trkpt>
      <trkpt lat="43.59098" lon="1.4719">
        <ele>182.79</ele>
        <time>2017-03-05T07:55:28Z</time>
      </trkpt>
      <trkpt lat="43.59112" lon="1.47107">
        <ele>180.87</ele>
        <time>2017-03-05T07:55:38Z</time>
      </trkpt>
      <trkpt lat="43.59113" lon="1.47098">
        <ele>180.87</ele>
        <time>2017-03-05T07:55:39Z</time>
      </trkpt>
      <trkpt lat="43.59114" lon="1.47089">
        <ele>179.9</ele>
        <time>2017-03-05T07:55:40Z</time>
      </trkpt>
      <trkpt lat="43.59115" lon="1.47081">
        <ele>179.9</ele>
        <time>2017-03-05T07:55:41Z</time>
      </trkpt>
      <trkpt lat="43.59135" lon="1.46966">
        <ele>179.9</ele>
        <time>2017-03-05T07:55:55Z</time>
      </trkpt>
      <trkpt lat="43.59135" lon="1.46959">
        <ele>179.9</ele>
        <time>2017-03-05T07:55:56Z</time>
      </trkpt>
      <trkpt lat="43.59135" lon="1.46953">
        <ele>179.9</ele>
        <time>2017-03-05T07:55:57Z</time>
      </trkpt>
      <trkpt lat="43.59138" lon="1.46949">
        <ele>178.94</ele>
        <time>2017-03-05T07:55:58Z</time>
      </trkpt>
      <trkpt lat="43.59141" lon="1.46944">
        <ele>178.94</ele>
        <time>2017-03-05T07:55:59Z</time>
      </trkpt>
      <trkpt lat="43.59152" lon="1.46931">
        <ele>178.94</ele>
        <time>2017-03-05T07:56:02Z</time>
      </trkpt>
      <trkpt lat="43.59161" lon="1.46923">
        <ele>178.94</ele>
        <time>2017-03-05T07:56:04Z</time>
      </trkpt>
      <trkpt lat="43.59209" lon="1.46862">
        <ele>178.94</ele>
        <time>2017-03-05T07:56:17Z</time>
      </trkpt>
      <trkpt lat="43.59246" lon="1.46802">
        <ele>178.94</ele>
        <time>2017-03-05T07:56:27Z</time>
      </trkpt>
      <trkpt lat="43.59262" lon="1.46783">
        <ele>178.94</ele>
        <time>2017-03-05T07:56:31Z</time>
      </trkpt>
      <trkpt lat="43.59314" lon="1.46701">
        <ele>179.9</ele>
        <time>2017-03-05T07:56:45Z</time>
      </trkpt>
      <trkpt lat="43.59383" lon="1.46639">
        <ele>180.87</ele>
        <time>2017-03-05T07:56:59Z</time>
      </trkpt>
      <trkpt lat="43.59433" lon="1.46574">
        <ele>180.87</ele>
        <time>2017-03-05T07:57:11Z</time>
      </trkpt>
      <trkpt lat="43.59477" lon="1.46496">
        <ele>179.9</ele>
        <time>2017-03-05T07:57:22Z</time>
      </trkpt>
      <trkpt lat="43.59483" lon="1.46492">
        <ele>179.9</ele>
        <time>2017-03-05T07:57:23Z</time>
      </trkpt>
      <trkpt lat="43.59547" lon="1.46395">
        <ele>179.9</ele>
        <time>2017-03-05T07:57:39Z</time>
      </trkpt>
      <trkpt lat="43.59568" lon="1.46371">
        <ele>180.87</ele>
        <time>2017-03-05T07:57:44Z</time>
      </trkpt>
      <trkpt lat="43.59587" lon="1.46344">
        <ele>180.87</ele>
        <time>2017-03-05T07:57:49Z</time>
      </trkpt>
      <trkpt lat="43.5959" lon="1.46338">
        <ele>180.87</ele>
        <time>2017-03-05T07:57:50Z</time>
      </trkpt>
      <trkpt lat="43.59638" lon="1.46223">
        <ele>180.87</ele>
        <time>2017-03-05T07:58:04Z</time>
      </trkpt>
      <trkpt lat="43.59641" lon="1.46213">
        <ele>180.87</ele>
        <time>2017-03-05T07:58:05Z</time>
      </trkpt>
      <trkpt lat="43.59644" lon="1.46202">
        <ele>179.9</ele>
        <time>2017-03-05T07:58:06Z</time>
      </trkpt>
      <trkpt lat="43.59683" lon="1.46099">
        <ele>177.02</ele>
        <time>2017-03-05T07:58:16Z</time>
      </trkpt>
      <trkpt lat="43.59715" lon="1.4601">
        <ele>174.14</ele>
        <time>2017-03-05T07:58:24Z</time>
      </trkpt>
      <trkpt lat="43.59745" lon="1.45932">
        <ele>169.81</ele>
        <time>2017-03-05T07:58:31Z</time>
      </trkpt>
      <trkpt lat="43.59773" lon="1.45863">
        <ele>166.93</ele>
        <time>2017-03-05T07:58:38Z</time>
      </trkpt>
      <trkpt lat="43.59787" lon="1.45832">
        <ele>165</ele>
        <time>2017-03-05T07:58:42Z</time>
      </trkpt>
      <trkpt lat="43.5981" lon="1.45778">
        <ele>165</ele>
        <time>2017-03-05T07:58:49Z</time>
      </trkpt>
      <trkpt lat="43.59813" lon="1.4577">
        <ele>165</ele>
        <time>2017-03-05T07:58:50Z</time>
      </trkpt>
      <trkpt lat="43.59833" lon="1.45713">
        <ele>163.08</ele>
        <time>2017-03-05T07:59:00Z</time>
      </trkpt>
      <trkpt lat="43.59839" lon="1.45693">
        <ele>161.16</ele>
        <time>2017-03-05T07:59:10Z</time>
      </trkpt>
      <trkpt lat="43.59849" lon="1.45675">
        <ele>161.16</ele>
        <time>2017-03-05T07:59:14Z</time>
      </trkpt>
      <trkpt lat="43.59852" lon="1.4567">
        <ele>161.16</ele>
        <time>2017-03-05T07:59:15Z</time>
      </trkpt>
      <trkpt lat="43.59856" lon="1.45668">
        <ele>161.16</ele>
        <time>2017-03-05T07:59:16Z</time>
      </trkpt>
      <trkpt lat="43.59861" lon="1.45667">
        <ele>161.16</ele>
        <time>2017-03-05T07:59:17Z</time>
      </trkpt>
      <trkpt lat="43.59867" lon="1.45667">
        <ele>161.16</ele>
        <time>2017-03-05T07:59:18Z</time>
      </trkpt>
      <trkpt lat="43.59872" lon="1.45667">
        <ele>161.16</ele>
        <time>2017-03-05T07:59:19Z</time>
      </trkpt>
      <trkpt lat="43.59959" lon="1.45658">
        <ele>160.2</ele>
        <time>2017-03-05T07:59:33Z</time>
      </trkpt>
      <trkpt lat="43.60064" lon="1.45658">
        <ele>160.2</ele>
        <time>2017-03-05T07:59:50Z</time>
      </trkpt>
      <trkpt lat="43.6007" lon="1.45655">
        <ele>160.2</ele>
        <time>2017-03-05T07:59:51Z</time>
      </trkpt>
      <trkpt lat="43.60075" lon="1.4565">
        <ele>160.2</ele>
        <time>2017-03-05T07:59:52Z</time>
      </trkpt>
      <trkpt lat="43.60078" lon="1.45647">
        <ele>160.2</ele>
        <time>2017-03-05T07:59:53Z</time>
      </trkpt>
      <trkpt lat="43.60082" lon="1.45642">
        <ele>160.2</ele>
        <time>2017-03-05T07:59:54Z</time>
      </trkpt>
      <trkpt lat="43.60083" lon="1.45636">
        <ele>160.2</ele>
        <time>2017-03-05T07:59:55Z</time>
      </trkpt>
      <trkpt lat="43.60083" lon="1.4563">
        <ele>160.2</ele>
        <time>2017-03-05T07:59:56Z</time>
      </trkpt>
      <trkpt lat="43.60081" lon="1.45623">
        <ele>160.2</ele>
        <time>2017-03-05T07:59:57Z</time>
      </trkpt>
      <trkpt lat="43.60078" lon="1.45617">
        <ele>160.2</ele>
        <time>2017-03-05T07:59:58Z</time>
      </trkpt>
      <trkpt lat="43.60075" lon="1.4561">
        <ele>160.2</ele>
        <time>2017-03-05T07:59:59Z</time>
      </trkpt>
      <trkpt lat="43.60051" lon="1.45544">
        <ele>159.24</ele>
        <time>2017-03-05T08:00:08Z</time>
      </trkpt>
      <trkpt lat="43.60028" lon="1.45484">
        <ele>156.83</ele>
        <time>2017-03-05T08:00:18Z</time>
      </trkpt>
      <trkpt lat="43.6002" lon="1.4546">
        <ele>156.83</ele>
        <time>2017-03-05T08:00:22Z</time>
      </trkpt>
      <trkpt lat="43.60015" lon="1.45336">
        <ele>156.83</ele>
        <time>2017-03-05T08:00:38Z</time>
      </trkpt>
      <trkpt lat="43.60017" lon="1.45328">
        <ele>156.83</ele>
        <time>2017-03-05T08:00:39Z</time>
      </trkpt>
      <trkpt lat="43.60021" lon="1.45321">
        <ele>156.83</ele>
        <time>2017-03-05T08:00:40Z</time>
      </trkpt>
      <trkpt lat="43.60042" lon="1.45264">
        <ele>155.87</ele>
        <time>2017-03-05T08:00:48Z</time>
      </trkpt>
      <trkpt lat="43.60047" lon="1.45251">
        <ele>155.87</ele>
        <time>2017-03-05T08:00:50Z</time>
      </trkpt>
      <trkpt lat="43.60055" lon="1.45226">
        <ele>155.87</ele>
        <time>2017-03-05T08:00:54Z</time>
      </trkpt>
      <trkpt lat="43.60057" lon="1.4522">
        <ele>155.87</ele>
        <time>2017-03-05T08:00:55Z</time>
      </trkpt>
      <trkpt lat="43.60058" lon="1.45213">
        <ele>155.87</ele>
        <time>2017-03-05T08:00:56Z</time>
      </trkpt>
      <trkpt lat="43.60072" lon="1.4508">
        <ele>154.91</ele>
        <time>2017-03-05T08:01:11Z</time>
      </trkpt>
      <trkpt lat="43.60072" lon="1.45063">
        <ele>154.91</ele>
        <time>2017-03-05T08:01:13Z</time>
      </trkpt>
      <trkpt lat="43.60072" lon="1.45054">
        <ele>154.91</ele>
        <time>2017-03-05T08:01:14Z</time>
      </trkpt>
      <trkpt lat="43.6007" lon="1.45047">
        <ele>154.91</ele>
        <time>2017-03-05T08:01:15Z</time>
      </trkpt>
      <trkpt lat="43.60056" lon="1.44938">
        <ele>152.99</ele>
        <time>2017-03-05T08:01:29Z</time>
      </trkpt>
      <trkpt lat="43.60053" lon="1.44823">
        <ele>152.99</ele>
        <time>2017-03-05T08:01:44Z</time>
      </trkpt>
      <trkpt lat="43.60051" lon="1.44814">
        <ele>152.99</ele>
        <time>2017-03-05T08:01:45Z</time>
      </trkpt>
      <trkpt lat="43.60065" lon="1.44713">
        <ele>153.95</ele>
        <time>2017-03-05T08:01:57Z</time>
      </trkpt>
      <trkpt lat="43.60068" lon="1.44702">
        <ele>153.95</ele>
        <time>2017-03-05T08:01:58Z</time>
      </trkpt>
      <trkpt lat="43.60069" lon="1.44679">
        <ele>153.95</ele>
        <time>2017-03-05T08:02:00Z</time>
      </trkpt>
      <trkpt lat="43.60062" lon="1.44593">
        <ele>153.95</ele>
        <time>2017-03-05T08:02:10Z</time>
      </trkpt>
      <trkpt lat="43.6006" lon="1.44588">
        <ele>154.91</ele>
        <time>2017-03-05T08:02:11Z</time>
      </trkpt>
      <trkpt lat="43.60058" lon="1.44584">
        <ele>154.91</ele>
        <time>2017-03-05T08:02:12Z</time>
      </trkpt>
      <trkpt lat="43.60058" lon="1.44579">
        <ele>154.91</ele>
        <time>2017-03-05T08:02:13Z</time>
      </trkpt>
      <trkpt lat="43.6006" lon="1.44573">
        <ele>154.91</ele>
        <time>2017-03-05T08:02:14Z</time>
      </trkpt>
      <trkpt lat="43.6006" lon="1.4457">
        <ele>154.91</ele>
        <time>2017-03-05T08:02:15Z</time>
      </trkpt>
      <trkpt lat="43.60051" lon="1.44543">
        <ele>154.91</ele>
        <time>2017-03-05T08:02:21Z</time>
      </trkpt>
      <trkpt lat="43.60049" lon="1.44537">
        <ele>154.91</ele>
        <time>2017-03-05T08:02:22Z</time>
      </trkpt>
      <trkpt lat="43.60046" lon="1.44531">
        <ele>154.91</ele>
        <time>2017-03-05T08:02:23Z</time>
      </trkpt>
      <trkpt lat="43.60044" lon="1.44524">
        <ele>154.91</ele>
        <time>2017-03-05T08:02:24Z</time>
      </trkpt>
      <trkpt lat="43.60043" lon="1.44517">
        <ele>154.91</ele>
        <time>2017-03-05T08:02:25Z</time>
      </trkpt>
      <trkpt lat="43.60043" lon="1.44509">
        <ele>154.91</ele>
        <time>2017-03-05T08:02:26Z</time>
      </trkpt>
      <trkpt lat="43.60045" lon="1.44499">
        <ele>154.91</ele>
        <time>2017-03-05T08:02:27Z</time>
      </trkpt>
      <trkpt lat="43.60042" lon="1.44349">
        <ele>154.91</ele>
        <time>2017-03-05T08:02:45Z</time>
      </trkpt>
      <trkpt lat="43.6001" lon="1.44248">
        <ele>154.91</ele>
        <time>2017-03-05T08:02:58Z</time>
      </trkpt>
      <trkpt lat="43.59978" lon="1.44135">
        <ele>153.95</ele>
        <time>2017-03-05T08:03:13Z</time>
      </trkpt>
      <trkpt lat="43.59979" lon="1.44128">
        <ele>153.95</ele>
        <time>2017-03-05T08:03:14Z</time>
      </trkpt>
      <trkpt lat="43.59979" lon="1.44121">
        <ele>153.95</ele>
        <time>2017-03-05T08:03:15Z</time>
      </trkpt>
      <trkpt lat="43.59973" lon="1.44052">
        <ele>153.95</ele>
        <time>2017-03-05T08:03:28Z</time>
      </trkpt>
      <trkpt lat="43.59978" lon="1.44029">
        <ele>153.95</ele>
        <time>2017-03-05T08:03:32Z</time>
      </trkpt>
      <trkpt lat="43.59978" lon="1.44023">
        <ele>153.95</ele>
        <time>2017-03-05T08:03:33Z</time>
      </trkpt>
      <trkpt lat="43.59979" lon="1.44018">
        <ele>153.95</ele>
        <time>2017-03-05T08:03:34Z</time>
      </trkpt>
      <trkpt lat="43.59977" lon="1.44011">
        <ele>153.95</ele>
        <time>2017-03-05T08:03:35Z</time>
      </trkpt>
      <trkpt lat="43.59975" lon="1.44004">
        <ele>153.95</ele>
        <time>2017-03-05T08:03:36Z</time>
      </trkpt>
      <trkpt lat="43.59975" lon="1.43999">
        <ele>153.95</ele>
        <time>2017-03-05T08:03:37Z</time>
      </trkpt>
      <trkpt lat="43.59974" lon="1.43993">
        <ele>153.95</ele>
        <time>2017-03-05T08:03:38Z</time>
      </trkpt>
      <trkpt lat="43.59946" lon="1.43867">
        <ele>154.91</ele>
        <time>2017-03-05T08:03:57Z</time>
      </trkpt>
      <trkpt lat="43.59919" lon="1.43729">
        <ele>152.03</ele>
        <time>2017-03-05T08:04:12Z</time>
      </trkpt>
      <trkpt lat="43.59903" lon="1.43663">
        <ele>149.14</ele>
        <time>2017-03-05T08:04:22Z</time>
      </trkpt>
      <trkpt lat="43.59887" lon="1.43616">
        <ele>147.22</ele>
        <time>2017-03-05T08:04:32Z</time>
      </trkpt>
      <trkpt lat="43.59859" lon="1.43507">
        <ele>145.78</ele>
        <time>2017-03-05T08:04:46Z</time>
      </trkpt>
      <trkpt lat="43.59846" lon="1.43396">
        <ele>145.78</ele>
        <time>2017-03-05T08:04:59Z</time>
      </trkpt>
      <trkpt lat="43.59845" lon="1.43388">
        <ele>145.78</ele>
        <time>2017-03-05T08:05:00Z</time>
      </trkpt>
      <trkpt lat="43.59844" lon="1.43379">
        <ele>145.78</ele>
        <time>2017-03-05T08:05:01Z</time>
      </trkpt>
      <trkpt lat="43.59816" lon="1.43265">
        <ele>145.78</ele>
        <time>2017-03-05T08:05:15Z</time>
      </trkpt>
      <trkpt lat="43.5981" lon="1.43224">
        <ele>145.78</ele>
        <time>2017-03-05T08:05:20Z</time>
      </trkpt>
      <trkpt lat="43.5981" lon="1.43215">
        <ele>145.78</ele>
        <time>2017-03-05T08:05:21Z</time>
      </trkpt>
      <trkpt lat="43.59813" lon="1.43189">
        <ele>145.78</ele>
        <time>2017-03-05T08:05:24Z</time>
      </trkpt>
      <trkpt lat="43.59813" lon="1.43179">
        <ele>145.78</ele>
        <time>2017-03-05T08:05:25Z</time>
      </trkpt>
      <trkpt lat="43.59798" lon="1.43107">
        <ele>147.22</ele>
        <time>2017-03-05T08:05:34Z</time>
      </trkpt>
      <trkpt lat="43.59796" lon="1.43098">
        <ele>147.22</ele>
        <time>2017-03-05T08:05:35Z</time>
      </trkpt>
      <trkpt lat="43.59793" lon="1.43081">
        <ele>147.22</ele>
        <time>2017-03-05T08:05:37Z</time>
      </trkpt>
      <trkpt lat="43.59791" lon="1.43073">
        <ele>147.22</ele>
        <time>2017-03-05T08:05:38Z</time>
      </trkpt>
      <trkpt lat="43.59781" lon="1.43041">
        <ele>147.22</ele>
        <time>2017-03-05T08:05:42Z</time>
      </trkpt>
      <trkpt lat="43.59779" lon="1.43032">
        <ele>147.22</ele>
        <time>2017-03-05T08:05:43Z</time>
      </trkpt>
      <trkpt lat="43.59778" lon="1.43023">
        <ele>147.22</ele>
        <time>2017-03-05T08:05:44Z</time>
      </trkpt>
      <trkpt lat="43.59765" lon="1.42959">
        <ele>147.22</ele>
        <time>2017-03-05T08:05:52Z</time>
      </trkpt>
      <trkpt lat="43.59765" lon="1.42952">
        <ele>147.22</ele>
        <time>2017-03-05T08:05:53Z</time>
      </trkpt>
      <trkpt lat="43.59763" lon="1.42933">
        <ele>147.22</ele>
        <time>2017-03-05T08:05:56Z</time>
      </trkpt>
      <trkpt lat="43.59762" lon="1.42925">
        <ele>147.22</ele>
        <time>2017-03-05T08:05:57Z</time>
      </trkpt>
      <trkpt lat="43.59757" lon="1.42897">
        <ele>147.22</ele>
        <time>2017-03-05T08:06:01Z</time>
      </trkpt>
      <trkpt lat="43.59756" lon="1.42883">
        <ele>147.22</ele>
        <time>2017-03-05T08:06:03Z</time>
      </trkpt>
      <trkpt lat="43.59755" lon="1.42875">
        <ele>147.22</ele>
        <time>2017-03-05T08:06:04Z</time>
      </trkpt>
      <trkpt lat="43.59752" lon="1.42855">
        <ele>147.22</ele>
        <time>2017-03-05T08:06:07Z</time>
      </trkpt>
      <trkpt lat="43.59749" lon="1.4285">
        <ele>147.22</ele>
        <time>2017-03-05T08:06:08Z</time>
      </trkpt>
      <trkpt lat="43.59745" lon="1.42841">
        <ele>147.22</ele>
        <time>2017-03-05T08:06:09Z</time>
      </trkpt>
      <trkpt lat="43.59743" lon="1.42834">
        <ele>147.22</ele>
        <time>2017-03-05T08:06:10Z</time>
      </trkpt>
      <trkpt lat="43.59741" lon="1.4283">
        <ele>147.22</ele>
        <time>2017-03-05T08:06:11Z</time>
      </trkpt>
      <trkpt lat="43.59738" lon="1.42826">
        <ele>147.22</ele>
        <time>2017-03-05T08:06:12Z</time>
      </trkpt>
      <trkpt lat="43.59736" lon="1.42822">
        <ele>147.22</ele>
        <time>2017-03-05T08:06:13Z</time>
      </trkpt>
      <trkpt lat="43.59735" lon="1.42816">
        <ele>147.22</ele>
        <time>2017-03-05T08:06:14Z</time>
      </trkpt>
      <trkpt lat="43.59734" lon="1.42809">
        <ele>147.22</ele>
        <time>2017-03-05T08:06:15Z</time>
      </trkpt>
      <trkpt lat="43.59734" lon="1.42801">
        <ele>147.22</ele>
        <time>2017-03-05T08:06:16Z</time>
      </trkpt>
      <trkpt lat="43.59735" lon="1.42794">
        <ele>147.22</ele>
        <time>2017-03-05T08:06:17Z</time>
      </trkpt>
      <trkpt lat="43.59734" lon="1.4278">
        <ele>148.18</ele>
        <time>2017-03-05T08:06:19Z</time>
      </trkpt>
      <trkpt lat="43.59732" lon="1.42772">
        <ele>148.18</ele>
        <time>2017-03-05T08:06:20Z</time>
      </trkpt>
      <trkpt lat="43.59731" lon="1.42766">
        <ele>148.18</ele>
        <time>2017-03-05T08:06:21Z</time>
      </trkpt>
      <trkpt lat="43.5973" lon="1.42758">
        <ele>148.18</ele>
        <time>2017-03-05T08:06:22Z</time>
      </trkpt>
      <trkpt lat="43.5973" lon="1.42751">
        <ele>148.18</ele>
        <time>2017-03-05T08:06:23Z</time>
      </trkpt>
      <trkpt lat="43.59729" lon="1.4273">
        <ele>148.18</ele>
        <time>2017-03-05T08:06:26Z</time>
      </trkpt>
      <trkpt lat="43.59731" lon="1.42715">
        <ele>148.18</ele>
        <time>2017-03-05T08:06:28Z</time>
      </trkpt>
      <trkpt lat="43.5973" lon="1.42707">
        <ele>148.18</ele>
        <time>2017-03-05T08:06:29Z</time>
      </trkpt>
      <trkpt lat="43.5973" lon="1.42686">
        <ele>148.18</ele>
        <time>2017-03-05T08:06:32Z</time>
      </trkpt>
      <trkpt lat="43.5973" lon="1.42671">
        <ele>148.18</ele>
        <time>2017-03-05T08:06:34Z</time>
      </trkpt>
      <trkpt lat="43.59713" lon="1.4261">
        <ele>148.18</ele>
        <time>2017-03-05T08:06:42Z</time>
      </trkpt>
      <trkpt lat="43.5971" lon="1.42602">
        <ele>148.18</ele>
        <time>2017-03-05T08:06:43Z</time>
      </trkpt>
      <trkpt lat="43.59688" lon="1.42544">
        <ele>148.18</ele>
        <time>2017-03-05T08:06:50Z</time>
      </trkpt>
      <trkpt lat="43.59679" lon="1.4248">
        <ele>148.18</ele>
        <time>2017-03-05T08:06:58Z</time>
      </trkpt>
      <trkpt lat="43.59677" lon="1.4244">
        <ele>148.18</ele>
        <time>2017-03-05T08:07:03Z</time>
      </trkpt>
      <trkpt lat="43.59673" lon="1.42416">
        <ele>148.18</ele>
        <time>2017-03-05T08:07:06Z</time>
      </trkpt>
      <trkpt lat="43.59662" lon="1.42387">
        <ele>148.18</ele>
        <time>2017-03-05T08:07:10Z</time>
      </trkpt>
      <trkpt lat="43.5966" lon="1.42381">
        <ele>148.18</ele>
        <time>2017-03-05T08:07:11Z</time>
      </trkpt>
      <trkpt lat="43.59658" lon="1.42377">
        <ele>148.18</ele>
        <time>2017-03-05T08:07:12Z</time>
      </trkpt>
      <trkpt lat="43.59651" lon="1.42346">
        <ele>148.18</ele>
        <time>2017-03-05T08:07:17Z</time>
      </trkpt>
      <trkpt lat="43.59651" lon="1.42338">
        <ele>148.18</ele>
        <time>2017-03-05T08:07:18Z</time>
      </trkpt>
      <trkpt lat="43.59654" lon="1.4233">
        <ele>148.18</ele>
        <time>2017-03-05T08:07:19Z</time>
      </trkpt>
      <trkpt lat="43.59654" lon="1.42324">
        <ele>148.18</ele>
        <time>2017-03-05T08:07:20Z</time>
      </trkpt>
      <trkpt lat="43.59655" lon="1.42317">
        <ele>148.18</ele>
        <time>2017-03-05T08:07:21Z</time>
      </trkpt>
      <trkpt lat="43.59657" lon="1.42311">
        <ele>148.18</ele>
        <time>2017-03-05T08:07:22Z</time>
      </trkpt>
      <trkpt lat="43.59691" lon="1.42218">
        <ele>148.18</ele>
        <time>2017-03-05T08:07:35Z</time>
      </trkpt>
      <trkpt lat="43.59737" lon="1.42109">
        <ele>148.18</ele>
        <time>2017-03-05T08:07:50Z</time>
      </trkpt>
      <trkpt lat="43.59775" lon="1.42024">
        <ele>147.22</ele>
        <time>2017-03-05T08:08:03Z</time>
      </trkpt>
      <trkpt lat="43.59782" lon="1.42008">
        <ele>147.22</ele>
        <time>2017-03-05T08:08:08Z</time>
      </trkpt>
      <trkpt lat="43.59783" lon="1.42004">
        <ele>147.22</ele>
        <time>2017-03-05T08:08:09Z</time>
      </trkpt>
      <trkpt lat="43.59795" lon="1.41992">
        <ele>147.22</ele>
        <time>2017-03-05T08:08:13Z</time>
      </trkpt>
      <trkpt lat="43.59797" lon="1.41987">
        <ele>147.22</ele>
        <time>2017-03-05T08:08:14Z</time>
      </trkpt>
      <trkpt lat="43.59805" lon="1.41961">
        <ele>147.22</ele>
        <time>2017-03-05T08:08:19Z</time>
      </trkpt>
      <trkpt lat="43.59808" lon="1.41955">
        <ele>147.22</ele>
        <time>2017-03-05T08:08:20Z</time>
      </trkpt>
      <trkpt lat="43.5985" lon="1.41853">
        <ele>145.78</ele>
        <time>2017-03-05T08:08:35Z</time>
      </trkpt>
      <trkpt lat="43.59893" lon="1.41766">
        <ele>145.78</ele>
        <time>2017-03-05T08:08:49Z</time>
      </trkpt>
      <trkpt lat="43.59932" lon="1.41682">
        <ele>145.78</ele>
        <time>2017-03-05T08:09:02Z</time>
      </trkpt>
      <trkpt lat="43.59976" lon="1.41585">
        <ele>144.82</ele>
        <time>2017-03-05T08:09:17Z</time>
      </trkpt>
      <trkpt lat="43.60011" lon="1.415">
        <ele>144.82</ele>
        <time>2017-03-05T08:09:29Z</time>
      </trkpt>
      <trkpt lat="43.60055" lon="1.414">
        <ele>144.82</ele>
        <time>2017-03-05T08:09:43Z</time>
      </trkpt>
      <trkpt lat="43.60062" lon="1.41386">
        <ele>144.82</ele>
        <time>2017-03-05T08:09:45Z</time>
      </trkpt>
      <trkpt lat="43.60078" lon="1.4135">
        <ele>144.82</ele>
        <time>2017-03-05T08:09:50Z</time>
      </trkpt>
      <trkpt lat="43.60128" lon="1.41244">
        <ele>144.82</ele>
        <time>2017-03-05T08:10:05Z</time>
      </trkpt>
      <trkpt lat="43.60174" lon="1.41135">
        <ele>144.82</ele>
        <time>2017-03-05T08:10:20Z</time>
      </trkpt>
      <trkpt lat="43.60213" lon="1.41048">
        <ele>144.82</ele>
        <time>2017-03-05T08:10:32Z</time>
      </trkpt>
      <trkpt lat="43.60242" lon="1.40977">
        <ele>144.82</ele>
        <time>2017-03-05T08:10:42Z</time>
      </trkpt>
      <trkpt lat="43.6025" lon="1.40951">
        <ele>144.82</ele>
        <time>2017-03-05T08:10:51Z</time>
      </trkpt>
      <trkpt lat="43.60246" lon="1.40945">
        <ele>144.82</ele>
        <time>2017-03-05T08:10:55Z</time>
      </trkpt>
      <trkpt lat="43.60247" lon="1.40941">
        <ele>144.82</ele>
        <time>2017-03-05T08:10:56Z</time>
      </trkpt>
      <trkpt lat="43.60248" lon="1.40937">
        <ele>144.82</ele>
        <time>2017-03-05T08:10:57Z</time>
      </trkpt>
      <trkpt lat="43.60251" lon="1.40932">
        <ele>144.82</ele>
        <time>2017-03-05T08:10:58Z</time>
      </trkpt>
      <trkpt lat="43.60253" lon="1.40927">
        <ele>144.82</ele>
        <time>2017-03-05T08:10:59Z</time>
      </trkpt>
      <trkpt lat="43.60256" lon="1.40922">
        <ele>144.82</ele>
        <time>2017-03-05T08:11:00Z</time>
      </trkpt>
      <trkpt lat="43.60302" lon="1.4082">
        <ele>144.82</ele>
        <time>2017-03-05T08:11:16Z</time>
      </trkpt>
      <trkpt lat="43.60341" lon="1.40736">
        <ele>144.82</ele>
        <time>2017-03-05T08:11:30Z</time>
      </trkpt>
      <trkpt lat="43.60349" lon="1.40719">
        <ele>144.82</ele>
        <time>2017-03-05T08:11:33Z</time>
      </trkpt>
      <trkpt lat="43.60352" lon="1.40716">
        <ele>144.82</ele>
        <time>2017-03-05T08:11:34Z</time>
      </trkpt>
      <trkpt lat="43.60355" lon="1.40713">
        <ele>144.82</ele>
        <time>2017-03-05T08:11:35Z</time>
      </trkpt>
      <trkpt lat="43.60358" lon="1.40711">
        <ele>144.82</ele>
        <time>2017-03-05T08:11:36Z</time>
      </trkpt>
      <trkpt lat="43.60362" lon="1.40708">
        <ele>144.82</ele>
        <time>2017-03-05T08:11:37Z</time>
      </trkpt>
      <trkpt lat="43.60365" lon="1.40705">
        <ele>144.82</ele>
        <time>2017-03-05T08:11:38Z</time>
      </trkpt>
      <trkpt lat="43.60369" lon="1.40701">
        <ele>144.82</ele>
        <time>2017-03-05T08:11:39Z</time>
      </trkpt>
      <trkpt lat="43.60372" lon="1.40696">
        <ele>144.82</ele>
        <time>2017-03-05T08:11:40Z</time>
      </trkpt>
      <trkpt lat="43.60374" lon="1.40691">
        <ele>144.82</ele>
        <time>2017-03-05T08:11:41Z</time>
      </trkpt>
      <trkpt lat="43.60406" lon="1.40619">
        <ele>143.85</ele>
        <time>2017-03-05T08:11:52Z</time>
      </trkpt>
      <trkpt lat="43.60419" lon="1.40594">
        <ele>143.85</ele>
        <time>2017-03-05T08:11:56Z</time>
      </trkpt>
      <trkpt lat="43.60448" lon="1.40528">
        <ele>143.85</ele>
        <time>2017-03-05T08:12:06Z</time>
      </trkpt>
      <trkpt lat="43.60465" lon="1.40493">
        <ele>143.85</ele>
        <time>2017-03-05T08:12:13Z</time>
      </trkpt>
      <trkpt lat="43.60468" lon="1.40488">
        <ele>143.85</ele>
        <time>2017-03-05T08:12:14Z</time>
      </trkpt>
      <trkpt lat="43.6047" lon="1.40482">
        <ele>143.85</ele>
        <time>2017-03-05T08:12:15Z</time>
      </trkpt>
      <trkpt lat="43.60496" lon="1.40425">
        <ele>143.85</ele>
        <time>2017-03-05T08:12:24Z</time>
      </trkpt>
      <trkpt lat="43.60532" lon="1.40342">
        <ele>143.85</ele>
        <time>2017-03-05T08:12:36Z</time>
      </trkpt>
      <trkpt lat="43.60535" lon="1.40337">
        <ele>143.85</ele>
        <time>2017-03-05T08:12:37Z</time>
      </trkpt>
      <trkpt lat="43.6055" lon="1.40303">
        <ele>144.82</ele>
        <time>2017-03-05T08:12:42Z</time>
      </trkpt>
      <trkpt lat="43.60584" lon="1.40229">
        <ele>145.78</ele>
        <time>2017-03-05T08:12:56Z</time>
      </trkpt>
      <trkpt lat="43.60618" lon="1.40153">
        <ele>149.14</ele>
        <time>2017-03-05T08:13:10Z</time>
      </trkpt>
      <trkpt lat="43.60658" lon="1.40061">
        <ele>151.06</ele>
        <time>2017-03-05T08:13:27Z</time>
      </trkpt>
      <trkpt lat="43.60705" lon="1.39953">
        <ele>153.95</ele>
        <time>2017-03-05T08:13:47Z</time>
      </trkpt>
      <trkpt lat="43.60746" lon="1.39858">
        <ele>155.87</ele>
        <time>2017-03-05T08:14:04Z</time>
      </trkpt>
      <trkpt lat="43.60784" lon="1.39779">
        <ele>156.83</ele>
        <time>2017-03-05T08:14:18Z</time>
      </trkpt>
      <trkpt lat="43.60792" lon="1.39767">
        <ele>156.83</ele>
        <time>2017-03-05T08:14:21Z</time>
      </trkpt>
      <trkpt lat="43.60795" lon="1.39766">
        <ele>156.83</ele>
        <time>2017-03-05T08:14:22Z</time>
      </trkpt>
      <trkpt lat="43.60807" lon="1.3976">
        <ele>156.83</ele>
        <time>2017-03-05T08:14:25Z</time>
      </trkpt>
      <trkpt lat="43.60811" lon="1.39757">
        <ele>156.83</ele>
        <time>2017-03-05T08:14:26Z</time>
      </trkpt>
      <trkpt lat="43.60814" lon="1.39752">
        <ele>157.79</ele>
        <time>2017-03-05T08:14:27Z</time>
      </trkpt>
      <trkpt lat="43.60817" lon="1.39748">
        <ele>157.79</ele>
        <time>2017-03-05T08:14:28Z</time>
      </trkpt>
      <trkpt lat="43.60819" lon="1.39743">
        <ele>157.79</ele>
        <time>2017-03-05T08:14:29Z</time>
      </trkpt>
      <trkpt lat="43.60809" lon="1.39713">
        <ele>157.79</ele>
        <time>2017-03-05T08:14:36Z</time>
      </trkpt>
      <trkpt lat="43.60807" lon="1.39708">
        <ele>157.79</ele>
        <time>2017-03-05T08:14:37Z</time>
      </trkpt>
      <trkpt lat="43.60805" lon="1.39702">
        <ele>157.79</ele>
        <time>2017-03-05T08:14:38Z</time>
      </trkpt>
      <trkpt lat="43.60803" lon="1.39696">
        <ele>157.79</ele>
        <time>2017-03-05T08:14:39Z</time>
      </trkpt>
      <trkpt lat="43.60803" lon="1.39689">
        <ele>157.79</ele>
        <time>2017-03-05T08:14:40Z</time>
      </trkpt>
      <trkpt lat="43.60802" lon="1.39682">
        <ele>157.79</ele>
        <time>2017-03-05T08:14:41Z</time>
      </trkpt>
      <trkpt lat="43.60801" lon="1.39659">
        <ele>157.79</ele>
        <time>2017-03-05T08:14:44Z</time>
      </trkpt>
      <trkpt lat="43.60801" lon="1.39503">
        <ele>157.79</ele>
        <time>2017-03-05T08:15:04Z</time>
      </trkpt>
      <trkpt lat="43.60806" lon="1.39437">
        <ele>157.79</ele>
        <time>2017-03-05T08:15:12Z</time>
      </trkpt>
      <trkpt lat="43.60808" lon="1.3943">
        <ele>157.79</ele>
        <time>2017-03-05T08:15:13Z</time>
      </trkpt>
      <trkpt lat="43.6081" lon="1.39422">
        <ele>157.79</ele>
        <time>2017-03-05T08:15:14Z</time>
      </trkpt>
      <trkpt lat="43.60814" lon="1.39407">
        <ele>157.79</ele>
        <time>2017-03-05T08:15:16Z</time>
      </trkpt>
      <trkpt lat="43.60815" lon="1.39399">
        <ele>157.79</ele>
        <time>2017-03-05T08:15:17Z</time>
      </trkpt>
      <trkpt lat="43.60814" lon="1.3939">
        <ele>157.79</ele>
        <time>2017-03-05T08:15:18Z</time>
      </trkpt>
      <trkpt lat="43.60812" lon="1.39366">
        <ele>157.79</ele>
        <time>2017-03-05T08:15:21Z</time>
      </trkpt>
      <trkpt lat="43.60813" lon="1.39358">
        <ele>157.79</ele>
        <time>2017-03-05T08:15:22Z</time>
      </trkpt>
      <trkpt lat="43.6083" lon="1.39198">
        <ele>157.79</ele>
        <time>2017-03-05T08:15:42Z</time>
      </trkpt>
      <trkpt lat="43.60842" lon="1.39079">
        <ele>157.79</ele>
        <time>2017-03-05T08:15:57Z</time>
      </trkpt>
      <trkpt lat="43.60844" lon="1.39072">
        <ele>157.79</ele>
        <time>2017-03-05T08:15:58Z</time>
      </trkpt>
      <trkpt lat="43.60846" lon="1.39064">
        <ele>157.79</ele>
        <time>2017-03-05T08:15:59Z</time>
      </trkpt>
      <trkpt lat="43.60848" lon="1.39057">
        <ele>157.79</ele>
        <time>2017-03-05T08:16:00Z</time>
      </trkpt>
      <trkpt lat="43.60848" lon="1.3905">
        <ele>157.79</ele>
        <time>2017-03-05T08:16:01Z</time>
      </trkpt>
      <trkpt lat="43.60848" lon="1.39042">
        <ele>157.79</ele>
        <time>2017-03-05T08:16:02Z</time>
      </trkpt>
      <trkpt lat="43.60847" lon="1.39034">
        <ele>157.79</ele>
        <time>2017-03-05T08:16:03Z</time>
      </trkpt>
      <trkpt lat="43.60847" lon="1.39026">
        <ele>157.79</ele>
        <time>2017-03-05T08:16:04Z</time>
      </trkpt>
      <trkpt lat="43.60848" lon="1.39018">
        <ele>157.79</ele>
        <time>2017-03-05T08:16:05Z</time>
      </trkpt>
      <trkpt lat="43.60849" lon="1.39011">
        <ele>157.79</ele>
        <time>2017-03-05T08:16:06Z</time>
      </trkpt>
      <trkpt lat="43.60853" lon="1.38955">
        <ele>157.79</ele>
        <time>2017-03-05T08:16:13Z</time>
      </trkpt>
      <trkpt lat="43.60849" lon="1.38931">
        <ele>157.79</ele>
        <time>2017-03-05T08:16:16Z</time>
      </trkpt>
      <trkpt lat="43.60828" lon="1.38816">
        <ele>157.79</ele>
        <time>2017-03-05T08:16:31Z</time>
      </trkpt>
      <trkpt lat="43.60828" lon="1.38808">
        <ele>157.79</ele>
        <time>2017-03-05T08:16:32Z</time>
      </trkpt>
      <trkpt lat="43.6083" lon="1.38782">
        <ele>157.79</ele>
        <time>2017-03-05T08:16:35Z</time>
      </trkpt>
      <trkpt lat="43.60837" lon="1.38744">
        <ele>157.79</ele>
        <time>2017-03-05T08:16:39Z</time>
      </trkpt>
      <trkpt lat="43.6084" lon="1.38734">
        <ele>157.79</ele>
        <time>2017-03-05T08:16:40Z</time>
      </trkpt>
      <trkpt lat="43.60844" lon="1.38724">
        <ele>157.79</ele>
        <time>2017-03-05T08:16:41Z</time>
      </trkpt>
      <trkpt lat="43.60873" lon="1.3863">
        <ele>154.91</ele>
        <time>2017-03-05T08:16:50Z</time>
      </trkpt>
      <trkpt lat="43.60875" lon="1.38577">
        <ele>152.03</ele>
        <time>2017-03-05T08:16:55Z</time>
      </trkpt>
      <trkpt lat="43.60873" lon="1.38568">
        <ele>152.03</ele>
        <time>2017-03-05T08:16:56Z</time>
      </trkpt>
      <trkpt lat="43.60855" lon="1.38447">
        <ele>149.14</ele>
        <time>2017-03-05T08:17:09Z</time>
      </trkpt>
      <trkpt lat="43.60835" lon="1.38312">
        <ele>147.22</ele>
        <time>2017-03-05T08:17:23Z</time>
      </trkpt>
      <trkpt lat="43.60836" lon="1.38303">
        <ele>147.22</ele>
        <time>2017-03-05T08:17:24Z</time>
      </trkpt>
      <trkpt lat="43.60837" lon="1.38294">
        <ele>145.78</ele>
        <time>2017-03-05T08:17:25Z</time>
      </trkpt>
      <trkpt lat="43.60838" lon="1.38279">
        <ele>145.78</ele>
        <time>2017-03-05T08:17:27Z</time>
      </trkpt>
      <trkpt lat="43.60836" lon="1.38272">
        <ele>145.78</ele>
        <time>2017-03-05T08:17:28Z</time>
      </trkpt>
      <trkpt lat="43.60834" lon="1.38265">
        <ele>145.78</ele>
        <time>2017-03-05T08:17:29Z</time>
      </trkpt>
      <trkpt lat="43.60832" lon="1.38258">
        <ele>145.78</ele>
        <time>2017-03-05T08:17:30Z</time>
      </trkpt>
      <trkpt lat="43.60832" lon="1.3825">
        <ele>145.78</ele>
        <time>2017-03-05T08:17:31Z</time>
      </trkpt>
      <trkpt lat="43.60833" lon="1.38243">
        <ele>145.78</ele>
        <time>2017-03-05T08:17:32Z</time>
      </trkpt>
      <trkpt lat="43.60834" lon="1.38235">
        <ele>145.78</ele>
        <time>2017-03-05T08:17:33Z</time>
      </trkpt>
      <trkpt lat="43.60835" lon="1.38228">
        <ele>145.78</ele>
        <time>2017-03-05T08:17:34Z</time>
      </trkpt>
      <trkpt lat="43.60843" lon="1.38192">
        <ele>145.78</ele>
        <time>2017-03-05T08:17:39Z</time>
      </trkpt>
      <trkpt lat="43.60846" lon="1.38186">
        <ele>145.78</ele>
        <time>2017-03-05T08:17:40Z</time>
      </trkpt>
      <trkpt lat="43.609" lon="1.38094">
        <ele>149.14</ele>
        <time>2017-03-05T08:17:58Z</time>
      </trkpt>
      <trkpt lat="43.60905" lon="1.38074">
        <ele>149.14</ele>
        <time>2017-03-05T08:18:02Z</time>
      </trkpt>
      <trkpt lat="43.60907" lon="1.38068">
        <ele>150.1</ele>
        <time>2017-03-05T08:18:03Z</time>
      </trkpt>
      <trkpt lat="43.60908" lon="1.38062">
        <ele>150.1</ele>
        <time>2017-03-05T08:18:04Z</time>
      </trkpt>
      <trkpt lat="43.6091" lon="1.3803">
        <ele>150.1</ele>
        <time>2017-03-05T08:18:09Z</time>
      </trkpt>
      <trkpt lat="43.60912" lon="1.38017">
        <ele>150.1</ele>
        <time>2017-03-05T08:18:11Z</time>
      </trkpt>
      <trkpt lat="43.60912" lon="1.38012">
        <ele>150.1</ele>
        <time>2017-03-05T08:18:12Z</time>
      </trkpt>
      <trkpt lat="43.6091" lon="1.38007">
        <ele>151.06</ele>
        <time>2017-03-05T08:18:13Z</time>
      </trkpt>
      <trkpt lat="43.60906" lon="1.38003">
        <ele>151.06</ele>
        <time>2017-03-05T08:18:14Z</time>
      </trkpt>
      <trkpt lat="43.60901" lon="1.38">
        <ele>151.06</ele>
        <time>2017-03-05T08:18:15Z</time>
      </trkpt>
      <trkpt lat="43.60897" lon="1.37997">
        <ele>151.06</ele>
        <time>2017-03-05T08:18:16Z</time>
      </trkpt>
      <trkpt lat="43.60893" lon="1.37992">
        <ele>151.06</ele>
        <time>2017-03-05T08:18:17Z</time>
      </trkpt>
      <trkpt lat="43.60889" lon="1.37987">
        <ele>152.03</ele>
        <time>2017-03-05T08:18:18Z</time>
      </trkpt>
      <trkpt lat="43.60886" lon="1.37981">
        <ele>152.03</ele>
        <time>2017-03-05T08:18:19Z</time>
      </trkpt>
      <trkpt lat="43.60877" lon="1.37964">
        <ele>152.99</ele>
        <time>2017-03-05T08:18:22Z</time>
      </trkpt>
      <trkpt lat="43.60874" lon="1.37958">
        <ele>152.99</ele>
        <time>2017-03-05T08:18:23Z</time>
      </trkpt>
      <trkpt lat="43.60853" lon="1.3791">
        <ele>153.95</ele>
        <time>2017-03-05T08:18:31Z</time>
      </trkpt>
      <trkpt lat="43.60844" lon="1.37893">
        <ele>153.95</ele>
        <time>2017-03-05T08:18:34Z</time>
      </trkpt>
      <trkpt lat="43.6084" lon="1.37881">
        <ele>153.95</ele>
        <time>2017-03-05T08:18:36Z</time>
      </trkpt>
      <trkpt lat="43.60837" lon="1.37867">
        <ele>153.95</ele>
        <time>2017-03-05T08:18:38Z</time>
      </trkpt>
      <trkpt lat="43.60837" lon="1.37859">
        <ele>153.95</ele>
        <time>2017-03-05T08:18:39Z</time>
      </trkpt>
      <trkpt lat="43.60837" lon="1.37852">
        <ele>153.95</ele>
        <time>2017-03-05T08:18:40Z</time>
      </trkpt>
      <trkpt lat="43.60837" lon="1.37845">
        <ele>154.91</ele>
        <time>2017-03-05T08:18:41Z</time>
      </trkpt>
      <trkpt lat="43.60838" lon="1.37837">
        <ele>154.91</ele>
        <time>2017-03-05T08:18:42Z</time>
      </trkpt>
      <trkpt lat="43.60839" lon="1.3783">
        <ele>154.91</ele>
        <time>2017-03-05T08:18:43Z</time>
      </trkpt>
      <trkpt lat="43.60841" lon="1.37824">
        <ele>154.91</ele>
        <time>2017-03-05T08:18:44Z</time>
      </trkpt>
      <trkpt lat="43.60859" lon="1.3773">
        <ele>155.87</ele>
        <time>2017-03-05T08:18:58Z</time>
      </trkpt>
      <trkpt lat="43.60867" lon="1.3761">
        <ele>157.79</ele>
        <time>2017-03-05T08:19:15Z</time>
      </trkpt>
      <trkpt lat="43.60871" lon="1.37494">
        <ele>159.24</ele>
        <time>2017-03-05T08:19:31Z</time>
      </trkpt>
      <trkpt lat="43.60875" lon="1.37359">
        <ele>160.2</ele>
        <time>2017-03-05T08:19:49Z</time>
      </trkpt>
      <trkpt lat="43.60882" lon="1.37267">
        <ele>160.2</ele>
        <time>2017-03-05T08:20:01Z</time>
      </trkpt>
      <trkpt lat="43.60884" lon="1.3726">
        <ele>160.2</ele>
        <time>2017-03-05T08:20:02Z</time>
      </trkpt>
      <trkpt lat="43.60894" lon="1.37233">
        <ele>160.2</ele>
        <time>2017-03-05T08:20:06Z</time>
      </trkpt>
      <trkpt lat="43.60894" lon="1.37226">
        <ele>160.2</ele>
        <time>2017-03-05T08:20:07Z</time>
      </trkpt>
      <trkpt lat="43.60893" lon="1.37219">
        <ele>160.2</ele>
        <time>2017-03-05T08:20:08Z</time>
      </trkpt>
      <trkpt lat="43.6089" lon="1.37213">
        <ele>160.2</ele>
        <time>2017-03-05T08:20:09Z</time>
      </trkpt>
      <trkpt lat="43.60886" lon="1.3721">
        <ele>160.2</ele>
        <time>2017-03-05T08:20:10Z</time>
      </trkpt>
      <trkpt lat="43.60881" lon="1.37208">
        <ele>160.2</ele>
        <time>2017-03-05T08:20:11Z</time>
      </trkpt>
      <trkpt lat="43.60876" lon="1.37208">
        <ele>160.2</ele>
        <time>2017-03-05T08:20:12Z</time>
      </trkpt>
      <trkpt lat="43.60871" lon="1.3721">
        <ele>160.2</ele>
        <time>2017-03-05T08:20:13Z</time>
      </trkpt>
      <trkpt lat="43.60866" lon="1.37213">
        <ele>160.2</ele>
        <time>2017-03-05T08:20:14Z</time>
      </trkpt>
      <trkpt lat="43.60861" lon="1.37216">
        <ele>160.2</ele>
        <time>2017-03-05T08:20:15Z</time>
      </trkpt>
      <trkpt lat="43.60855" lon="1.37219">
        <ele>160.2</ele>
        <time>2017-03-05T08:20:16Z</time>
      </trkpt>
      <trkpt lat="43.6085" lon="1.3722">
        <ele>160.2</ele>
        <time>2017-03-05T08:20:17Z</time>
      </trkpt>
      <trkpt lat="43.60844" lon="1.37219">
        <ele>160.2</ele>
        <time>2017-03-05T08:20:18Z</time>
      </trkpt>
      <trkpt lat="43.60839" lon="1.37216">
        <ele>160.2</ele>
        <time>2017-03-05T08:20:19Z</time>
      </trkpt>
      <trkpt lat="43.60834" lon="1.37212">
        <ele>160.2</ele>
        <time>2017-03-05T08:20:20Z</time>
      </trkpt>
      <trkpt lat="43.60824" lon="1.37204">
        <ele>160.2</ele>
        <time>2017-03-05T08:20:22Z</time>
      </trkpt>
      <trkpt lat="43.60818" lon="1.37201">
        <ele>160.2</ele>
        <time>2017-03-05T08:20:23Z</time>
      </trkpt>
      <trkpt lat="43.6076" lon="1.37181">
        <ele>160.2</ele>
        <time>2017-03-05T08:20:33Z</time>
      </trkpt>
      <trkpt lat="43.60755" lon="1.37178">
        <ele>160.2</ele>
        <time>2017-03-05T08:20:34Z</time>
      </trkpt>
      <trkpt lat="43.6075" lon="1.37174">
        <ele>160.2</ele>
        <time>2017-03-05T08:20:35Z</time>
      </trkpt>
      <trkpt lat="43.60745" lon="1.3717">
        <ele>160.2</ele>
        <time>2017-03-05T08:20:36Z</time>
      </trkpt>
      <trkpt lat="43.6074" lon="1.37165">
        <ele>160.2</ele>
        <time>2017-03-05T08:20:37Z</time>
      </trkpt>
      <trkpt lat="43.60736" lon="1.37159">
        <ele>160.2</ele>
        <time>2017-03-05T08:20:38Z</time>
      </trkpt>
      <trkpt lat="43.60732" lon="1.37154">
        <ele>160.2</ele>
        <time>2017-03-05T08:20:39Z</time>
      </trkpt>
      <trkpt lat="43.60728" lon="1.37148">
        <ele>160.2</ele>
        <time>2017-03-05T08:20:40Z</time>
      </trkpt>
      <trkpt lat="43.60722" lon="1.37135">
        <ele>160.2</ele>
        <time>2017-03-05T08:20:42Z</time>
      </trkpt>
      <trkpt lat="43.60719" lon="1.37128">
        <ele>160.2</ele>
        <time>2017-03-05T08:20:43Z</time>
      </trkpt>
      <trkpt lat="43.60716" lon="1.37112">
        <ele>160.2</ele>
        <time>2017-03-05T08:20:45Z</time>
      </trkpt>
      <trkpt lat="43.60715" lon="1.37104">
        <ele>160.2</ele>
        <time>2017-03-05T08:20:46Z</time>
      </trkpt>
      <trkpt lat="43.60715" lon="1.37096">
        <ele>160.2</ele>
        <time>2017-03-05T08:20:47Z</time>
      </trkpt>
      <trkpt lat="43.60716" lon="1.37088">
        <ele>161.16</ele>
        <time>2017-03-05T08:20:48Z</time>
      </trkpt>
      <trkpt lat="43.60717" lon="1.3708">
        <ele>161.16</ele>
        <time>2017-03-05T08:20:49Z</time>
      </trkpt>
      <trkpt lat="43.60726" lon="1.36999">
        <ele>161.16</ele>
        <time>2017-03-05T08:20:59Z</time>
      </trkpt>
      <trkpt lat="43.60726" lon="1.3699">
        <ele>161.16</ele>
        <time>2017-03-05T08:21:00Z</time>
      </trkpt>
      <trkpt lat="43.60726" lon="1.36983">
        <ele>161.16</ele>
        <time>2017-03-05T08:21:01Z</time>
      </trkpt>
      <trkpt lat="43.60724" lon="1.36975">
        <ele>161.16</ele>
        <time>2017-03-05T08:21:02Z</time>
      </trkpt>
      <trkpt lat="43.60721" lon="1.36968">
        <ele>161.16</ele>
        <time>2017-03-05T08:21:03Z</time>
      </trkpt>
      <trkpt lat="43.60718" lon="1.36961">
        <ele>161.16</ele>
        <time>2017-03-05T08:21:04Z</time>
      </trkpt>
      <trkpt lat="43.60714" lon="1.36955">
        <ele>161.16</ele>
        <time>2017-03-05T08:21:05Z</time>
      </trkpt>
      <trkpt lat="43.6071" lon="1.3695">
        <ele>161.16</ele>
        <time>2017-03-05T08:21:06Z</time>
      </trkpt>
      <trkpt lat="43.60665" lon="1.36907">
        <ele>161.16</ele>
        <time>2017-03-05T08:21:15Z</time>
      </trkpt>
      <trkpt lat="43.60661" lon="1.369">
        <ele>161.16</ele>
        <time>2017-03-05T08:21:16Z</time>
      </trkpt>
      <trkpt lat="43.60659" lon="1.36893">
        <ele>161.16</ele>
        <time>2017-03-05T08:21:17Z</time>
      </trkpt>
      <trkpt lat="43.60657" lon="1.36885">
        <ele>161.16</ele>
        <time>2017-03-05T08:21:18Z</time>
      </trkpt>
      <trkpt lat="43.60656" lon="1.36877">
        <ele>160.2</ele>
        <time>2017-03-05T08:21:19Z</time>
      </trkpt>
      <trkpt lat="43.60657" lon="1.36869">
        <ele>160.2</ele>
        <time>2017-03-05T08:21:20Z</time>
      </trkpt>
      <trkpt lat="43.60658" lon="1.36861">
        <ele>160.2</ele>
        <time>2017-03-05T08:21:21Z</time>
      </trkpt>
      <trkpt lat="43.6066" lon="1.36853">
        <ele>160.2</ele>
        <time>2017-03-05T08:21:22Z</time>
      </trkpt>
      <trkpt lat="43.60671" lon="1.36818">
        <ele>160.2</ele>
        <time>2017-03-05T08:21:27Z</time>
      </trkpt>
      <trkpt lat="43.60673" lon="1.36809">
        <ele>160.2</ele>
        <time>2017-03-05T08:21:28Z</time>
      </trkpt>
      <trkpt lat="43.60681" lon="1.36785">
        <ele>160.2</ele>
        <time>2017-03-05T08:21:31Z</time>
      </trkpt>
      <trkpt lat="43.60685" lon="1.36777">
        <ele>160.2</ele>
        <time>2017-03-05T08:21:32Z</time>
      </trkpt>
      <trkpt lat="43.60689" lon="1.36771">
        <ele>160.2</ele>
        <time>2017-03-05T08:21:33Z</time>
      </trkpt>
      <trkpt lat="43.60694" lon="1.36767">
        <ele>160.2</ele>
        <time>2017-03-05T08:21:34Z</time>
      </trkpt>
      <trkpt lat="43.607" lon="1.36765">
        <ele>160.2</ele>
        <time>2017-03-05T08:21:35Z</time>
      </trkpt>
      <trkpt lat="43.60705" lon="1.36764">
        <ele>160.2</ele>
        <time>2017-03-05T08:21:36Z</time>
      </trkpt>
      <trkpt lat="43.6071" lon="1.36762">
        <ele>160.2</ele>
        <time>2017-03-05T08:21:37Z</time>
      </trkpt>
      <trkpt lat="43.60715" lon="1.36758">
        <ele>160.2</ele>
        <time>2017-03-05T08:21:38Z</time>
      </trkpt>
      <trkpt lat="43.60719" lon="1.36752">
        <ele>160.2</ele>
        <time>2017-03-05T08:21:39Z</time>
      </trkpt>
      <trkpt lat="43.60721" lon="1.36745">
        <ele>160.2</ele>
        <time>2017-03-05T08:21:40Z</time>
      </trkpt>
      <trkpt lat="43.60723" lon="1.36736">
        <ele>160.2</ele>
        <time>2017-03-05T08:21:41Z</time>
      </trkpt>
      <trkpt lat="43.60724" lon="1.36728">
        <ele>160.2</ele>
        <time>2017-03-05T08:21:42Z</time>
      </trkpt>
      <trkpt lat="43.60726" lon="1.3672">
        <ele>160.2</ele>
        <time>2017-03-05T08:21:43Z</time>
      </trkpt>
      <trkpt lat="43.60729" lon="1.36712">
        <ele>160.2</ele>
        <time>2017-03-05T08:21:44Z</time>
      </trkpt>
      <trkpt lat="43.60757" lon="1.36613">
        <ele>160.2</ele>
        <time>2017-03-05T08:21:57Z</time>
      </trkpt>
      <trkpt lat="43.60791" lon="1.36476">
        <ele>161.16</ele>
        <time>2017-03-05T08:22:14Z</time>
      </trkpt>
      <trkpt lat="43.60797" lon="1.36454">
        <ele>161.16</ele>
        <time>2017-03-05T08:22:17Z</time>
      </trkpt>
      <trkpt lat="43.608" lon="1.36447">
        <ele>161.16</ele>
        <time>2017-03-05T08:22:18Z</time>
      </trkpt>
      <trkpt lat="43.60804" lon="1.36441">
        <ele>161.16</ele>
        <time>2017-03-05T08:22:19Z</time>
      </trkpt>
      <trkpt lat="43.60808" lon="1.36437">
        <ele>161.16</ele>
        <time>2017-03-05T08:22:20Z</time>
      </trkpt>
      <trkpt lat="43.60813" lon="1.36433">
        <ele>161.16</ele>
        <time>2017-03-05T08:22:21Z</time>
      </trkpt>
      <trkpt lat="43.60817" lon="1.36429">
        <ele>161.16</ele>
        <time>2017-03-05T08:22:22Z</time>
      </trkpt>
      <trkpt lat="43.60821" lon="1.36423">
        <ele>161.16</ele>
        <time>2017-03-05T08:22:23Z</time>
      </trkpt>
      <trkpt lat="43.60823" lon="1.36417">
        <ele>161.16</ele>
        <time>2017-03-05T08:22:24Z</time>
      </trkpt>
      <trkpt lat="43.60822" lon="1.3641">
        <ele>161.16</ele>
        <time>2017-03-05T08:22:25Z</time>
      </trkpt>
      <trkpt lat="43.60821" lon="1.36403">
        <ele>161.16</ele>
        <time>2017-03-05T08:22:26Z</time>
      </trkpt>
      <trkpt lat="43.60817" lon="1.36398">
        <ele>161.16</ele>
        <time>2017-03-05T08:22:27Z</time>
      </trkpt>
      <trkpt lat="43.60813" lon="1.36393">
        <ele>161.16</ele>
        <time>2017-03-05T08:22:28Z</time>
      </trkpt>
      <trkpt lat="43.60808" lon="1.3639">
        <ele>161.16</ele>
        <time>2017-03-05T08:22:29Z</time>
      </trkpt>
      <trkpt lat="43.60802" lon="1.36386">
        <ele>161.16</ele>
        <time>2017-03-05T08:22:30Z</time>
      </trkpt>
      <trkpt lat="43.60797" lon="1.36382">
        <ele>161.16</ele>
        <time>2017-03-05T08:22:31Z</time>
      </trkpt>
      <trkpt lat="43.60793" lon="1.36377">
        <ele>161.16</ele>
        <time>2017-03-05T08:22:32Z</time>
      </trkpt>
      <trkpt lat="43.60789" lon="1.3637">
        <ele>161.16</ele>
        <time>2017-03-05T08:22:33Z</time>
      </trkpt>
      <trkpt lat="43.60786" lon="1.36363">
        <ele>161.16</ele>
        <time>2017-03-05T08:22:34Z</time>
      </trkpt>
      <trkpt lat="43.60783" lon="1.36356">
        <ele>161.16</ele>
        <time>2017-03-05T08:22:35Z</time>
      </trkpt>
      <trkpt lat="43.6078" lon="1.36348">
        <ele>161.16</ele>
        <time>2017-03-05T08:22:36Z</time>
      </trkpt>
      <trkpt lat="43.60778" lon="1.3634">
        <ele>161.16</ele>
        <time>2017-03-05T08:22:37Z</time>
      </trkpt>
      <trkpt lat="43.60777" lon="1.36331">
        <ele>161.16</ele>
        <time>2017-03-05T08:22:38Z</time>
      </trkpt>
      <trkpt lat="43.60777" lon="1.36323">
        <ele>161.16</ele>
        <time>2017-03-05T08:22:39Z</time>
      </trkpt>
      <trkpt lat="43.60777" lon="1.36314">
        <ele>161.16</ele>
        <time>2017-03-05T08:22:40Z</time>
      </trkpt>
      <trkpt lat="43.60779" lon="1.36189">
        <ele>161.16</ele>
        <time>2017-03-05T08:22:55Z</time>
      </trkpt>
      <trkpt lat="43.60783" lon="1.36057">
        <ele>161.16</ele>
        <time>2017-03-05T08:23:11Z</time>
      </trkpt>
      <trkpt lat="43.60788" lon="1.35907">
        <ele>162.12</ele>
        <time>2017-03-05T08:23:29Z</time>
      </trkpt>
      <trkpt lat="43.60788" lon="1.35898">
        <ele>162.12</ele>
        <time>2017-03-05T08:23:30Z</time>
      </trkpt>
      <trkpt lat="43.60789" lon="1.3589">
        <ele>162.12</ele>
        <time>2017-03-05T08:23:31Z</time>
      </trkpt>
      <trkpt lat="43.60793" lon="1.35793">
        <ele>162.12</ele>
        <time>2017-03-05T08:23:43Z</time>
      </trkpt>
      <trkpt lat="43.60796" lon="1.35778">
        <ele>162.12</ele>
        <time>2017-03-05T08:23:45Z</time>
      </trkpt>
      <trkpt lat="43.60795" lon="1.3577">
        <ele>162.12</ele>
        <time>2017-03-05T08:23:46Z</time>
      </trkpt>
      <trkpt lat="43.60792" lon="1.35756">
        <ele>162.12</ele>
        <time>2017-03-05T08:23:48Z</time>
      </trkpt>
      <trkpt lat="43.60791" lon="1.35748">
        <ele>162.12</ele>
        <time>2017-03-05T08:23:49Z</time>
      </trkpt>
      <trkpt lat="43.60793" lon="1.35616">
        <ele>161.16</ele>
        <time>2017-03-05T08:24:05Z</time>
      </trkpt>
      <trkpt lat="43.60793" lon="1.35608">
        <ele>161.16</ele>
        <time>2017-03-05T08:24:06Z</time>
      </trkpt>
      <trkpt lat="43.60792" lon="1.35583">
        <ele>161.16</ele>
        <time>2017-03-05T08:24:09Z</time>
      </trkpt>
      <trkpt lat="43.6079" lon="1.35576">
        <ele>161.16</ele>
        <time>2017-03-05T08:24:10Z</time>
      </trkpt>
      <trkpt lat="43.60788" lon="1.35568">
        <ele>161.16</ele>
        <time>2017-03-05T08:24:11Z</time>
      </trkpt>
      <trkpt lat="43.60784" lon="1.35562">
        <ele>161.16</ele>
        <time>2017-03-05T08:24:12Z</time>
      </trkpt>
      <trkpt lat="43.6078" lon="1.35556">
        <ele>161.16</ele>
        <time>2017-03-05T08:24:13Z</time>
      </trkpt>
      <trkpt lat="43.60776" lon="1.35551">
        <ele>161.16</ele>
        <time>2017-03-05T08:24:14Z</time>
      </trkpt>
      <trkpt lat="43.60771" lon="1.35547">
        <ele>161.16</ele>
        <time>2017-03-05T08:24:15Z</time>
      </trkpt>
      <trkpt lat="43.60766" lon="1.35543">
        <ele>161.16</ele>
        <time>2017-03-05T08:24:16Z</time>
      </trkpt>
      <trkpt lat="43.6076" lon="1.35541">
        <ele>161.16</ele>
        <time>2017-03-05T08:24:17Z</time>
      </trkpt>
      <trkpt lat="43.60755" lon="1.35539">
        <ele>161.16</ele>
        <time>2017-03-05T08:24:18Z</time>
      </trkpt>
      <trkpt lat="43.60749" lon="1.35539">
        <ele>161.16</ele>
        <time>2017-03-05T08:24:19Z</time>
      </trkpt>
      <trkpt lat="43.60743" lon="1.35539">
        <ele>161.16</ele>
        <time>2017-03-05T08:24:20Z</time>
      </trkpt>
      <trkpt lat="43.60653" lon="1.35527">
        <ele>161.16</ele>
        <time>2017-03-05T08:24:36Z</time>
      </trkpt>
      <trkpt lat="43.60648" lon="1.35524">
        <ele>161.16</ele>
        <time>2017-03-05T08:24:37Z</time>
      </trkpt>
      <trkpt lat="43.60644" lon="1.35519">
        <ele>161.16</ele>
        <time>2017-03-05T08:24:38Z</time>
      </trkpt>
      <trkpt lat="43.60642" lon="1.35513">
        <ele>161.16</ele>
        <time>2017-03-05T08:24:39Z</time>
      </trkpt>
      <trkpt lat="43.60642" lon="1.35505">
        <ele>161.16</ele>
        <time>2017-03-05T08:24:40Z</time>
      </trkpt>
      <trkpt lat="43.60642" lon="1.35498">
        <ele>161.16</ele>
        <time>2017-03-05T08:24:41Z</time>
      </trkpt>
      <trkpt lat="43.60643" lon="1.35491">
        <ele>161.16</ele>
        <time>2017-03-05T08:24:42Z</time>
      </trkpt>
      <trkpt lat="43.60644" lon="1.35483">
        <ele>161.16</ele>
        <time>2017-03-05T08:24:43Z</time>
      </trkpt>
      <trkpt lat="43.60645" lon="1.35476">
        <ele>161.16</ele>
        <time>2017-03-05T08:24:44Z</time>
      </trkpt>
      <trkpt lat="43.60651" lon="1.35395">
        <ele>162.12</ele>
        <time>2017-03-05T08:24:55Z</time>
      </trkpt>
      <trkpt lat="43.60654" lon="1.35389">
        <ele>162.12</ele>
        <time>2017-03-05T08:24:56Z</time>
      </trkpt>
      <trkpt lat="43.60657" lon="1.35383">
        <ele>162.12</ele>
        <time>2017-03-05T08:24:57Z</time>
      </trkpt>
      <trkpt lat="43.60662" lon="1.35379">
        <ele>163.08</ele>
        <time>2017-03-05T08:24:58Z</time>
      </trkpt>
      <trkpt lat="43.60667" lon="1.35376">
        <ele>163.08</ele>
        <time>2017-03-05T08:24:59Z</time>
      </trkpt>
      <trkpt lat="43.60673" lon="1.35375">
        <ele>163.08</ele>
        <time>2017-03-05T08:25:00Z</time>
      </trkpt>
      <trkpt lat="43.60679" lon="1.35376">
        <ele>163.08</ele>
        <time>2017-03-05T08:25:01Z</time>
      </trkpt>
      <trkpt lat="43.60684" lon="1.35378">
        <ele>163.08</ele>
        <time>2017-03-05T08:25:02Z</time>
      </trkpt>
      <trkpt lat="43.6069" lon="1.35379">
        <ele>163.08</ele>
        <time>2017-03-05T08:25:03Z</time>
      </trkpt>
      <trkpt lat="43.60697" lon="1.3538">
        <ele>163.08</ele>
        <time>2017-03-05T08:25:04Z</time>
      </trkpt>
      <trkpt lat="43.60703" lon="1.3538">
        <ele>163.08</ele>
        <time>2017-03-05T08:25:05Z</time>
      </trkpt>
      <trkpt lat="43.60756" lon="1.35378">
        <ele>162.12</ele>
        <time>2017-03-05T08:25:13Z</time>
      </trkpt>
      <trkpt lat="43.60762" lon="1.35375">
        <ele>162.12</ele>
        <time>2017-03-05T08:25:14Z</time>
      </trkpt>
      <trkpt lat="43.60852" lon="1.3532">
        <ele>160.2</ele>
        <time>2017-03-05T08:25:27Z</time>
      </trkpt>
      <trkpt lat="43.60924" lon="1.35275">
        <ele>161.16</ele>
        <time>2017-03-05T08:25:42Z</time>
      </trkpt>
      <trkpt lat="43.60963" lon="1.35257">
        <ele>162.12</ele>
        <time>2017-03-05T08:25:49Z</time>
      </trkpt>
      <trkpt lat="43.60969" lon="1.35254">
        <ele>162.12</ele>
        <time>2017-03-05T08:25:50Z</time>
      </trkpt>
      <trkpt lat="43.60974" lon="1.35249">
        <ele>162.12</ele>
        <time>2017-03-05T08:25:51Z</time>
      </trkpt>
      <trkpt lat="43.60978" lon="1.35243">
        <ele>162.12</ele>
        <time>2017-03-05T08:25:52Z</time>
      </trkpt>
      <trkpt lat="43.60982" lon="1.35237">
        <ele>162.12</ele>
        <time>2017-03-05T08:25:53Z</time>
      </trkpt>
      <trkpt lat="43.60986" lon="1.3523">
        <ele>162.12</ele>
        <time>2017-03-05T08:25:54Z</time>
      </trkpt>
      <trkpt lat="43.60989" lon="1.35224">
        <ele>162.12</ele>
        <time>2017-03-05T08:25:55Z</time>
      </trkpt>
      <trkpt lat="43.60992" lon="1.35216">
        <ele>162.12</ele>
        <time>2017-03-05T08:25:56Z</time>
      </trkpt>
      <trkpt lat="43.60994" lon="1.35208">
        <ele>162.12</ele>
        <time>2017-03-05T08:25:57Z</time>
      </trkpt>
      <trkpt lat="43.60994" lon="1.35199">
        <ele>162.12</ele>
        <time>2017-03-05T08:25:58Z</time>
      </trkpt>
      <trkpt lat="43.60994" lon="1.35191">
        <ele>162.12</ele>
        <time>2017-03-05T08:25:59Z</time>
      </trkpt>
      <trkpt lat="43.60992" lon="1.35182">
        <ele>162.12</ele>
        <time>2017-03-05T08:26:00Z</time>
      </trkpt>
      <trkpt lat="43.6099" lon="1.35174">
        <ele>162.12</ele>
        <time>2017-03-05T08:26:01Z</time>
      </trkpt>
      <trkpt lat="43.60988" lon="1.35157">
        <ele>162.12</ele>
        <time>2017-03-05T08:26:03Z</time>
      </trkpt>
      <trkpt lat="43.60989" lon="1.35149">
        <ele>162.12</ele>
        <time>2017-03-05T08:26:04Z</time>
      </trkpt>
      <trkpt lat="43.60995" lon="1.351">
        <ele>162.12</ele>
        <time>2017-03-05T08:26:10Z</time>
      </trkpt>
      <trkpt lat="43.60997" lon="1.35094">
        <ele>162.12</ele>
        <time>2017-03-05T08:26:11Z</time>
      </trkpt>
      <trkpt lat="43.61" lon="1.35083">
        <ele>162.12</ele>
        <time>2017-03-05T08:26:13Z</time>
      </trkpt>
      <trkpt lat="43.61" lon="1.35078">
        <ele>162.12</ele>
        <time>2017-03-05T08:26:14Z</time>
      </trkpt>
      <trkpt lat="43.60998" lon="1.34995">
        <ele>162.12</ele>
        <time>2017-03-05T08:26:26Z</time>
      </trkpt>
      <trkpt lat="43.61001" lon="1.34928">
        <ele>162.12</ele>
        <time>2017-03-05T08:26:36Z</time>
      </trkpt>
      <trkpt lat="43.61017" lon="1.34863">
        <ele>162.12</ele>
        <time>2017-03-05T08:26:48Z</time>
      </trkpt>
      <trkpt lat="43.61049" lon="1.34779">
        <ele>163.08</ele>
        <time>2017-03-05T08:27:04Z</time>
      </trkpt>
      <trkpt lat="43.61083" lon="1.347">
        <ele>164.04</ele>
        <time>2017-03-05T08:27:17Z</time>
      </trkpt>
      <trkpt lat="43.61086" lon="1.34694">
        <ele>164.04</ele>
        <time>2017-03-05T08:27:18Z</time>
      </trkpt>
      <trkpt lat="43.61089" lon="1.34688">
        <ele>164.04</ele>
        <time>2017-03-05T08:27:19Z</time>
      </trkpt>
      <trkpt lat="43.6112" lon="1.34626">
        <ele>164.04</ele>
        <time>2017-03-05T08:27:31Z</time>
      </trkpt>
      <trkpt lat="43.61125" lon="1.34614">
        <ele>164.04</ele>
        <time>2017-03-05T08:27:34Z</time>
      </trkpt>
      <trkpt lat="43.61127" lon="1.34609">
        <ele>164.04</ele>
        <time>2017-03-05T08:27:35Z</time>
      </trkpt>
      <trkpt lat="43.61128" lon="1.34603">
        <ele>164.04</ele>
        <time>2017-03-05T08:27:36Z</time>
      </trkpt>
      <trkpt lat="43.61131" lon="1.3459">
        <ele>164.04</ele>
        <time>2017-03-05T08:27:38Z</time>
      </trkpt>
      <trkpt lat="43.61133" lon="1.34584">
        <ele>164.04</ele>
        <time>2017-03-05T08:27:39Z</time>
      </trkpt>
      <trkpt lat="43.61136" lon="1.34578">
        <ele>164.04</ele>
        <time>2017-03-05T08:27:40Z</time>
      </trkpt>
      <trkpt lat="43.61142" lon="1.34565">
        <ele>164.04</ele>
        <time>2017-03-05T08:27:42Z</time>
      </trkpt>
      <trkpt lat="43.61187" lon="1.34468">
        <ele>165</ele>
        <time>2017-03-05T08:27:57Z</time>
      </trkpt>
      <trkpt lat="43.61234" lon="1.34369">
        <ele>166.93</ele>
        <time>2017-03-05T08:28:14Z</time>
      </trkpt>
      <trkpt lat="43.61282" lon="1.34285">
        <ele>168.85</ele>
        <time>2017-03-05T08:28:30Z</time>
      </trkpt>
      <trkpt lat="43.61348" lon="1.34205">
        <ele>170.77</ele>
        <time>2017-03-05T08:28:47Z</time>
      </trkpt>
      <trkpt lat="43.61352" lon="1.34199">
        <ele>170.77</ele>
        <time>2017-03-05T08:28:48Z</time>
      </trkpt>
      <trkpt lat="43.61355" lon="1.34193">
        <ele>170.77</ele>
        <time>2017-03-05T08:28:49Z</time>
      </trkpt>
      <trkpt lat="43.61387" lon="1.34122">
        <ele>170.77</ele>
        <time>2017-03-05T08:29:00Z</time>
      </trkpt>
      <trkpt lat="43.6139" lon="1.34115">
        <ele>170.77</ele>
        <time>2017-03-05T08:29:01Z</time>
      </trkpt>
      <trkpt lat="43.61393" lon="1.34109">
        <ele>170.77</ele>
        <time>2017-03-05T08:29:02Z</time>
      </trkpt>
      <trkpt lat="43.61399" lon="1.34097">
        <ele>172.21</ele>
        <time>2017-03-05T08:29:04Z</time>
      </trkpt>
      <trkpt lat="43.61403" lon="1.34093">
        <ele>172.21</ele>
        <time>2017-03-05T08:29:05Z</time>
      </trkpt>
      <trkpt lat="43.61407" lon="1.3409">
        <ele>172.21</ele>
        <time>2017-03-05T08:29:06Z</time>
      </trkpt>
      <trkpt lat="43.61412" lon="1.34088">
        <ele>172.21</ele>
        <time>2017-03-05T08:29:07Z</time>
      </trkpt>
      <trkpt lat="43.61417" lon="1.34086">
        <ele>172.21</ele>
        <time>2017-03-05T08:29:08Z</time>
      </trkpt>
      <trkpt lat="43.61422" lon="1.34085">
        <ele>172.21</ele>
        <time>2017-03-05T08:29:09Z</time>
      </trkpt>
      <trkpt lat="43.61427" lon="1.34083">
        <ele>172.21</ele>
        <time>2017-03-05T08:29:10Z</time>
      </trkpt>
      <trkpt lat="43.61437" lon="1.34079">
        <ele>173.17</ele>
        <time>2017-03-05T08:29:12Z</time>
      </trkpt>
      <trkpt lat="43.61442" lon="1.34076">
        <ele>173.17</ele>
        <time>2017-03-05T08:29:13Z</time>
      </trkpt>
      <trkpt lat="43.61446" lon="1.34073">
        <ele>173.17</ele>
        <time>2017-03-05T08:29:14Z</time>
      </trkpt>
      <trkpt lat="43.6145" lon="1.34068">
        <ele>173.17</ele>
        <time>2017-03-05T08:29:15Z</time>
      </trkpt>
      <trkpt lat="43.61453" lon="1.34063">
        <ele>173.17</ele>
        <time>2017-03-05T08:29:16Z</time>
      </trkpt>
      <trkpt lat="43.61455" lon="1.34058">
        <ele>173.17</ele>
        <time>2017-03-05T08:29:17Z</time>
      </trkpt>
      <trkpt lat="43.61457" lon="1.34052">
        <ele>174.14</ele>
        <time>2017-03-05T08:29:18Z</time>
      </trkpt>
      <trkpt lat="43.61458" lon="1.34046">
        <ele>174.14</ele>
        <time>2017-03-05T08:29:19Z</time>
      </trkpt>
      <trkpt lat="43.61459" lon="1.34039">
        <ele>174.14</ele>
        <time>2017-03-05T08:29:20Z</time>
      </trkpt>
      <trkpt lat="43.61459" lon="1.34032">
        <ele>174.14</ele>
        <time>2017-03-05T08:29:21Z</time>
      </trkpt>
      <trkpt lat="43.61458" lon="1.34025">
        <ele>174.14</ele>
        <time>2017-03-05T08:29:22Z</time>
      </trkpt>
      <trkpt lat="43.61456" lon="1.34019">
        <ele>174.14</ele>
        <time>2017-03-05T08:29:23Z</time>
      </trkpt>
      <trkpt lat="43.61454" lon="1.34013">
        <ele>174.14</ele>
        <time>2017-03-05T08:29:24Z</time>
      </trkpt>
      <trkpt lat="43.61451" lon="1.34007">
        <ele>174.14</ele>
        <time>2017-03-05T08:29:25Z</time>
      </trkpt>
      <trkpt lat="43.61444" lon="1.33995">
        <ele>174.14</ele>
        <time>2017-03-05T08:29:27Z</time>
      </trkpt>
      <trkpt lat="43.6144" lon="1.3399">
        <ele>174.14</ele>
        <time>2017-03-05T08:29:28Z</time>
      </trkpt>
      <trkpt lat="43.61436" lon="1.33985">
        <ele>174.14</ele>
        <time>2017-03-05T08:29:29Z</time>
      </trkpt>
      <trkpt lat="43.61422" lon="1.33973">
        <ele>174.14</ele>
        <time>2017-03-05T08:29:32Z</time>
      </trkpt>
      <trkpt lat="43.61376" lon="1.33928">
        <ele>174.14</ele>
        <time>2017-03-05T08:29:43Z</time>
      </trkpt>
      <trkpt lat="43.61373" lon="1.33923">
        <ele>174.14</ele>
        <time>2017-03-05T08:29:44Z</time>
      </trkpt>
      <trkpt lat="43.61351" lon="1.33883">
        <ele>175.1</ele>
        <time>2017-03-05T08:29:52Z</time>
      </trkpt>
      <trkpt lat="43.61347" lon="1.33878">
        <ele>175.1</ele>
        <time>2017-03-05T08:29:53Z</time>
      </trkpt>
      <trkpt lat="43.61317" lon="1.33842">
        <ele>177.02</ele>
        <time>2017-03-05T08:30:02Z</time>
      </trkpt>
      <trkpt lat="43.61298" lon="1.33819">
        <ele>177.02</ele>
        <time>2017-03-05T08:30:08Z</time>
      </trkpt>
      <trkpt lat="43.61256" lon="1.33777">
        <ele>179.9</ele>
        <time>2017-03-05T08:30:22Z</time>
      </trkpt>
      <trkpt lat="43.61221" lon="1.33748">
        <ele>182.79</ele>
        <time>2017-03-05T08:30:35Z</time>
      </trkpt>
      <trkpt lat="43.61183" lon="1.33713">
        <ele>186.15</ele>
        <time>2017-03-05T08:30:50Z</time>
      </trkpt>
      <trkpt lat="43.61173" lon="1.33681">
        <ele>187.11</ele>
        <time>2017-03-05T08:30:57Z</time>
      </trkpt>
      <trkpt lat="43.61172" lon="1.33668">
        <ele>188.08</ele>
        <time>2017-03-05T08:30:59Z</time>
      </trkpt>
      <trkpt lat="43.61165" lon="1.33624">
        <ele>188.08</ele>
        <time>2017-03-05T08:31:06Z</time>
      </trkpt>
      <trkpt lat="43.61167" lon="1.33616">
        <ele>188.08</ele>
        <time>2017-03-05T08:31:07Z</time>
      </trkpt>
      <trkpt lat="43.61207" lon="1.33493">
        <ele>188.08</ele>
        <time>2017-03-05T08:31:25Z</time>
      </trkpt>
      <trkpt lat="43.6121" lon="1.33487">
        <ele>188.08</ele>
        <time>2017-03-05T08:31:26Z</time>
      </trkpt>
      <trkpt lat="43.61212" lon="1.3348">
        <ele>188.08</ele>
        <time>2017-03-05T08:31:27Z</time>
      </trkpt>
      <trkpt lat="43.6125" lon="1.33349">
        <ele>188.08</ele>
        <time>2017-03-05T08:31:44Z</time>
      </trkpt>
      <trkpt lat="43.61275" lon="1.33243">
        <ele>188.08</ele>
        <time>2017-03-05T08:31:59Z</time>
      </trkpt>
      <trkpt lat="43.61287" lon="1.332">
        <ele>189.04</ele>
        <time>2017-03-05T08:32:05Z</time>
      </trkpt>
      <trkpt lat="43.6129" lon="1.33193">
        <ele>189.04</ele>
        <time>2017-03-05T08:32:06Z</time>
      </trkpt>
      <trkpt lat="43.61294" lon="1.33188">
        <ele>189.04</ele>
        <time>2017-03-05T08:32:07Z</time>
      </trkpt>
      <trkpt lat="43.61299" lon="1.33184">
        <ele>189.04</ele>
        <time>2017-03-05T08:32:08Z</time>
      </trkpt>
      <trkpt lat="43.61304" lon="1.3318">
        <ele>189.04</ele>
        <time>2017-03-05T08:32:09Z</time>
      </trkpt>
      <trkpt lat="43.61314" lon="1.33171">
        <ele>189.04</ele>
        <time>2017-03-05T08:32:11Z</time>
      </trkpt>
      <trkpt lat="43.61319" lon="1.33166">
        <ele>189.04</ele>
        <time>2017-03-05T08:32:12Z</time>
      </trkpt>
      <trkpt lat="43.61323" lon="1.3316">
        <ele>189.04</ele>
        <time>2017-03-05T08:32:13Z</time>
      </trkpt>
      <trkpt lat="43.61336" lon="1.33142">
        <ele>189.04</ele>
        <time>2017-03-05T08:32:16Z</time>
      </trkpt>
      <trkpt lat="43.61341" lon="1.33137">
        <ele>189.04</ele>
        <time>2017-03-05T08:32:17Z</time>
      </trkpt>
      <trkpt lat="43.61347" lon="1.33134">
        <ele>189.04</ele>
        <time>2017-03-05T08:32:18Z</time>
      </trkpt>
      <trkpt lat="43.61353" lon="1.33132">
        <ele>189.04</ele>
        <time>2017-03-05T08:32:19Z</time>
      </trkpt>
      <trkpt lat="43.61359" lon="1.33132">
        <ele>189.04</ele>
        <time>2017-03-05T08:32:20Z</time>
      </trkpt>
      <trkpt lat="43.61365" lon="1.33133">
        <ele>189.04</ele>
        <time>2017-03-05T08:32:21Z</time>
      </trkpt>
      <trkpt lat="43.61441" lon="1.33161">
        <ele>189.04</ele>
        <time>2017-03-05T08:32:34Z</time>
      </trkpt>
      <trkpt lat="43.61447" lon="1.33164">
        <ele>189.04</ele>
        <time>2017-03-05T08:32:35Z</time>
      </trkpt>
      <trkpt lat="43.61537" lon="1.33231">
        <ele>189.04</ele>
        <time>2017-03-05T08:32:52Z</time>
      </trkpt>
      <trkpt lat="43.6158" lon="1.3325">
        <ele>189.04</ele>
        <time>2017-03-05T08:32:59Z</time>
      </trkpt>
      <trkpt lat="43.61585" lon="1.33255">
        <ele>189.04</ele>
        <time>2017-03-05T08:33:00Z</time>
      </trkpt>
      <trkpt lat="43.6159" lon="1.3326">
        <ele>189.04</ele>
        <time>2017-03-05T08:33:01Z</time>
      </trkpt>
      <trkpt lat="43.61606" lon="1.33273">
        <ele>189.04</ele>
        <time>2017-03-05T08:33:04Z</time>
      </trkpt>
      <trkpt lat="43.61624" lon="1.33281">
        <ele>188.08</ele>
        <time>2017-03-05T08:33:07Z</time>
      </trkpt>
      <trkpt lat="43.6163" lon="1.33282">
        <ele>188.08</ele>
        <time>2017-03-05T08:33:08Z</time>
      </trkpt>
      <trkpt lat="43.61637" lon="1.33283">
        <ele>188.08</ele>
        <time>2017-03-05T08:33:09Z</time>
      </trkpt>
      <trkpt lat="43.61643" lon="1.33283">
        <ele>188.08</ele>
        <time>2017-03-05T08:33:10Z</time>
      </trkpt>
      <trkpt lat="43.61649" lon="1.33282">
        <ele>188.08</ele>
        <time>2017-03-05T08:33:11Z</time>
      </trkpt>
      <trkpt lat="43.61655" lon="1.33279">
        <ele>188.08</ele>
        <time>2017-03-05T08:33:12Z</time>
      </trkpt>
      <trkpt lat="43.6166" lon="1.33275">
        <ele>188.08</ele>
        <time>2017-03-05T08:33:13Z</time>
      </trkpt>
      <trkpt lat="43.61664" lon="1.3327">
        <ele>188.08</ele>
        <time>2017-03-05T08:33:14Z</time>
      </trkpt>
      <trkpt lat="43.61668" lon="1.33264">
        <ele>188.08</ele>
        <time>2017-03-05T08:33:15Z</time>
      </trkpt>
      <trkpt lat="43.6167" lon="1.33257">
        <ele>188.08</ele>
        <time>2017-03-05T08:33:16Z</time>
      </trkpt>
      <trkpt lat="43.61673" lon="1.33249">
        <ele>188.08</ele>
        <time>2017-03-05T08:33:17Z</time>
      </trkpt>
      <trkpt lat="43.61674" lon="1.33241">
        <ele>188.08</ele>
        <time>2017-03-05T08:33:18Z</time>
      </trkpt>
      <trkpt lat="43.61674" lon="1.33233">
        <ele>188.08</ele>
        <time>2017-03-05T08:33:19Z</time>
      </trkpt>
      <trkpt lat="43.61673" lon="1.33225">
        <ele>188.08</ele>
        <time>2017-03-05T08:33:20Z</time>
      </trkpt>
      <trkpt lat="43.61671" lon="1.33217">
        <ele>188.08</ele>
        <time>2017-03-05T08:33:21Z</time>
      </trkpt>
      <trkpt lat="43.61669" lon="1.33209">
        <ele>188.08</ele>
        <time>2017-03-05T08:33:22Z</time>
      </trkpt>
      <trkpt lat="43.61666" lon="1.33202">
        <ele>188.08</ele>
        <time>2017-03-05T08:33:23Z</time>
      </trkpt>
      <trkpt lat="43.61662" lon="1.33196">
        <ele>188.08</ele>
        <time>2017-03-05T08:33:24Z</time>
      </trkpt>
      <trkpt lat="43.61658" lon="1.3319">
        <ele>188.08</ele>
        <time>2017-03-05T08:33:25Z</time>
      </trkpt>
      <trkpt lat="43.61654" lon="1.33184">
        <ele>188.08</ele>
        <time>2017-03-05T08:33:26Z</time>
      </trkpt>
      <trkpt lat="43.61651" lon="1.33178">
        <ele>188.08</ele>
        <time>2017-03-05T08:33:27Z</time>
      </trkpt>
      <trkpt lat="43.61648" lon="1.33171">
        <ele>188.08</ele>
        <time>2017-03-05T08:33:28Z</time>
      </trkpt>
      <trkpt lat="43.61647" lon="1.33163">
        <ele>188.08</ele>
        <time>2017-03-05T08:33:29Z</time>
      </trkpt>
      <trkpt lat="43.61647" lon="1.33155">
        <ele>188.08</ele>
        <time>2017-03-05T08:33:30Z</time>
      </trkpt>
      <trkpt lat="43.61648" lon="1.33147">
        <ele>188.08</ele>
        <time>2017-03-05T08:33:31Z</time>
      </trkpt>
      <trkpt lat="43.61651" lon="1.3314">
        <ele>188.08</ele>
        <time>2017-03-05T08:33:32Z</time>
      </trkpt>
      <trkpt lat="43.61654" lon="1.33133">
        <ele>188.08</ele>
        <time>2017-03-05T08:33:33Z</time>
      </trkpt>
      <trkpt lat="43.6171" lon="1.33013">
        <ele>188.08</ele>
        <time>2017-03-05T08:33:50Z</time>
      </trkpt>
      <trkpt lat="43.61712" lon="1.33006">
        <ele>188.08</ele>
        <time>2017-03-05T08:33:51Z</time>
      </trkpt>
      <trkpt lat="43.61719" lon="1.32987">
        <ele>188.08</ele>
        <time>2017-03-05T08:33:54Z</time>
      </trkpt>
      <trkpt lat="43.61753" lon="1.32908">
        <ele>188.08</ele>
        <time>2017-03-05T08:34:06Z</time>
      </trkpt>
      <trkpt lat="43.61787" lon="1.32768">
        <ele>188.08</ele>
        <time>2017-03-05T08:34:24Z</time>
      </trkpt>
      <trkpt lat="43.61788" lon="1.32749">
        <ele>188.08</ele>
        <time>2017-03-05T08:34:27Z</time>
      </trkpt>
      <trkpt lat="43.61788" lon="1.32743">
        <ele>188.08</ele>
        <time>2017-03-05T08:34:28Z</time>
      </trkpt>
      <trkpt lat="43.61788" lon="1.32739">
        <ele>188.08</ele>
        <time>2017-03-05T08:34:29Z</time>
      </trkpt>
      <trkpt lat="43.61788" lon="1.32735">
        <ele>188.08</ele>
        <time>2017-03-05T08:34:30Z</time>
      </trkpt>
      <trkpt lat="43.61789" lon="1.3273">
        <ele>188.08</ele>
        <time>2017-03-05T08:34:31Z</time>
      </trkpt>
      <trkpt lat="43.6179" lon="1.32726">
        <ele>188.08</ele>
        <time>2017-03-05T08:34:32Z</time>
      </trkpt>
      <trkpt lat="43.61789" lon="1.32722">
        <ele>188.08</ele>
        <time>2017-03-05T08:34:33Z</time>
      </trkpt>
      <trkpt lat="43.61786" lon="1.32719">
        <ele>188.08</ele>
        <time>2017-03-05T08:34:34Z</time>
      </trkpt>
      <trkpt lat="43.61783" lon="1.32717">
        <ele>188.08</ele>
        <time>2017-03-05T08:34:35Z</time>
      </trkpt>
      <trkpt lat="43.61778" lon="1.32718">
        <ele>188.08</ele>
        <time>2017-03-05T08:34:36Z</time>
      </trkpt>
      <trkpt lat="43.61773" lon="1.32721">
        <ele>188.08</ele>
        <time>2017-03-05T08:34:37Z</time>
      </trkpt>
      <trkpt lat="43.61769" lon="1.32726">
        <ele>188.08</ele>
        <time>2017-03-05T08:34:38Z</time>
      </trkpt>
      <trkpt lat="43.61765" lon="1.32731">
        <ele>188.08</ele>
        <time>2017-03-05T08:34:39Z</time>
      </trkpt>
      <trkpt lat="43.61761" lon="1.32735">
        <ele>188.08</ele>
        <time>2017-03-05T08:34:40Z</time>
      </trkpt>
      <trkpt lat="43.61757" lon="1.32738">
        <ele>188.08</ele>
        <time>2017-03-05T08:34:41Z</time>
      </trkpt>
      <trkpt lat="43.61752" lon="1.3274">
        <ele>188.08</ele>
        <time>2017-03-05T08:34:42Z</time>
      </trkpt>
      <trkpt lat="43.61747" lon="1.32741">
        <ele>188.08</ele>
        <time>2017-03-05T08:34:43Z</time>
      </trkpt>
      <trkpt lat="43.61742" lon="1.32741">
        <ele>188.08</ele>
        <time>2017-03-05T08:34:44Z</time>
      </trkpt>
      <trkpt lat="43.61736" lon="1.32741">
        <ele>188.08</ele>
        <time>2017-03-05T08:34:45Z</time>
      </trkpt>
      <trkpt lat="43.61715" lon="1.32738">
        <ele>188.08</ele>
        <time>2017-03-05T08:34:49Z</time>
      </trkpt>
      <trkpt lat="43.61709" lon="1.32736">
        <ele>188.08</ele>
        <time>2017-03-05T08:34:50Z</time>
      </trkpt>
      <trkpt lat="43.61687" lon="1.32724">
        <ele>188.08</ele>
        <time>2017-03-05T08:34:54Z</time>
      </trkpt>
      <trkpt lat="43.61682" lon="1.32719">
        <ele>188.08</ele>
        <time>2017-03-05T08:34:55Z</time>
      </trkpt>
      <trkpt lat="43.61677" lon="1.32714">
        <ele>187.11</ele>
        <time>2017-03-05T08:34:56Z</time>
      </trkpt>
      <trkpt lat="43.61634" lon="1.32661">
        <ele>187.11</ele>
        <time>2017-03-05T08:35:06Z</time>
      </trkpt>
      <trkpt lat="43.61609" lon="1.32607">
        <ele>188.08</ele>
        <time>2017-03-05T08:35:17Z</time>
      </trkpt>
      <trkpt lat="43.61605" lon="1.32605">
        <ele>188.08</ele>
        <time>2017-03-05T08:35:18Z</time>
      </trkpt>
      <trkpt lat="43.6158" lon="1.32593">
        <ele>189.04</ele>
        <time>2017-03-05T08:35:23Z</time>
      </trkpt>
      <trkpt lat="43.61576" lon="1.32589">
        <ele>189.04</ele>
        <time>2017-03-05T08:35:24Z</time>
      </trkpt>
      <trkpt lat="43.61572" lon="1.32584">
        <ele>189.04</ele>
        <time>2017-03-05T08:35:25Z</time>
      </trkpt>
      <trkpt lat="43.61548" lon="1.32552">
        <ele>189.04</ele>
        <time>2017-03-05T08:35:31Z</time>
      </trkpt>
      <trkpt lat="43.61545" lon="1.32546">
        <ele>189.04</ele>
        <time>2017-03-05T08:35:32Z</time>
      </trkpt>
      <trkpt lat="43.61544" lon="1.32539">
        <ele>189.04</ele>
        <time>2017-03-05T08:35:33Z</time>
      </trkpt>
      <trkpt lat="43.61542" lon="1.32532">
        <ele>189.04</ele>
        <time>2017-03-05T08:35:34Z</time>
      </trkpt>
      <trkpt lat="43.6154" lon="1.32526">
        <ele>189.04</ele>
        <time>2017-03-05T08:35:35Z</time>
      </trkpt>
      <trkpt lat="43.61536" lon="1.32521">
        <ele>189.04</ele>
        <time>2017-03-05T08:35:36Z</time>
      </trkpt>
      <trkpt lat="43.61532" lon="1.32518">
        <ele>189.04</ele>
        <time>2017-03-05T08:35:37Z</time>
      </trkpt>
      <trkpt lat="43.61529" lon="1.32514">
        <ele>189.04</ele>
        <time>2017-03-05T08:35:38Z</time>
      </trkpt>
      <trkpt lat="43.6146" lon="1.32434">
        <ele>190</ele>
        <time>2017-03-05T08:35:55Z</time>
      </trkpt>
      <trkpt lat="43.61455" lon="1.3243">
        <ele>190</ele>
        <time>2017-03-05T08:35:56Z</time>
      </trkpt>
      <trkpt lat="43.61413" lon="1.32379">
        <ele>190</ele>
        <time>2017-03-05T08:36:06Z</time>
      </trkpt>
      <trkpt lat="43.61377" lon="1.32336">
        <ele>189.04</ele>
        <time>2017-03-05T08:36:15Z</time>
      </trkpt>
      <trkpt lat="43.61374" lon="1.3233">
        <ele>189.04</ele>
        <time>2017-03-05T08:36:16Z</time>
      </trkpt>
      <trkpt lat="43.61373" lon="1.32324">
        <ele>189.04</ele>
        <time>2017-03-05T08:36:17Z</time>
      </trkpt>
      <trkpt lat="43.61371" lon="1.32318">
        <ele>189.04</ele>
        <time>2017-03-05T08:36:18Z</time>
      </trkpt>
      <trkpt lat="43.61369" lon="1.32311">
        <ele>189.04</ele>
        <time>2017-03-05T08:36:19Z</time>
      </trkpt>
      <trkpt lat="43.61364" lon="1.32299">
        <ele>189.04</ele>
        <time>2017-03-05T08:36:21Z</time>
      </trkpt>
      <trkpt lat="43.61362" lon="1.32293">
        <ele>189.04</ele>
        <time>2017-03-05T08:36:22Z</time>
      </trkpt>
      <trkpt lat="43.61359" lon="1.32287">
        <ele>189.04</ele>
        <time>2017-03-05T08:36:23Z</time>
      </trkpt>
      <trkpt lat="43.61358" lon="1.32281">
        <ele>189.04</ele>
        <time>2017-03-05T08:36:24Z</time>
      </trkpt>
      <trkpt lat="43.61355" lon="1.32275">
        <ele>189.04</ele>
        <time>2017-03-05T08:36:25Z</time>
      </trkpt>
      <trkpt lat="43.61351" lon="1.32271">
        <ele>189.04</ele>
        <time>2017-03-05T08:36:26Z</time>
      </trkpt>
      <trkpt lat="43.61347" lon="1.32267">
        <ele>189.04</ele>
        <time>2017-03-05T08:36:27Z</time>
      </trkpt>
      <trkpt lat="43.61342" lon="1.32264">
        <ele>189.04</ele>
        <time>2017-03-05T08:36:28Z</time>
      </trkpt>
      <trkpt lat="43.61333" lon="1.32257">
        <ele>189.04</ele>
        <time>2017-03-05T08:36:30Z</time>
      </trkpt>
      <trkpt lat="43.61319" lon="1.32241">
        <ele>189.04</ele>
        <time>2017-03-05T08:36:34Z</time>
      </trkpt>
      <trkpt lat="43.61316" lon="1.32236">
        <ele>189.04</ele>
        <time>2017-03-05T08:36:35Z</time>
      </trkpt>
      <trkpt lat="43.61315" lon="1.3223">
        <ele>189.04</ele>
        <time>2017-03-05T08:36:36Z</time>
      </trkpt>
      <trkpt lat="43.613" lon="1.32139">
        <ele>188.08</ele>
        <time>2017-03-05T08:36:47Z</time>
      </trkpt>
      <trkpt lat="43.61296" lon="1.3213">
        <ele>188.08</ele>
        <time>2017-03-05T08:36:48Z</time>
      </trkpt>
      <trkpt lat="43.61266" lon="1.3206">
        <ele>185.19</ele>
        <time>2017-03-05T08:36:56Z</time>
      </trkpt>
      <trkpt lat="43.61264" lon="1.32053">
        <ele>184.23</ele>
        <time>2017-03-05T08:36:57Z</time>
      </trkpt>
      <trkpt lat="43.61261" lon="1.32046">
        <ele>184.23</ele>
        <time>2017-03-05T08:36:58Z</time>
      </trkpt>
      <trkpt lat="43.61242" lon="1.31929">
        <ele>185.19</ele>
        <time>2017-03-05T08:37:13Z</time>
      </trkpt>
      <trkpt lat="43.61238" lon="1.31866">
        <ele>185.19</ele>
        <time>2017-03-05T08:37:20Z</time>
      </trkpt>
      <trkpt lat="43.61236" lon="1.31857">
        <ele>185.19</ele>
        <time>2017-03-05T08:37:21Z</time>
      </trkpt>
      <trkpt lat="43.61233" lon="1.31842">
        <ele>184.23</ele>
        <time>2017-03-05T08:37:23Z</time>
      </trkpt>
      <trkpt lat="43.61234" lon="1.31835">
        <ele>184.23</ele>
        <time>2017-03-05T08:37:24Z</time>
      </trkpt>
      <trkpt lat="43.61236" lon="1.31828">
        <ele>184.23</ele>
        <time>2017-03-05T08:37:25Z</time>
      </trkpt>
      <trkpt lat="43.61239" lon="1.31821">
        <ele>184.23</ele>
        <time>2017-03-05T08:37:26Z</time>
      </trkpt>
      <trkpt lat="43.61241" lon="1.31814">
        <ele>184.23</ele>
        <time>2017-03-05T08:37:27Z</time>
      </trkpt>
      <trkpt lat="43.61241" lon="1.31808">
        <ele>182.79</ele>
        <time>2017-03-05T08:37:28Z</time>
      </trkpt>
      <trkpt lat="43.61242" lon="1.31802">
        <ele>182.79</ele>
        <time>2017-03-05T08:37:29Z</time>
      </trkpt>
      <trkpt lat="43.61243" lon="1.31798">
        <ele>182.79</ele>
        <time>2017-03-05T08:37:30Z</time>
      </trkpt>
      <trkpt lat="43.61245" lon="1.31794">
        <ele>182.79</ele>
        <time>2017-03-05T08:37:31Z</time>
      </trkpt>
      <trkpt lat="43.61247" lon="1.3179">
        <ele>182.79</ele>
        <time>2017-03-05T08:37:32Z</time>
      </trkpt>
      <trkpt lat="43.61249" lon="1.31785">
        <ele>182.79</ele>
        <time>2017-03-05T08:37:33Z</time>
      </trkpt>
      <trkpt lat="43.61251" lon="1.31779">
        <ele>182.79</ele>
        <time>2017-03-05T08:37:34Z</time>
      </trkpt>
      <trkpt lat="43.61252" lon="1.31772">
        <ele>182.79</ele>
        <time>2017-03-05T08:37:35Z</time>
      </trkpt>
      <trkpt lat="43.61252" lon="1.31765">
        <ele>182.79</ele>
        <time>2017-03-05T08:37:36Z</time>
      </trkpt>
      <trkpt lat="43.61261" lon="1.31675">
        <ele>182.79</ele>
        <time>2017-03-05T08:37:47Z</time>
      </trkpt>
      <trkpt lat="43.6126" lon="1.31609">
        <ele>182.79</ele>
        <time>2017-03-05T08:37:56Z</time>
      </trkpt>
      <trkpt lat="43.61259" lon="1.31603">
        <ele>182.79</ele>
        <time>2017-03-05T08:37:57Z</time>
      </trkpt>
      <trkpt lat="43.61258" lon="1.31596">
        <ele>182.79</ele>
        <time>2017-03-05T08:37:58Z</time>
      </trkpt>
      <trkpt lat="43.61246" lon="1.31537">
        <ele>186.15</ele>
        <time>2017-03-05T08:38:10Z</time>
      </trkpt>
      <trkpt lat="43.61245" lon="1.31531">
        <ele>186.15</ele>
        <time>2017-03-05T08:38:11Z</time>
      </trkpt>
      <trkpt lat="43.61239" lon="1.31494">
        <ele>187.11</ele>
        <time>2017-03-05T08:38:17Z</time>
      </trkpt>
      <trkpt lat="43.61231" lon="1.31402">
        <ele>189.04</ele>
        <time>2017-03-05T08:38:31Z</time>
      </trkpt>
      <trkpt lat="43.61233" lon="1.31396">
        <ele>189.04</ele>
        <time>2017-03-05T08:38:32Z</time>
      </trkpt>
      <trkpt lat="43.61234" lon="1.31391">
        <ele>189.04</ele>
        <time>2017-03-05T08:38:33Z</time>
      </trkpt>
      <trkpt lat="43.61235" lon="1.31386">
        <ele>189.04</ele>
        <time>2017-03-05T08:38:34Z</time>
      </trkpt>
      <trkpt lat="43.61236" lon="1.31381">
        <ele>189.04</ele>
        <time>2017-03-05T08:38:35Z</time>
      </trkpt>
      <trkpt lat="43.61236" lon="1.31376">
        <ele>189.04</ele>
        <time>2017-03-05T08:38:36Z</time>
      </trkpt>
      <trkpt lat="43.61236" lon="1.31371">
        <ele>189.04</ele>
        <time>2017-03-05T08:38:37Z</time>
      </trkpt>
      <trkpt lat="43.61235" lon="1.31365">
        <ele>189.04</ele>
        <time>2017-03-05T08:38:38Z</time>
      </trkpt>
      <trkpt lat="43.61235" lon="1.31359">
        <ele>189.04</ele>
        <time>2017-03-05T08:38:39Z</time>
      </trkpt>
      <trkpt lat="43.61236" lon="1.31347">
        <ele>189.04</ele>
        <time>2017-03-05T08:38:41Z</time>
      </trkpt>
      <trkpt lat="43.6124" lon="1.31287">
        <ele>189.04</ele>
        <time>2017-03-05T08:38:50Z</time>
      </trkpt>
      <trkpt lat="43.61245" lon="1.31187">
        <ele>187.11</ele>
        <time>2017-03-05T08:39:02Z</time>
      </trkpt>
      <trkpt lat="43.61246" lon="1.31081">
        <ele>185.19</ele>
        <time>2017-03-05T08:39:14Z</time>
      </trkpt>
      <trkpt lat="43.61247" lon="1.31073">
        <ele>185.19</ele>
        <time>2017-03-05T08:39:15Z</time>
      </trkpt>
      <trkpt lat="43.61249" lon="1.31064">
        <ele>185.19</ele>
        <time>2017-03-05T08:39:16Z</time>
      </trkpt>
      <trkpt lat="43.61251" lon="1.31057">
        <ele>185.19</ele>
        <time>2017-03-05T08:39:17Z</time>
      </trkpt>
      <trkpt lat="43.61254" lon="1.31049">
        <ele>185.19</ele>
        <time>2017-03-05T08:39:18Z</time>
      </trkpt>
      <trkpt lat="43.61279" lon="1.3098">
        <ele>185.19</ele>
        <time>2017-03-05T08:39:28Z</time>
      </trkpt>
      <trkpt lat="43.61281" lon="1.30974">
        <ele>185.19</ele>
        <time>2017-03-05T08:39:29Z</time>
      </trkpt>
      <trkpt lat="43.61283" lon="1.30967">
        <ele>185.19</ele>
        <time>2017-03-05T08:39:30Z</time>
      </trkpt>
      <trkpt lat="43.61286" lon="1.30961">
        <ele>185.19</ele>
        <time>2017-03-05T08:39:31Z</time>
      </trkpt>
      <trkpt lat="43.61288" lon="1.30955">
        <ele>185.19</ele>
        <time>2017-03-05T08:39:32Z</time>
      </trkpt>
      <trkpt lat="43.6129" lon="1.3095">
        <ele>185.19</ele>
        <time>2017-03-05T08:39:33Z</time>
      </trkpt>
      <trkpt lat="43.61292" lon="1.30944">
        <ele>185.19</ele>
        <time>2017-03-05T08:39:34Z</time>
      </trkpt>
      <trkpt lat="43.61295" lon="1.30939">
        <ele>185.19</ele>
        <time>2017-03-05T08:39:35Z</time>
      </trkpt>
      <trkpt lat="43.61299" lon="1.30935">
        <ele>186.15</ele>
        <time>2017-03-05T08:39:36Z</time>
      </trkpt>
      <trkpt lat="43.61302" lon="1.30932">
        <ele>186.15</ele>
        <time>2017-03-05T08:39:37Z</time>
      </trkpt>
      <trkpt lat="43.61306" lon="1.30931">
        <ele>186.15</ele>
        <time>2017-03-05T08:39:38Z</time>
      </trkpt>
      <trkpt lat="43.6131" lon="1.30932">
        <ele>186.15</ele>
        <time>2017-03-05T08:39:39Z</time>
      </trkpt>
      <trkpt lat="43.61314" lon="1.30934">
        <ele>186.15</ele>
        <time>2017-03-05T08:39:40Z</time>
      </trkpt>
      <trkpt lat="43.61317" lon="1.30937">
        <ele>187.11</ele>
        <time>2017-03-05T08:39:41Z</time>
      </trkpt>
      <trkpt lat="43.61326" lon="1.30941">
        <ele>187.11</ele>
        <time>2017-03-05T08:39:43Z</time>
      </trkpt>
      <trkpt lat="43.61334" lon="1.30945">
        <ele>187.11</ele>
        <time>2017-03-05T08:39:45Z</time>
      </trkpt>
      <trkpt lat="43.61397" lon="1.30979">
        <ele>188.08</ele>
        <time>2017-03-05T08:39:58Z</time>
      </trkpt>
      <trkpt lat="43.61402" lon="1.30982">
        <ele>188.08</ele>
        <time>2017-03-05T08:39:59Z</time>
      </trkpt>
      <trkpt lat="43.6142" lon="1.30995">
        <ele>189.04</ele>
        <time>2017-03-05T08:40:03Z</time>
      </trkpt>
      <trkpt lat="43.61424" lon="1.30999">
        <ele>189.04</ele>
        <time>2017-03-05T08:40:04Z</time>
      </trkpt>
      <trkpt lat="43.61434" lon="1.31023">
        <ele>189.04</ele>
        <time>2017-03-05T08:40:09Z</time>
      </trkpt>
      <trkpt lat="43.61434" lon="1.31028">
        <ele>189.04</ele>
        <time>2017-03-05T08:40:10Z</time>
      </trkpt>
      <trkpt lat="43.61432" lon="1.31033">
        <ele>189.04</ele>
        <time>2017-03-05T08:40:11Z</time>
      </trkpt>
      <trkpt lat="43.61422" lon="1.31074">
        <ele>189.04</ele>
        <time>2017-03-05T08:40:17Z</time>
      </trkpt>
      <trkpt lat="43.61412" lon="1.31147">
        <ele>187.11</ele>
        <time>2017-03-05T08:40:26Z</time>
      </trkpt>
      <trkpt lat="43.61409" lon="1.31153">
        <ele>187.11</ele>
        <time>2017-03-05T08:40:27Z</time>
      </trkpt>
      <trkpt lat="43.61404" lon="1.31164">
        <ele>187.11</ele>
        <time>2017-03-05T08:40:29Z</time>
      </trkpt>
      <trkpt lat="43.61404" lon="1.3117">
        <ele>186.15</ele>
        <time>2017-03-05T08:40:30Z</time>
      </trkpt>
      <trkpt lat="43.61406" lon="1.31175">
        <ele>186.15</ele>
        <time>2017-03-05T08:40:31Z</time>
      </trkpt>
      <trkpt lat="43.61409" lon="1.31179">
        <ele>186.15</ele>
        <time>2017-03-05T08:40:32Z</time>
      </trkpt>
      <trkpt lat="43.61412" lon="1.3118">
        <ele>186.15</ele>
        <time>2017-03-05T08:40:33Z</time>
      </trkpt>
      <trkpt lat="43.61416" lon="1.31179">
        <ele>186.15</ele>
        <time>2017-03-05T08:40:34Z</time>
      </trkpt>
      <trkpt lat="43.6142" lon="1.31177">
        <ele>185.19</ele>
        <time>2017-03-05T08:40:35Z</time>
      </trkpt>
      <trkpt lat="43.61424" lon="1.31174">
        <ele>185.19</ele>
        <time>2017-03-05T08:40:36Z</time>
      </trkpt>
      <trkpt lat="43.61428" lon="1.31173">
        <ele>185.19</ele>
        <time>2017-03-05T08:40:37Z</time>
      </trkpt>
      <trkpt lat="43.61432" lon="1.31173">
        <ele>185.19</ele>
        <time>2017-03-05T08:40:38Z</time>
      </trkpt>
      <trkpt lat="43.61436" lon="1.31174">
        <ele>185.19</ele>
        <time>2017-03-05T08:40:39Z</time>
      </trkpt>
      <trkpt lat="43.6144" lon="1.31176">
        <ele>185.19</ele>
        <time>2017-03-05T08:40:40Z</time>
      </trkpt>
      <trkpt lat="43.61446" lon="1.31177">
        <ele>185.19</ele>
        <time>2017-03-05T08:40:41Z</time>
      </trkpt>
      <trkpt lat="43.61451" lon="1.31178">
        <ele>185.19</ele>
        <time>2017-03-05T08:40:42Z</time>
      </trkpt>
      <trkpt lat="43.61466" lon="1.31183">
        <ele>185.19</ele>
        <time>2017-03-05T08:40:45Z</time>
      </trkpt>
      <trkpt lat="43.61469" lon="1.31188">
        <ele>185.19</ele>
        <time>2017-03-05T08:40:46Z</time>
      </trkpt>
      <trkpt lat="43.61472" lon="1.31194">
        <ele>185.19</ele>
        <time>2017-03-05T08:40:47Z</time>
      </trkpt>
      <trkpt lat="43.61492" lon="1.31256">
        <ele>182.79</ele>
        <time>2017-03-05T08:40:55Z</time>
      </trkpt>
      <trkpt lat="43.61496" lon="1.31261">
        <ele>182.79</ele>
        <time>2017-03-05T08:40:56Z</time>
      </trkpt>
      <trkpt lat="43.615" lon="1.31266">
        <ele>182.79</ele>
        <time>2017-03-05T08:40:57Z</time>
      </trkpt>
      <trkpt lat="43.61509" lon="1.31272">
        <ele>181.83</ele>
        <time>2017-03-05T08:40:59Z</time>
      </trkpt>
      <trkpt lat="43.61514" lon="1.31274">
        <ele>181.83</ele>
        <time>2017-03-05T08:41:00Z</time>
      </trkpt>
      <trkpt lat="43.61518" lon="1.31276">
        <ele>181.83</ele>
        <time>2017-03-05T08:41:01Z</time>
      </trkpt>
      <trkpt lat="43.61522" lon="1.31276">
        <ele>181.83</ele>
        <time>2017-03-05T08:41:02Z</time>
      </trkpt>
      <trkpt lat="43.61525" lon="1.31276">
        <ele>181.83</ele>
        <time>2017-03-05T08:41:03Z</time>
      </trkpt>
      <trkpt lat="43.61548" lon="1.31286">
        <ele>181.83</ele>
        <time>2017-03-05T08:41:11Z</time>
      </trkpt>
      <trkpt lat="43.6158" lon="1.31309">
        <ele>180.87</ele>
        <time>2017-03-05T08:41:21Z</time>
      </trkpt>
      <trkpt lat="43.61582" lon="1.31313">
        <ele>180.87</ele>
        <time>2017-03-05T08:41:22Z</time>
      </trkpt>
      <trkpt lat="43.61583" lon="1.31318">
        <ele>180.87</ele>
        <time>2017-03-05T08:41:23Z</time>
      </trkpt>
      <trkpt lat="43.61582" lon="1.31325">
        <ele>180.87</ele>
        <time>2017-03-05T08:41:24Z</time>
      </trkpt>
      <trkpt lat="43.61582" lon="1.31332">
        <ele>180.87</ele>
        <time>2017-03-05T08:41:25Z</time>
      </trkpt>
      <trkpt lat="43.61582" lon="1.31339">
        <ele>180.87</ele>
        <time>2017-03-05T08:41:26Z</time>
      </trkpt>
      <trkpt lat="43.61583" lon="1.31346">
        <ele>180.87</ele>
        <time>2017-03-05T08:41:27Z</time>
      </trkpt>
      <trkpt lat="43.61586" lon="1.31354">
        <ele>180.87</ele>
        <time>2017-03-05T08:41:28Z</time>
      </trkpt>
      <trkpt lat="43.61589" lon="1.31361">
        <ele>180.87</ele>
        <time>2017-03-05T08:41:29Z</time>
      </trkpt>
      <trkpt lat="43.61593" lon="1.31374">
        <ele>180.87</ele>
        <time>2017-03-05T08:41:31Z</time>
      </trkpt>
      <trkpt lat="43.61593" lon="1.31381">
        <ele>180.87</ele>
        <time>2017-03-05T08:41:32Z</time>
      </trkpt>
      <trkpt lat="43.61593" lon="1.31394">
        <ele>180.87</ele>
        <time>2017-03-05T08:41:34Z</time>
      </trkpt>
      <trkpt lat="43.61593" lon="1.314">
        <ele>180.87</ele>
        <time>2017-03-05T08:41:35Z</time>
      </trkpt>
      <trkpt lat="43.61592" lon="1.31406">
        <ele>180.87</ele>
        <time>2017-03-05T08:41:36Z</time>
      </trkpt>
      <trkpt lat="43.6159" lon="1.31414">
        <ele>180.87</ele>
        <time>2017-03-05T08:41:37Z</time>
      </trkpt>
      <trkpt lat="43.61588" lon="1.3142">
        <ele>180.87</ele>
        <time>2017-03-05T08:41:38Z</time>
      </trkpt>
      <trkpt lat="43.61584" lon="1.31435">
        <ele>180.87</ele>
        <time>2017-03-05T08:41:40Z</time>
      </trkpt>
      <trkpt lat="43.61581" lon="1.31443">
        <ele>180.87</ele>
        <time>2017-03-05T08:41:41Z</time>
      </trkpt>
      <trkpt lat="43.61577" lon="1.3145">
        <ele>180.87</ele>
        <time>2017-03-05T08:41:42Z</time>
      </trkpt>
      <trkpt lat="43.61572" lon="1.31456">
        <ele>180.87</ele>
        <time>2017-03-05T08:41:43Z</time>
      </trkpt>
      <trkpt lat="43.61567" lon="1.31462">
        <ele>180.87</ele>
        <time>2017-03-05T08:41:44Z</time>
      </trkpt>
      <trkpt lat="43.61562" lon="1.31468">
        <ele>180.87</ele>
        <time>2017-03-05T08:41:45Z</time>
      </trkpt>
      <trkpt lat="43.61506" lon="1.31532">
        <ele>178.94</ele>
        <time>2017-03-05T08:41:58Z</time>
      </trkpt>
      <trkpt lat="43.61501" lon="1.31536">
        <ele>178.94</ele>
        <time>2017-03-05T08:41:59Z</time>
      </trkpt>
      <trkpt lat="43.61497" lon="1.3154">
        <ele>178.94</ele>
        <time>2017-03-05T08:42:00Z</time>
      </trkpt>
      <trkpt lat="43.61456" lon="1.31571">
        <ele>178.94</ele>
        <time>2017-03-05T08:42:08Z</time>
      </trkpt>
      <trkpt lat="43.61452" lon="1.31577">
        <ele>178.94</ele>
        <time>2017-03-05T08:42:09Z</time>
      </trkpt>
      <trkpt lat="43.61449" lon="1.31583">
        <ele>178.94</ele>
        <time>2017-03-05T08:42:10Z</time>
      </trkpt>
      <trkpt lat="43.61443" lon="1.31595">
        <ele>178.94</ele>
        <time>2017-03-05T08:42:12Z</time>
      </trkpt>
      <trkpt lat="43.61439" lon="1.31599">
        <ele>178.94</ele>
        <time>2017-03-05T08:42:13Z</time>
      </trkpt>
      <trkpt lat="43.61434" lon="1.316">
        <ele>178.94</ele>
        <time>2017-03-05T08:42:14Z</time>
      </trkpt>
      <trkpt lat="43.6143" lon="1.31599">
        <ele>178.94</ele>
        <time>2017-03-05T08:42:15Z</time>
      </trkpt>
      <trkpt lat="43.61425" lon="1.31597">
        <ele>178.94</ele>
        <time>2017-03-05T08:42:16Z</time>
      </trkpt>
      <trkpt lat="43.61421" lon="1.31594">
        <ele>178.94</ele>
        <time>2017-03-05T08:42:17Z</time>
      </trkpt>
      <trkpt lat="43.61417" lon="1.31592">
        <ele>178.94</ele>
        <time>2017-03-05T08:42:18Z</time>
      </trkpt>
      <trkpt lat="43.61411" lon="1.31591">
        <ele>178.94</ele>
        <time>2017-03-05T08:42:19Z</time>
      </trkpt>
      <trkpt lat="43.61406" lon="1.31591">
        <ele>178.94</ele>
        <time>2017-03-05T08:42:20Z</time>
      </trkpt>
      <trkpt lat="43.614" lon="1.31591">
        <ele>178.94</ele>
        <time>2017-03-05T08:42:21Z</time>
      </trkpt>
      <trkpt lat="43.61395" lon="1.31591">
        <ele>178.94</ele>
        <time>2017-03-05T08:42:22Z</time>
      </trkpt>
      <trkpt lat="43.61355" lon="1.31603">
        <ele>179.9</ele>
        <time>2017-03-05T08:42:30Z</time>
      </trkpt>
      <trkpt lat="43.61295" lon="1.31639">
        <ele>180.87</ele>
        <time>2017-03-05T08:42:44Z</time>
      </trkpt>
      <trkpt lat="43.61293" lon="1.31636">
        <ele>181.83</ele>
        <time>2017-03-05T08:42:45Z</time>
      </trkpt>
      <trkpt lat="43.61291" lon="1.31633">
        <ele>181.83</ele>
        <time>2017-03-05T08:42:46Z</time>
      </trkpt>
      <trkpt lat="43.61291" lon="1.31628">
        <ele>181.83</ele>
        <time>2017-03-05T08:42:47Z</time>
      </trkpt>
      <trkpt lat="43.61281" lon="1.31605">
        <ele>181.83</ele>
        <time>2017-03-05T08:42:53Z</time>
      </trkpt>
      <trkpt lat="43.61277" lon="1.31605">
        <ele>182.79</ele>
        <time>2017-03-05T08:42:54Z</time>
      </trkpt>
      <trkpt lat="43.61273" lon="1.31606">
        <ele>182.79</ele>
        <time>2017-03-05T08:42:55Z</time>
      </trkpt>
      <trkpt lat="43.61269" lon="1.31607">
        <ele>182.79</ele>
        <time>2017-03-05T08:42:56Z</time>
      </trkpt>
      <trkpt lat="43.61266" lon="1.31608">
        <ele>182.79</ele>
        <time>2017-03-05T08:42:57Z</time>
      </trkpt>
      <trkpt lat="43.61253" lon="1.31613">
        <ele>185.19</ele>
        <time>2017-03-05T08:43:08Z</time>
      </trkpt>
      <trkpt lat="43.61248" lon="1.31622">
        <ele>185.19</ele>
        <time>2017-03-05T08:43:12Z</time>
      </trkpt>
      <trkpt lat="43.61248" lon="1.31627">
        <ele>185.19</ele>
        <time>2017-03-05T08:43:13Z</time>
      </trkpt>
      <trkpt lat="43.61248" lon="1.31633">
        <ele>185.19</ele>
        <time>2017-03-05T08:43:14Z</time>
      </trkpt>
      <trkpt lat="43.6124" lon="1.31748">
        <ele>184.23</ele>
        <time>2017-03-05T08:43:28Z</time>
      </trkpt>
      <trkpt lat="43.61234" lon="1.31772">
        <ele>182.79</ele>
        <time>2017-03-05T08:43:31Z</time>
      </trkpt>
      <trkpt lat="43.61231" lon="1.31779">
        <ele>182.79</ele>
        <time>2017-03-05T08:43:32Z</time>
      </trkpt>
      <trkpt lat="43.61217" lon="1.31816">
        <ele>182.79</ele>
        <time>2017-03-05T08:43:37Z</time>
      </trkpt>
      <trkpt lat="43.61217" lon="1.31823">
        <ele>182.79</ele>
        <time>2017-03-05T08:43:38Z</time>
      </trkpt>
      <trkpt lat="43.61218" lon="1.31831">
        <ele>182.79</ele>
        <time>2017-03-05T08:43:39Z</time>
      </trkpt>
      <trkpt lat="43.6122" lon="1.31839">
        <ele>182.79</ele>
        <time>2017-03-05T08:43:40Z</time>
      </trkpt>
      <trkpt lat="43.61221" lon="1.31847">
        <ele>182.79</ele>
        <time>2017-03-05T08:43:41Z</time>
      </trkpt>
      <trkpt lat="43.61223" lon="1.31855">
        <ele>182.79</ele>
        <time>2017-03-05T08:43:42Z</time>
      </trkpt>
      <trkpt lat="43.61225" lon="1.31862">
        <ele>182.79</ele>
        <time>2017-03-05T08:43:43Z</time>
      </trkpt>
      <trkpt lat="43.61229" lon="1.31887">
        <ele>182.79</ele>
        <time>2017-03-05T08:43:46Z</time>
      </trkpt>
      <trkpt lat="43.61229" lon="1.31895">
        <ele>182.79</ele>
        <time>2017-03-05T08:43:47Z</time>
      </trkpt>
      <trkpt lat="43.61243" lon="1.32027">
        <ele>184.23</ele>
        <time>2017-03-05T08:44:05Z</time>
      </trkpt>
      <trkpt lat="43.61282" lon="1.32121">
        <ele>185.19</ele>
        <time>2017-03-05T08:44:17Z</time>
      </trkpt>
      <trkpt lat="43.61288" lon="1.32137">
        <ele>184.23</ele>
        <time>2017-03-05T08:44:19Z</time>
      </trkpt>
      <trkpt lat="43.61301" lon="1.32199">
        <ele>184.23</ele>
        <time>2017-03-05T08:44:30Z</time>
      </trkpt>
      <trkpt lat="43.61303" lon="1.32216">
        <ele>185.19</ele>
        <time>2017-03-05T08:44:33Z</time>
      </trkpt>
      <trkpt lat="43.61304" lon="1.32222">
        <ele>186.15</ele>
        <time>2017-03-05T08:44:34Z</time>
      </trkpt>
      <trkpt lat="43.61311" lon="1.32259">
        <ele>187.11</ele>
        <time>2017-03-05T08:44:41Z</time>
      </trkpt>
      <trkpt lat="43.61313" lon="1.32261">
        <ele>188.08</ele>
        <time>2017-03-05T08:44:42Z</time>
      </trkpt>
      <trkpt lat="43.61315" lon="1.32263">
        <ele>188.08</ele>
        <time>2017-03-05T08:44:43Z</time>
      </trkpt>
      <trkpt lat="43.61316" lon="1.32264">
        <ele>188.08</ele>
        <time>2017-03-05T08:44:44Z</time>
      </trkpt>
      <trkpt lat="43.61317" lon="1.32266">
        <ele>188.08</ele>
        <time>2017-03-05T08:44:45Z</time>
      </trkpt>
      <trkpt lat="43.61324" lon="1.32294">
        <ele>189.04</ele>
        <time>2017-03-05T08:44:58Z</time>
      </trkpt>
      <trkpt lat="43.61331" lon="1.32299">
        <ele>189.04</ele>
        <time>2017-03-05T08:45:00Z</time>
      </trkpt>
      <trkpt lat="43.61335" lon="1.32301">
        <ele>189.04</ele>
        <time>2017-03-05T08:45:01Z</time>
      </trkpt>
      <trkpt lat="43.61339" lon="1.32302">
        <ele>189.04</ele>
        <time>2017-03-05T08:45:02Z</time>
      </trkpt>
      <trkpt lat="43.6135" lon="1.3231">
        <ele>189.04</ele>
        <time>2017-03-05T08:45:05Z</time>
      </trkpt>
      <trkpt lat="43.61353" lon="1.32314">
        <ele>189.04</ele>
        <time>2017-03-05T08:45:06Z</time>
      </trkpt>
      <trkpt lat="43.61363" lon="1.32343">
        <ele>189.04</ele>
        <time>2017-03-05T08:45:12Z</time>
      </trkpt>
      <trkpt lat="43.61365" lon="1.32345">
        <ele>189.04</ele>
        <time>2017-03-05T08:45:13Z</time>
      </trkpt>
      <trkpt lat="43.61367" lon="1.32347">
        <ele>189.04</ele>
        <time>2017-03-05T08:45:14Z</time>
      </trkpt>
      <trkpt lat="43.61369" lon="1.3235">
        <ele>189.04</ele>
        <time>2017-03-05T08:45:15Z</time>
      </trkpt>
      <trkpt lat="43.61371" lon="1.32354">
        <ele>189.04</ele>
        <time>2017-03-05T08:45:16Z</time>
      </trkpt>
      <trkpt lat="43.61373" lon="1.32359">
        <ele>189.04</ele>
        <time>2017-03-05T08:45:17Z</time>
      </trkpt>
      <trkpt lat="43.61376" lon="1.32363">
        <ele>189.04</ele>
        <time>2017-03-05T08:45:18Z</time>
      </trkpt>
      <trkpt lat="43.6138" lon="1.32368">
        <ele>189.04</ele>
        <time>2017-03-05T08:45:19Z</time>
      </trkpt>
      <trkpt lat="43.61455" lon="1.32456">
        <ele>189.04</ele>
        <time>2017-03-05T08:45:37Z</time>
      </trkpt>
      <trkpt lat="43.61547" lon="1.32564">
        <ele>189.04</ele>
        <time>2017-03-05T08:45:56Z</time>
      </trkpt>
      <trkpt lat="43.6158" lon="1.32603">
        <ele>188.08</ele>
        <time>2017-03-05T08:46:03Z</time>
      </trkpt>
      <trkpt lat="43.6159" lon="1.32613">
        <ele>188.08</ele>
        <time>2017-03-05T08:46:05Z</time>
      </trkpt>
      <trkpt lat="43.61593" lon="1.32619">
        <ele>188.08</ele>
        <time>2017-03-05T08:46:06Z</time>
      </trkpt>
      <trkpt lat="43.61597" lon="1.32625">
        <ele>188.08</ele>
        <time>2017-03-05T08:46:07Z</time>
      </trkpt>
      <trkpt lat="43.61601" lon="1.32631">
        <ele>188.08</ele>
        <time>2017-03-05T08:46:08Z</time>
      </trkpt>
      <trkpt lat="43.61606" lon="1.32635">
        <ele>188.08</ele>
        <time>2017-03-05T08:46:09Z</time>
      </trkpt>
      <trkpt lat="43.61611" lon="1.32638">
        <ele>188.08</ele>
        <time>2017-03-05T08:46:10Z</time>
      </trkpt>
      <trkpt lat="43.61617" lon="1.32642">
        <ele>188.08</ele>
        <time>2017-03-05T08:46:11Z</time>
      </trkpt>
      <trkpt lat="43.61622" lon="1.32647">
        <ele>188.08</ele>
        <time>2017-03-05T08:46:12Z</time>
      </trkpt>
      <trkpt lat="43.61626" lon="1.32653">
        <ele>188.08</ele>
        <time>2017-03-05T08:46:13Z</time>
      </trkpt>
      <trkpt lat="43.61643" lon="1.32679">
        <ele>188.08</ele>
        <time>2017-03-05T08:46:17Z</time>
      </trkpt>
      <trkpt lat="43.617" lon="1.32735">
        <ele>187.11</ele>
        <time>2017-03-05T08:46:28Z</time>
      </trkpt>
      <trkpt lat="43.61705" lon="1.32738">
        <ele>187.11</ele>
        <time>2017-03-05T08:46:29Z</time>
      </trkpt>
      <trkpt lat="43.61711" lon="1.3274">
        <ele>187.11</ele>
        <time>2017-03-05T08:46:30Z</time>
      </trkpt>
      <trkpt lat="43.61716" lon="1.32742">
        <ele>187.11</ele>
        <time>2017-03-05T08:46:31Z</time>
      </trkpt>
      <trkpt lat="43.61722" lon="1.32744">
        <ele>187.11</ele>
        <time>2017-03-05T08:46:32Z</time>
      </trkpt>
      <trkpt lat="43.61727" lon="1.32745">
        <ele>187.11</ele>
        <time>2017-03-05T08:46:33Z</time>
      </trkpt>
      <trkpt lat="43.61733" lon="1.32744">
        <ele>187.11</ele>
        <time>2017-03-05T08:46:34Z</time>
      </trkpt>
      <trkpt lat="43.61738" lon="1.32745">
        <ele>187.11</ele>
        <time>2017-03-05T08:46:35Z</time>
      </trkpt>
      <trkpt lat="43.61755" lon="1.32741">
        <ele>187.11</ele>
        <time>2017-03-05T08:46:38Z</time>
      </trkpt>
      <trkpt lat="43.61775" lon="1.32747">
        <ele>187.11</ele>
        <time>2017-03-05T08:46:42Z</time>
      </trkpt>
      <trkpt lat="43.61777" lon="1.32753">
        <ele>187.11</ele>
        <time>2017-03-05T08:46:43Z</time>
      </trkpt>
      <trkpt lat="43.61776" lon="1.32798">
        <ele>187.11</ele>
        <time>2017-03-05T08:46:49Z</time>
      </trkpt>
      <trkpt lat="43.61737" lon="1.32919">
        <ele>187.11</ele>
        <time>2017-03-05T08:47:05Z</time>
      </trkpt>
      <trkpt lat="43.61704" lon="1.32999">
        <ele>187.11</ele>
        <time>2017-03-05T08:47:16Z</time>
      </trkpt>
      <trkpt lat="43.61666" lon="1.33084">
        <ele>188.08</ele>
        <time>2017-03-05T08:47:28Z</time>
      </trkpt>
      <trkpt lat="43.61624" lon="1.33182">
        <ele>188.08</ele>
        <time>2017-03-05T08:47:42Z</time>
      </trkpt>
      <trkpt lat="43.6162" lon="1.33187">
        <ele>188.08</ele>
        <time>2017-03-05T08:47:43Z</time>
      </trkpt>
      <trkpt lat="43.61615" lon="1.33191">
        <ele>188.08</ele>
        <time>2017-03-05T08:47:44Z</time>
      </trkpt>
      <trkpt lat="43.61599" lon="1.33202">
        <ele>188.08</ele>
        <time>2017-03-05T08:47:47Z</time>
      </trkpt>
      <trkpt lat="43.61594" lon="1.33207">
        <ele>188.08</ele>
        <time>2017-03-05T08:47:48Z</time>
      </trkpt>
      <trkpt lat="43.6158" lon="1.33221">
        <ele>188.08</ele>
        <time>2017-03-05T08:47:51Z</time>
      </trkpt>
      <trkpt lat="43.61575" lon="1.33224">
        <ele>188.08</ele>
        <time>2017-03-05T08:47:52Z</time>
      </trkpt>
      <trkpt lat="43.6157" lon="1.33226">
        <ele>188.08</ele>
        <time>2017-03-05T08:47:53Z</time>
      </trkpt>
      <trkpt lat="43.61564" lon="1.33226">
        <ele>188.08</ele>
        <time>2017-03-05T08:47:54Z</time>
      </trkpt>
      <trkpt lat="43.61559" lon="1.33225">
        <ele>188.08</ele>
        <time>2017-03-05T08:47:55Z</time>
      </trkpt>
      <trkpt lat="43.61553" lon="1.33222">
        <ele>188.08</ele>
        <time>2017-03-05T08:47:56Z</time>
      </trkpt>
      <trkpt lat="43.61476" lon="1.33168">
        <ele>188.08</ele>
        <time>2017-03-05T08:48:11Z</time>
      </trkpt>
      <trkpt lat="43.61388" lon="1.33121">
        <ele>189.04</ele>
        <time>2017-03-05T08:48:27Z</time>
      </trkpt>
      <trkpt lat="43.61352" lon="1.33116">
        <ele>189.04</ele>
        <time>2017-03-05T08:48:33Z</time>
      </trkpt>
      <trkpt lat="43.61346" lon="1.33112">
        <ele>189.04</ele>
        <time>2017-03-05T08:48:34Z</time>
      </trkpt>
      <trkpt lat="43.61341" lon="1.33108">
        <ele>189.04</ele>
        <time>2017-03-05T08:48:35Z</time>
      </trkpt>
      <trkpt lat="43.61337" lon="1.33102">
        <ele>188.08</ele>
        <time>2017-03-05T08:48:36Z</time>
      </trkpt>
      <trkpt lat="43.61333" lon="1.33096">
        <ele>188.08</ele>
        <time>2017-03-05T08:48:37Z</time>
      </trkpt>
      <trkpt lat="43.6133" lon="1.3309">
        <ele>188.08</ele>
        <time>2017-03-05T08:48:38Z</time>
      </trkpt>
      <trkpt lat="43.61322" lon="1.33078">
        <ele>188.08</ele>
        <time>2017-03-05T08:48:40Z</time>
      </trkpt>
      <trkpt lat="43.61317" lon="1.33073">
        <ele>188.08</ele>
        <time>2017-03-05T08:48:41Z</time>
      </trkpt>
      <trkpt lat="43.61312" lon="1.33069">
        <ele>188.08</ele>
        <time>2017-03-05T08:48:42Z</time>
      </trkpt>
      <trkpt lat="43.61306" lon="1.33066">
        <ele>188.08</ele>
        <time>2017-03-05T08:48:43Z</time>
      </trkpt>
      <trkpt lat="43.613" lon="1.33065">
        <ele>188.08</ele>
        <time>2017-03-05T08:48:44Z</time>
      </trkpt>
      <trkpt lat="43.61295" lon="1.33066">
        <ele>188.08</ele>
        <time>2017-03-05T08:48:45Z</time>
      </trkpt>
      <trkpt lat="43.61289" lon="1.33067">
        <ele>188.08</ele>
        <time>2017-03-05T08:48:46Z</time>
      </trkpt>
      <trkpt lat="43.61283" lon="1.3307">
        <ele>188.08</ele>
        <time>2017-03-05T08:48:47Z</time>
      </trkpt>
      <trkpt lat="43.61277" lon="1.33074">
        <ele>188.08</ele>
        <time>2017-03-05T08:48:48Z</time>
      </trkpt>
      <trkpt lat="43.61273" lon="1.33078">
        <ele>188.08</ele>
        <time>2017-03-05T08:48:49Z</time>
      </trkpt>
      <trkpt lat="43.61268" lon="1.33084">
        <ele>188.08</ele>
        <time>2017-03-05T08:48:50Z</time>
      </trkpt>
      <trkpt lat="43.61265" lon="1.3309">
        <ele>188.08</ele>
        <time>2017-03-05T08:48:51Z</time>
      </trkpt>
      <trkpt lat="43.61262" lon="1.33097">
        <ele>188.08</ele>
        <time>2017-03-05T08:48:52Z</time>
      </trkpt>
      <trkpt lat="43.6126" lon="1.33105">
        <ele>188.08</ele>
        <time>2017-03-05T08:48:53Z</time>
      </trkpt>
      <trkpt lat="43.61259" lon="1.33113">
        <ele>188.08</ele>
        <time>2017-03-05T08:48:54Z</time>
      </trkpt>
      <trkpt lat="43.61258" lon="1.33122">
        <ele>188.08</ele>
        <time>2017-03-05T08:48:55Z</time>
      </trkpt>
      <trkpt lat="43.61258" lon="1.3313">
        <ele>188.08</ele>
        <time>2017-03-05T08:48:56Z</time>
      </trkpt>
      <trkpt lat="43.61258" lon="1.33139">
        <ele>188.08</ele>
        <time>2017-03-05T08:48:57Z</time>
      </trkpt>
      <trkpt lat="43.61259" lon="1.33147">
        <ele>188.08</ele>
        <time>2017-03-05T08:48:58Z</time>
      </trkpt>
      <trkpt lat="43.61261" lon="1.33155">
        <ele>188.08</ele>
        <time>2017-03-05T08:48:59Z</time>
      </trkpt>
      <trkpt lat="43.61263" lon="1.33163">
        <ele>188.08</ele>
        <time>2017-03-05T08:49:00Z</time>
      </trkpt>
      <trkpt lat="43.61265" lon="1.33171">
        <ele>188.08</ele>
        <time>2017-03-05T08:49:01Z</time>
      </trkpt>
      <trkpt lat="43.61267" lon="1.33179">
        <ele>188.08</ele>
        <time>2017-03-05T08:49:02Z</time>
      </trkpt>
      <trkpt lat="43.61268" lon="1.33187">
        <ele>188.08</ele>
        <time>2017-03-05T08:49:03Z</time>
      </trkpt>
      <trkpt lat="43.61268" lon="1.33196">
        <ele>188.08</ele>
        <time>2017-03-05T08:49:04Z</time>
      </trkpt>
      <trkpt lat="43.61268" lon="1.33204">
        <ele>188.08</ele>
        <time>2017-03-05T08:49:05Z</time>
      </trkpt>
      <trkpt lat="43.61266" lon="1.33212">
        <ele>188.08</ele>
        <time>2017-03-05T08:49:06Z</time>
      </trkpt>
      <trkpt lat="43.61265" lon="1.3322">
        <ele>189.04</ele>
        <time>2017-03-05T08:49:07Z</time>
      </trkpt>
      <trkpt lat="43.61262" lon="1.33227">
        <ele>189.04</ele>
        <time>2017-03-05T08:49:08Z</time>
      </trkpt>
      <trkpt lat="43.61228" lon="1.33371">
        <ele>188.08</ele>
        <time>2017-03-05T08:49:25Z</time>
      </trkpt>
      <trkpt lat="43.61193" lon="1.33487">
        <ele>187.11</ele>
        <time>2017-03-05T08:49:40Z</time>
      </trkpt>
      <trkpt lat="43.61155" lon="1.33605">
        <ele>188.08</ele>
        <time>2017-03-05T08:49:55Z</time>
      </trkpt>
      <trkpt lat="43.61151" lon="1.33612">
        <ele>188.08</ele>
        <time>2017-03-05T08:49:56Z</time>
      </trkpt>
      <trkpt lat="43.61146" lon="1.33618">
        <ele>188.08</ele>
        <time>2017-03-05T08:49:57Z</time>
      </trkpt>
      <trkpt lat="43.61141" lon="1.33623">
        <ele>188.08</ele>
        <time>2017-03-05T08:49:58Z</time>
      </trkpt>
      <trkpt lat="43.61135" lon="1.33627">
        <ele>188.08</ele>
        <time>2017-03-05T08:49:59Z</time>
      </trkpt>
      <trkpt lat="43.61119" lon="1.3364">
        <ele>187.11</ele>
        <time>2017-03-05T08:50:02Z</time>
      </trkpt>
      <trkpt lat="43.61114" lon="1.33646">
        <ele>187.11</ele>
        <time>2017-03-05T08:50:03Z</time>
      </trkpt>
      <trkpt lat="43.6111" lon="1.33653">
        <ele>187.11</ele>
        <time>2017-03-05T08:50:04Z</time>
      </trkpt>
      <trkpt lat="43.61108" lon="1.33661">
        <ele>187.11</ele>
        <time>2017-03-05T08:50:05Z</time>
      </trkpt>
      <trkpt lat="43.61106" lon="1.33671">
        <ele>187.11</ele>
        <time>2017-03-05T08:50:06Z</time>
      </trkpt>
      <trkpt lat="43.61105" lon="1.3368">
        <ele>187.11</ele>
        <time>2017-03-05T08:50:07Z</time>
      </trkpt>
      <trkpt lat="43.61106" lon="1.33688">
        <ele>187.11</ele>
        <time>2017-03-05T08:50:08Z</time>
      </trkpt>
      <trkpt lat="43.61107" lon="1.33697">
        <ele>187.11</ele>
        <time>2017-03-05T08:50:09Z</time>
      </trkpt>
      <trkpt lat="43.6111" lon="1.33704">
        <ele>187.11</ele>
        <time>2017-03-05T08:50:10Z</time>
      </trkpt>
      <trkpt lat="43.61114" lon="1.3371">
        <ele>187.11</ele>
        <time>2017-03-05T08:50:11Z</time>
      </trkpt>
      <trkpt lat="43.61119" lon="1.33716">
        <ele>187.11</ele>
        <time>2017-03-05T08:50:12Z</time>
      </trkpt>
      <trkpt lat="43.61125" lon="1.3372">
        <ele>187.11</ele>
        <time>2017-03-05T08:50:13Z</time>
      </trkpt>
      <trkpt lat="43.61131" lon="1.33722">
        <ele>187.11</ele>
        <time>2017-03-05T08:50:14Z</time>
      </trkpt>
      <trkpt lat="43.61137" lon="1.33724">
        <ele>187.11</ele>
        <time>2017-03-05T08:50:15Z</time>
      </trkpt>
      <trkpt lat="43.61143" lon="1.33725">
        <ele>187.11</ele>
        <time>2017-03-05T08:50:16Z</time>
      </trkpt>
      <trkpt lat="43.61149" lon="1.33727">
        <ele>187.11</ele>
        <time>2017-03-05T08:50:17Z</time>
      </trkpt>
      <trkpt lat="43.61217" lon="1.33757">
        <ele>187.11</ele>
        <time>2017-03-05T08:50:27Z</time>
      </trkpt>
      <trkpt lat="43.61291" lon="1.3383">
        <ele>182.79</ele>
        <time>2017-03-05T08:50:37Z</time>
      </trkpt>
      <trkpt lat="43.61298" lon="1.33839">
        <ele>182.79</ele>
        <time>2017-03-05T08:50:38Z</time>
      </trkpt>
      <trkpt lat="43.61335" lon="1.33881">
        <ele>179.9</ele>
        <time>2017-03-05T08:50:43Z</time>
      </trkpt>
      <trkpt lat="43.61366" lon="1.33939">
        <ele>177.02</ele>
        <time>2017-03-05T08:50:49Z</time>
      </trkpt>
      <trkpt lat="43.61385" lon="1.34047">
        <ele>174.14</ele>
        <time>2017-03-05T08:50:59Z</time>
      </trkpt>
      <trkpt lat="43.61387" lon="1.34056">
        <ele>174.14</ele>
        <time>2017-03-05T08:51:00Z</time>
      </trkpt>
      <trkpt lat="43.61389" lon="1.34065">
        <ele>174.14</ele>
        <time>2017-03-05T08:51:01Z</time>
      </trkpt>
      <trkpt lat="43.61388" lon="1.34101">
        <ele>173.17</ele>
        <time>2017-03-05T08:51:08Z</time>
      </trkpt>
      <trkpt lat="43.61339" lon="1.34204">
        <ele>172.21</ele>
        <time>2017-03-05T08:51:23Z</time>
      </trkpt>
      <trkpt lat="43.61267" lon="1.34294">
        <ele>170.77</ele>
        <time>2017-03-05T08:51:39Z</time>
      </trkpt>
      <trkpt lat="43.61216" lon="1.34391">
        <ele>168.85</ele>
        <time>2017-03-05T08:51:52Z</time>
      </trkpt>
      <trkpt lat="43.6116" lon="1.34504">
        <ele>165.96</ele>
        <time>2017-03-05T08:52:06Z</time>
      </trkpt>
      <trkpt lat="43.61134" lon="1.3455">
        <ele>164.04</ele>
        <time>2017-03-05T08:52:13Z</time>
      </trkpt>
      <trkpt lat="43.61121" lon="1.34582">
        <ele>164.04</ele>
        <time>2017-03-05T08:52:18Z</time>
      </trkpt>
      <trkpt lat="43.61115" lon="1.34597">
        <ele>164.04</ele>
        <time>2017-03-05T08:52:21Z</time>
      </trkpt>
      <trkpt lat="43.61081" lon="1.34674">
        <ele>163.08</ele>
        <time>2017-03-05T08:52:33Z</time>
      </trkpt>
      <trkpt lat="43.61032" lon="1.34792">
        <ele>163.08</ele>
        <time>2017-03-05T08:52:49Z</time>
      </trkpt>
      <trkpt lat="43.60992" lon="1.34913">
        <ele>162.12</ele>
        <time>2017-03-05T08:53:04Z</time>
      </trkpt>
      <trkpt lat="43.60987" lon="1.35052">
        <ele>161.16</ele>
        <time>2017-03-05T08:53:19Z</time>
      </trkpt>
      <trkpt lat="43.6098" lon="1.35146">
        <ele>160.2</ele>
        <time>2017-03-05T08:53:30Z</time>
      </trkpt>
      <trkpt lat="43.60977" lon="1.35153">
        <ele>160.2</ele>
        <time>2017-03-05T08:53:31Z</time>
      </trkpt>
      <trkpt lat="43.60974" lon="1.35158">
        <ele>160.2</ele>
        <time>2017-03-05T08:53:32Z</time>
      </trkpt>
      <trkpt lat="43.6097" lon="1.35161">
        <ele>160.2</ele>
        <time>2017-03-05T08:53:33Z</time>
      </trkpt>
      <trkpt lat="43.60965" lon="1.35163">
        <ele>160.2</ele>
        <time>2017-03-05T08:53:34Z</time>
      </trkpt>
      <trkpt lat="43.6096" lon="1.35165">
        <ele>160.2</ele>
        <time>2017-03-05T08:53:35Z</time>
      </trkpt>
      <trkpt lat="43.60949" lon="1.35169">
        <ele>160.2</ele>
        <time>2017-03-05T08:53:37Z</time>
      </trkpt>
      <trkpt lat="43.60944" lon="1.35173">
        <ele>160.2</ele>
        <time>2017-03-05T08:53:38Z</time>
      </trkpt>
      <trkpt lat="43.6094" lon="1.35177">
        <ele>160.2</ele>
        <time>2017-03-05T08:53:39Z</time>
      </trkpt>
      <trkpt lat="43.60936" lon="1.35183">
        <ele>160.2</ele>
        <time>2017-03-05T08:53:40Z</time>
      </trkpt>
      <trkpt lat="43.60932" lon="1.35189">
        <ele>160.2</ele>
        <time>2017-03-05T08:53:41Z</time>
      </trkpt>
      <trkpt lat="43.60929" lon="1.35196">
        <ele>160.2</ele>
        <time>2017-03-05T08:53:42Z</time>
      </trkpt>
      <trkpt lat="43.60925" lon="1.35203">
        <ele>160.2</ele>
        <time>2017-03-05T08:53:43Z</time>
      </trkpt>
      <trkpt lat="43.60923" lon="1.3521">
        <ele>160.2</ele>
        <time>2017-03-05T08:53:44Z</time>
      </trkpt>
      <trkpt lat="43.60921" lon="1.35218">
        <ele>160.2</ele>
        <time>2017-03-05T08:53:45Z</time>
      </trkpt>
      <trkpt lat="43.6092" lon="1.35226">
        <ele>160.2</ele>
        <time>2017-03-05T08:53:46Z</time>
      </trkpt>
      <trkpt lat="43.6092" lon="1.35235">
        <ele>160.2</ele>
        <time>2017-03-05T08:53:47Z</time>
      </trkpt>
      <trkpt lat="43.60919" lon="1.35243">
        <ele>160.2</ele>
        <time>2017-03-05T08:53:48Z</time>
      </trkpt>
      <trkpt lat="43.60918" lon="1.35251">
        <ele>160.2</ele>
        <time>2017-03-05T08:53:49Z</time>
      </trkpt>
      <trkpt lat="43.60916" lon="1.35259">
        <ele>160.2</ele>
        <time>2017-03-05T08:53:50Z</time>
      </trkpt>
      <trkpt lat="43.60913" lon="1.35266">
        <ele>160.2</ele>
        <time>2017-03-05T08:53:51Z</time>
      </trkpt>
      <trkpt lat="43.60909" lon="1.35272">
        <ele>160.2</ele>
        <time>2017-03-05T08:53:52Z</time>
      </trkpt>
      <trkpt lat="43.60905" lon="1.35277">
        <ele>160.2</ele>
        <time>2017-03-05T08:53:53Z</time>
      </trkpt>
      <trkpt lat="43.609" lon="1.35281">
        <ele>160.2</ele>
        <time>2017-03-05T08:53:54Z</time>
      </trkpt>
      <trkpt lat="43.60895" lon="1.35284">
        <ele>160.2</ele>
        <time>2017-03-05T08:53:55Z</time>
      </trkpt>
      <trkpt lat="43.6089" lon="1.35287">
        <ele>160.2</ele>
        <time>2017-03-05T08:53:56Z</time>
      </trkpt>
      <trkpt lat="43.60884" lon="1.3529">
        <ele>160.2</ele>
        <time>2017-03-05T08:53:57Z</time>
      </trkpt>
      <trkpt lat="43.60788" lon="1.35349">
        <ele>157.79</ele>
        <time>2017-03-05T08:54:12Z</time>
      </trkpt>
      <trkpt lat="43.60742" lon="1.35371">
        <ele>156.83</ele>
        <time>2017-03-05T08:54:22Z</time>
      </trkpt>
      <trkpt lat="43.60737" lon="1.35371">
        <ele>156.83</ele>
        <time>2017-03-05T08:54:23Z</time>
      </trkpt>
      <trkpt lat="43.60732" lon="1.35372">
        <ele>157.79</ele>
        <time>2017-03-05T08:54:24Z</time>
      </trkpt>
      <trkpt lat="43.60727" lon="1.35371">
        <ele>157.79</ele>
        <time>2017-03-05T08:54:25Z</time>
      </trkpt>
      <trkpt lat="43.60722" lon="1.35369">
        <ele>157.79</ele>
        <time>2017-03-05T08:54:26Z</time>
      </trkpt>
      <trkpt lat="43.60717" lon="1.35366">
        <ele>159.24</ele>
        <time>2017-03-05T08:54:27Z</time>
      </trkpt>
      <trkpt lat="43.60713" lon="1.35362">
        <ele>159.24</ele>
        <time>2017-03-05T08:54:28Z</time>
      </trkpt>
      <trkpt lat="43.60709" lon="1.35357">
        <ele>159.24</ele>
        <time>2017-03-05T08:54:29Z</time>
      </trkpt>
      <trkpt lat="43.60706" lon="1.35351">
        <ele>159.24</ele>
        <time>2017-03-05T08:54:30Z</time>
      </trkpt>
      <trkpt lat="43.60703" lon="1.35345">
        <ele>159.24</ele>
        <time>2017-03-05T08:54:31Z</time>
      </trkpt>
      <trkpt lat="43.60699" lon="1.35341">
        <ele>159.24</ele>
        <time>2017-03-05T08:54:32Z</time>
      </trkpt>
      <trkpt lat="43.60695" lon="1.35338">
        <ele>159.24</ele>
        <time>2017-03-05T08:54:33Z</time>
      </trkpt>
      <trkpt lat="43.6069" lon="1.35338">
        <ele>159.24</ele>
        <time>2017-03-05T08:54:34Z</time>
      </trkpt>
      <trkpt lat="43.60685" lon="1.35339">
        <ele>159.24</ele>
        <time>2017-03-05T08:54:35Z</time>
      </trkpt>
      <trkpt lat="43.60681" lon="1.35341">
        <ele>160.2</ele>
        <time>2017-03-05T08:54:36Z</time>
      </trkpt>
      <trkpt lat="43.60677" lon="1.35345">
        <ele>160.2</ele>
        <time>2017-03-05T08:54:37Z</time>
      </trkpt>
      <trkpt lat="43.60673" lon="1.3535">
        <ele>160.2</ele>
        <time>2017-03-05T08:54:38Z</time>
      </trkpt>
      <trkpt lat="43.6067" lon="1.35356">
        <ele>160.2</ele>
        <time>2017-03-05T08:54:39Z</time>
      </trkpt>
      <trkpt lat="43.60667" lon="1.35362">
        <ele>160.2</ele>
        <time>2017-03-05T08:54:40Z</time>
      </trkpt>
      <trkpt lat="43.60663" lon="1.35367">
        <ele>160.2</ele>
        <time>2017-03-05T08:54:41Z</time>
      </trkpt>
      <trkpt lat="43.60659" lon="1.35372">
        <ele>160.2</ele>
        <time>2017-03-05T08:54:42Z</time>
      </trkpt>
      <trkpt lat="43.60655" lon="1.35376">
        <ele>160.2</ele>
        <time>2017-03-05T08:54:43Z</time>
      </trkpt>
      <trkpt lat="43.60651" lon="1.35381">
        <ele>160.2</ele>
        <time>2017-03-05T08:54:44Z</time>
      </trkpt>
      <trkpt lat="43.60648" lon="1.35386">
        <ele>160.2</ele>
        <time>2017-03-05T08:54:45Z</time>
      </trkpt>
      <trkpt lat="43.60646" lon="1.35392">
        <ele>160.2</ele>
        <time>2017-03-05T08:54:46Z</time>
      </trkpt>
      <trkpt lat="43.60643" lon="1.35398">
        <ele>160.2</ele>
        <time>2017-03-05T08:54:47Z</time>
      </trkpt>
      <trkpt lat="43.60642" lon="1.35405">
        <ele>160.2</ele>
        <time>2017-03-05T08:54:48Z</time>
      </trkpt>
      <trkpt lat="43.60641" lon="1.35412">
        <ele>160.2</ele>
        <time>2017-03-05T08:54:49Z</time>
      </trkpt>
      <trkpt lat="43.60641" lon="1.35419">
        <ele>161.16</ele>
        <time>2017-03-05T08:54:50Z</time>
      </trkpt>
      <trkpt lat="43.60635" lon="1.35504">
        <ele>161.16</ele>
        <time>2017-03-05T08:55:01Z</time>
      </trkpt>
      <trkpt lat="43.60634" lon="1.35512">
        <ele>161.16</ele>
        <time>2017-03-05T08:55:02Z</time>
      </trkpt>
      <trkpt lat="43.60631" lon="1.35525">
        <ele>161.16</ele>
        <time>2017-03-05T08:55:04Z</time>
      </trkpt>
      <trkpt lat="43.60631" lon="1.35532">
        <ele>161.16</ele>
        <time>2017-03-05T08:55:05Z</time>
      </trkpt>
      <trkpt lat="43.60634" lon="1.35537">
        <ele>161.16</ele>
        <time>2017-03-05T08:55:06Z</time>
      </trkpt>
      <trkpt lat="43.60637" lon="1.3554">
        <ele>161.16</ele>
        <time>2017-03-05T08:55:07Z</time>
      </trkpt>
      <trkpt lat="43.60641" lon="1.35541">
        <ele>161.16</ele>
        <time>2017-03-05T08:55:08Z</time>
      </trkpt>
      <trkpt lat="43.60646" lon="1.3554">
        <ele>160.2</ele>
        <time>2017-03-05T08:55:09Z</time>
      </trkpt>
      <trkpt lat="43.60651" lon="1.35538">
        <ele>160.2</ele>
        <time>2017-03-05T08:55:10Z</time>
      </trkpt>
      <trkpt lat="43.60656" lon="1.35537">
        <ele>160.2</ele>
        <time>2017-03-05T08:55:11Z</time>
      </trkpt>
      <trkpt lat="43.60661" lon="1.35536">
        <ele>160.2</ele>
        <time>2017-03-05T08:55:12Z</time>
      </trkpt>
      <trkpt lat="43.60667" lon="1.35536">
        <ele>160.2</ele>
        <time>2017-03-05T08:55:13Z</time>
      </trkpt>
      <trkpt lat="43.60709" lon="1.3554">
        <ele>160.2</ele>
        <time>2017-03-05T08:55:20Z</time>
      </trkpt>
      <trkpt lat="43.60726" lon="1.35543">
        <ele>160.2</ele>
        <time>2017-03-05T08:55:23Z</time>
      </trkpt>
      <trkpt lat="43.60764" lon="1.35548">
        <ele>160.2</ele>
        <time>2017-03-05T08:55:29Z</time>
      </trkpt>
      <trkpt lat="43.60769" lon="1.3555">
        <ele>160.2</ele>
        <time>2017-03-05T08:55:30Z</time>
      </trkpt>
      <trkpt lat="43.60774" lon="1.35553">
        <ele>160.2</ele>
        <time>2017-03-05T08:55:31Z</time>
      </trkpt>
      <trkpt lat="43.60778" lon="1.35558">
        <ele>160.2</ele>
        <time>2017-03-05T08:55:32Z</time>
      </trkpt>
      <trkpt lat="43.60782" lon="1.35564">
        <ele>160.2</ele>
        <time>2017-03-05T08:55:33Z</time>
      </trkpt>
      <trkpt lat="43.60785" lon="1.35571">
        <ele>160.2</ele>
        <time>2017-03-05T08:55:34Z</time>
      </trkpt>
      <trkpt lat="43.60787" lon="1.35579">
        <ele>160.2</ele>
        <time>2017-03-05T08:55:35Z</time>
      </trkpt>
      <trkpt lat="43.60788" lon="1.35588">
        <ele>160.2</ele>
        <time>2017-03-05T08:55:36Z</time>
      </trkpt>
      <trkpt lat="43.60788" lon="1.35596">
        <ele>160.2</ele>
        <time>2017-03-05T08:55:37Z</time>
      </trkpt>
      <trkpt lat="43.60787" lon="1.35744">
        <ele>160.2</ele>
        <time>2017-03-05T08:55:55Z</time>
      </trkpt>
      <trkpt lat="43.60784" lon="1.35869">
        <ele>160.2</ele>
        <time>2017-03-05T08:56:10Z</time>
      </trkpt>
      <trkpt lat="43.60778" lon="1.3605">
        <ele>160.2</ele>
        <time>2017-03-05T08:56:31Z</time>
      </trkpt>
      <trkpt lat="43.60774" lon="1.36204">
        <ele>159.24</ele>
        <time>2017-03-05T08:56:49Z</time>
      </trkpt>
      <trkpt lat="43.6077" lon="1.36322">
        <ele>159.24</ele>
        <time>2017-03-05T08:57:03Z</time>
      </trkpt>
      <trkpt lat="43.60771" lon="1.36331">
        <ele>159.24</ele>
        <time>2017-03-05T08:57:04Z</time>
      </trkpt>
      <trkpt lat="43.60772" lon="1.36339">
        <ele>159.24</ele>
        <time>2017-03-05T08:57:05Z</time>
      </trkpt>
      <trkpt lat="43.60774" lon="1.36347">
        <ele>159.24</ele>
        <time>2017-03-05T08:57:06Z</time>
      </trkpt>
      <trkpt lat="43.60776" lon="1.36354">
        <ele>159.24</ele>
        <time>2017-03-05T08:57:07Z</time>
      </trkpt>
      <trkpt lat="43.60778" lon="1.36362">
        <ele>159.24</ele>
        <time>2017-03-05T08:57:08Z</time>
      </trkpt>
      <trkpt lat="43.60781" lon="1.36368">
        <ele>159.24</ele>
        <time>2017-03-05T08:57:09Z</time>
      </trkpt>
      <trkpt lat="43.60789" lon="1.36389">
        <ele>159.24</ele>
        <time>2017-03-05T08:57:12Z</time>
      </trkpt>
      <trkpt lat="43.6079" lon="1.36396">
        <ele>159.24</ele>
        <time>2017-03-05T08:57:13Z</time>
      </trkpt>
      <trkpt lat="43.6079" lon="1.36403">
        <ele>159.24</ele>
        <time>2017-03-05T08:57:14Z</time>
      </trkpt>
      <trkpt lat="43.6079" lon="1.36411">
        <ele>159.24</ele>
        <time>2017-03-05T08:57:15Z</time>
      </trkpt>
      <trkpt lat="43.60789" lon="1.36418">
        <ele>159.24</ele>
        <time>2017-03-05T08:57:16Z</time>
      </trkpt>
      <trkpt lat="43.60789" lon="1.36426">
        <ele>159.24</ele>
        <time>2017-03-05T08:57:17Z</time>
      </trkpt>
      <trkpt lat="43.6079" lon="1.36434">
        <ele>159.24</ele>
        <time>2017-03-05T08:57:18Z</time>
      </trkpt>
      <trkpt lat="43.60792" lon="1.36442">
        <ele>159.24</ele>
        <time>2017-03-05T08:57:19Z</time>
      </trkpt>
      <trkpt lat="43.60792" lon="1.36449">
        <ele>159.24</ele>
        <time>2017-03-05T08:57:20Z</time>
      </trkpt>
      <trkpt lat="43.60791" lon="1.36457">
        <ele>159.24</ele>
        <time>2017-03-05T08:57:21Z</time>
      </trkpt>
      <trkpt lat="43.60789" lon="1.36465">
        <ele>159.24</ele>
        <time>2017-03-05T08:57:22Z</time>
      </trkpt>
      <trkpt lat="43.60758" lon="1.36587">
        <ele>157.79</ele>
        <time>2017-03-05T08:57:37Z</time>
      </trkpt>
      <trkpt lat="43.60726" lon="1.36703">
        <ele>159.24</ele>
        <time>2017-03-05T08:57:52Z</time>
      </trkpt>
      <trkpt lat="43.60722" lon="1.3671">
        <ele>159.24</ele>
        <time>2017-03-05T08:57:53Z</time>
      </trkpt>
      <trkpt lat="43.60718" lon="1.36716">
        <ele>159.24</ele>
        <time>2017-03-05T08:57:54Z</time>
      </trkpt>
      <trkpt lat="43.60713" lon="1.36721">
        <ele>159.24</ele>
        <time>2017-03-05T08:57:55Z</time>
      </trkpt>
      <trkpt lat="43.60707" lon="1.36723">
        <ele>159.24</ele>
        <time>2017-03-05T08:57:56Z</time>
      </trkpt>
      <trkpt lat="43.60701" lon="1.36726">
        <ele>157.79</ele>
        <time>2017-03-05T08:57:57Z</time>
      </trkpt>
      <trkpt lat="43.60696" lon="1.3673">
        <ele>157.79</ele>
        <time>2017-03-05T08:57:58Z</time>
      </trkpt>
      <trkpt lat="43.60692" lon="1.36735">
        <ele>157.79</ele>
        <time>2017-03-05T08:57:59Z</time>
      </trkpt>
      <trkpt lat="43.60689" lon="1.36741">
        <ele>157.79</ele>
        <time>2017-03-05T08:58:00Z</time>
      </trkpt>
      <trkpt lat="43.60687" lon="1.36749">
        <ele>157.79</ele>
        <time>2017-03-05T08:58:01Z</time>
      </trkpt>
      <trkpt lat="43.60686" lon="1.36756">
        <ele>157.79</ele>
        <time>2017-03-05T08:58:02Z</time>
      </trkpt>
      <trkpt lat="43.60684" lon="1.36764">
        <ele>157.79</ele>
        <time>2017-03-05T08:58:03Z</time>
      </trkpt>
      <trkpt lat="43.60682" lon="1.36772">
        <ele>157.79</ele>
        <time>2017-03-05T08:58:04Z</time>
      </trkpt>
      <trkpt lat="43.6068" lon="1.3678">
        <ele>157.79</ele>
        <time>2017-03-05T08:58:05Z</time>
      </trkpt>
      <trkpt lat="43.60655" lon="1.36855">
        <ele>157.79</ele>
        <time>2017-03-05T08:58:15Z</time>
      </trkpt>
      <trkpt lat="43.60652" lon="1.36871">
        <ele>157.79</ele>
        <time>2017-03-05T08:58:17Z</time>
      </trkpt>
      <trkpt lat="43.60653" lon="1.36878">
        <ele>157.79</ele>
        <time>2017-03-05T08:58:18Z</time>
      </trkpt>
      <trkpt lat="43.60654" lon="1.36887">
        <ele>157.79</ele>
        <time>2017-03-05T08:58:19Z</time>
      </trkpt>
      <trkpt lat="43.60655" lon="1.36895">
        <ele>157.79</ele>
        <time>2017-03-05T08:58:20Z</time>
      </trkpt>
      <trkpt lat="43.60658" lon="1.36902">
        <ele>157.79</ele>
        <time>2017-03-05T08:58:21Z</time>
      </trkpt>
      <trkpt lat="43.60662" lon="1.36909">
        <ele>157.79</ele>
        <time>2017-03-05T08:58:22Z</time>
      </trkpt>
      <trkpt lat="43.60666" lon="1.36915">
        <ele>157.79</ele>
        <time>2017-03-05T08:58:23Z</time>
      </trkpt>
      <trkpt lat="43.60671" lon="1.3692">
        <ele>157.79</ele>
        <time>2017-03-05T08:58:24Z</time>
      </trkpt>
      <trkpt lat="43.60676" lon="1.36924">
        <ele>157.79</ele>
        <time>2017-03-05T08:58:25Z</time>
      </trkpt>
      <trkpt lat="43.60719" lon="1.36965">
        <ele>157.79</ele>
        <time>2017-03-05T08:58:34Z</time>
      </trkpt>
      <trkpt lat="43.60722" lon="1.36972">
        <ele>157.79</ele>
        <time>2017-03-05T08:58:35Z</time>
      </trkpt>
      <trkpt lat="43.60724" lon="1.3698">
        <ele>157.79</ele>
        <time>2017-03-05T08:58:36Z</time>
      </trkpt>
      <trkpt lat="43.60725" lon="1.36988">
        <ele>157.79</ele>
        <time>2017-03-05T08:58:37Z</time>
      </trkpt>
      <trkpt lat="43.60725" lon="1.36995">
        <ele>157.79</ele>
        <time>2017-03-05T08:58:38Z</time>
      </trkpt>
      <trkpt lat="43.60725" lon="1.37003">
        <ele>159.24</ele>
        <time>2017-03-05T08:58:39Z</time>
      </trkpt>
      <trkpt lat="43.60723" lon="1.37011">
        <ele>159.24</ele>
        <time>2017-03-05T08:58:40Z</time>
      </trkpt>
      <trkpt lat="43.60713" lon="1.3711">
        <ele>159.24</ele>
        <time>2017-03-05T08:58:52Z</time>
      </trkpt>
      <trkpt lat="43.60713" lon="1.37118">
        <ele>159.24</ele>
        <time>2017-03-05T08:58:53Z</time>
      </trkpt>
      <trkpt lat="43.60715" lon="1.37126">
        <ele>159.24</ele>
        <time>2017-03-05T08:58:54Z</time>
      </trkpt>
      <trkpt lat="43.60723" lon="1.37157">
        <ele>159.24</ele>
        <time>2017-03-05T08:58:58Z</time>
      </trkpt>
      <trkpt lat="43.60726" lon="1.37163">
        <ele>159.24</ele>
        <time>2017-03-05T08:58:59Z</time>
      </trkpt>
      <trkpt lat="43.60731" lon="1.37167">
        <ele>159.24</ele>
        <time>2017-03-05T08:59:00Z</time>
      </trkpt>
      <trkpt lat="43.60801" lon="1.37201">
        <ele>159.24</ele>
        <time>2017-03-05T08:59:12Z</time>
      </trkpt>
      <trkpt lat="43.6083" lon="1.37215">
        <ele>159.24</ele>
        <time>2017-03-05T08:59:17Z</time>
      </trkpt>
      <trkpt lat="43.60862" lon="1.37237">
        <ele>159.24</ele>
        <time>2017-03-05T08:59:23Z</time>
      </trkpt>
      <trkpt lat="43.60866" lon="1.37243">
        <ele>159.24</ele>
        <time>2017-03-05T08:59:24Z</time>
      </trkpt>
      <trkpt lat="43.60869" lon="1.37249">
        <ele>159.24</ele>
        <time>2017-03-05T08:59:25Z</time>
      </trkpt>
      <trkpt lat="43.60871" lon="1.37256">
        <ele>159.24</ele>
        <time>2017-03-05T08:59:26Z</time>
      </trkpt>
      <trkpt lat="43.60873" lon="1.37264">
        <ele>159.24</ele>
        <time>2017-03-05T08:59:27Z</time>
      </trkpt>
      <trkpt lat="43.60873" lon="1.37272">
        <ele>159.24</ele>
        <time>2017-03-05T08:59:28Z</time>
      </trkpt>
      <trkpt lat="43.60873" lon="1.3728">
        <ele>159.24</ele>
        <time>2017-03-05T08:59:29Z</time>
      </trkpt>
      <trkpt lat="43.60868" lon="1.37426">
        <ele>157.79</ele>
        <time>2017-03-05T08:59:46Z</time>
      </trkpt>
      <trkpt lat="43.60862" lon="1.37563">
        <ele>157.79</ele>
        <time>2017-03-05T09:00:02Z</time>
      </trkpt>
      <trkpt lat="43.60854" lon="1.3773">
        <ele>155.87</ele>
        <time>2017-03-05T09:00:21Z</time>
      </trkpt>
      <trkpt lat="43.60835" lon="1.37838">
        <ele>154.91</ele>
        <time>2017-03-05T09:00:33Z</time>
      </trkpt>
      <trkpt lat="43.60834" lon="1.37847">
        <ele>153.95</ele>
        <time>2017-03-05T09:00:34Z</time>
      </trkpt>
      <trkpt lat="43.60834" lon="1.37856">
        <ele>153.95</ele>
        <time>2017-03-05T09:00:35Z</time>
      </trkpt>
      <trkpt lat="43.60835" lon="1.37865">
        <ele>153.95</ele>
        <time>2017-03-05T09:00:36Z</time>
      </trkpt>
      <trkpt lat="43.60837" lon="1.37874">
        <ele>153.95</ele>
        <time>2017-03-05T09:00:37Z</time>
      </trkpt>
      <trkpt lat="43.60839" lon="1.37883">
        <ele>153.95</ele>
        <time>2017-03-05T09:00:38Z</time>
      </trkpt>
      <trkpt lat="43.60842" lon="1.37891">
        <ele>153.95</ele>
        <time>2017-03-05T09:00:39Z</time>
      </trkpt>
      <trkpt lat="43.60852" lon="1.37916">
        <ele>152.99</ele>
        <time>2017-03-05T09:00:42Z</time>
      </trkpt>
      <trkpt lat="43.60887" lon="1.37986">
        <ele>152.03</ele>
        <time>2017-03-05T09:00:51Z</time>
      </trkpt>
      <trkpt lat="43.60898" lon="1.38008">
        <ele>152.03</ele>
        <time>2017-03-05T09:00:54Z</time>
      </trkpt>
      <trkpt lat="43.60901" lon="1.38016">
        <ele>151.06</ele>
        <time>2017-03-05T09:00:55Z</time>
      </trkpt>
      <trkpt lat="43.60904" lon="1.38024">
        <ele>151.06</ele>
        <time>2017-03-05T09:00:56Z</time>
      </trkpt>
      <trkpt lat="43.60905" lon="1.38032">
        <ele>151.06</ele>
        <time>2017-03-05T09:00:57Z</time>
      </trkpt>
      <trkpt lat="43.60905" lon="1.38041">
        <ele>151.06</ele>
        <time>2017-03-05T09:00:58Z</time>
      </trkpt>
      <trkpt lat="43.60904" lon="1.3805">
        <ele>151.06</ele>
        <time>2017-03-05T09:00:59Z</time>
      </trkpt>
      <trkpt lat="43.60896" lon="1.38095">
        <ele>150.1</ele>
        <time>2017-03-05T09:01:04Z</time>
      </trkpt>
      <trkpt lat="43.60892" lon="1.38103">
        <ele>150.1</ele>
        <time>2017-03-05T09:01:05Z</time>
      </trkpt>
      <trkpt lat="43.60841" lon="1.382">
        <ele>147.22</ele>
        <time>2017-03-05T09:01:18Z</time>
      </trkpt>
      <trkpt lat="43.60839" lon="1.38209">
        <ele>147.22</ele>
        <time>2017-03-05T09:01:19Z</time>
      </trkpt>
      <trkpt lat="43.60837" lon="1.38219">
        <ele>147.22</ele>
        <time>2017-03-05T09:01:20Z</time>
      </trkpt>
      <trkpt lat="43.60829" lon="1.38287">
        <ele>145.78</ele>
        <time>2017-03-05T09:01:27Z</time>
      </trkpt>
      <trkpt lat="43.60829" lon="1.38296">
        <ele>145.78</ele>
        <time>2017-03-05T09:01:28Z</time>
      </trkpt>
      <trkpt lat="43.6083" lon="1.38304">
        <ele>144.82</ele>
        <time>2017-03-05T09:01:29Z</time>
      </trkpt>
      <trkpt lat="43.60831" lon="1.38313">
        <ele>144.82</ele>
        <time>2017-03-05T09:01:30Z</time>
      </trkpt>
      <trkpt lat="43.60832" lon="1.38322">
        <ele>144.82</ele>
        <time>2017-03-05T09:01:31Z</time>
      </trkpt>
      <trkpt lat="43.60846" lon="1.38435">
        <ele>144.82</ele>
        <time>2017-03-05T09:01:46Z</time>
      </trkpt>
      <trkpt lat="43.60862" lon="1.3853">
        <ele>148.18</ele>
        <time>2017-03-05T09:02:01Z</time>
      </trkpt>
      <trkpt lat="43.60863" lon="1.38537">
        <ele>148.18</ele>
        <time>2017-03-05T09:02:02Z</time>
      </trkpt>
      <trkpt lat="43.60864" lon="1.38544">
        <ele>148.18</ele>
        <time>2017-03-05T09:02:03Z</time>
      </trkpt>
      <trkpt lat="43.60866" lon="1.38565">
        <ele>148.18</ele>
        <time>2017-03-05T09:02:06Z</time>
      </trkpt>
      <trkpt lat="43.60865" lon="1.38604">
        <ele>148.18</ele>
        <time>2017-03-05T09:02:12Z</time>
      </trkpt>
      <trkpt lat="43.60855" lon="1.38664">
        <ele>149.14</ele>
        <time>2017-03-05T09:02:23Z</time>
      </trkpt>
      <trkpt lat="43.60833" lon="1.38721">
        <ele>151.06</ele>
        <time>2017-03-05T09:02:36Z</time>
      </trkpt>
      <trkpt lat="43.60817" lon="1.38774">
        <ele>153.95</ele>
        <time>2017-03-05T09:02:49Z</time>
      </trkpt>
      <trkpt lat="43.60814" lon="1.38823">
        <ele>155.87</ele>
        <time>2017-03-05T09:03:00Z</time>
      </trkpt>
      <trkpt lat="43.60816" lon="1.38828">
        <ele>155.87</ele>
        <time>2017-03-05T09:03:01Z</time>
      </trkpt>
      <trkpt lat="43.60818" lon="1.38834">
        <ele>156.83</ele>
        <time>2017-03-05T09:03:02Z</time>
      </trkpt>
      <trkpt lat="43.6082" lon="1.3884">
        <ele>156.83</ele>
        <time>2017-03-05T09:03:03Z</time>
      </trkpt>
      <trkpt lat="43.60824" lon="1.38851">
        <ele>156.83</ele>
        <time>2017-03-05T09:03:05Z</time>
      </trkpt>
      <trkpt lat="43.60825" lon="1.38858">
        <ele>156.83</ele>
        <time>2017-03-05T09:03:06Z</time>
      </trkpt>
      <trkpt lat="43.60829" lon="1.38886">
        <ele>156.83</ele>
        <time>2017-03-05T09:03:10Z</time>
      </trkpt>
      <trkpt lat="43.60837" lon="1.38921">
        <ele>156.83</ele>
        <time>2017-03-05T09:03:15Z</time>
      </trkpt>
      <trkpt lat="43.60838" lon="1.38928">
        <ele>156.83</ele>
        <time>2017-03-05T09:03:16Z</time>
      </trkpt>
      <trkpt lat="43.60841" lon="1.3895">
        <ele>156.83</ele>
        <time>2017-03-05T09:03:19Z</time>
      </trkpt>
      <trkpt lat="43.60829" lon="1.39086">
        <ele>156.83</ele>
        <time>2017-03-05T09:03:37Z</time>
      </trkpt>
      <trkpt lat="43.60813" lon="1.39225">
        <ele>156.83</ele>
        <time>2017-03-05T09:03:55Z</time>
      </trkpt>
      <trkpt lat="43.60801" lon="1.39344">
        <ele>157.79</ele>
        <time>2017-03-05T09:04:10Z</time>
      </trkpt>
      <trkpt lat="43.60791" lon="1.39465">
        <ele>157.79</ele>
        <time>2017-03-05T09:04:26Z</time>
      </trkpt>
      <trkpt lat="43.6079" lon="1.39581">
        <ele>159.24</ele>
        <time>2017-03-05T09:04:41Z</time>
      </trkpt>
      <trkpt lat="43.60792" lon="1.397">
        <ele>159.24</ele>
        <time>2017-03-05T09:04:58Z</time>
      </trkpt>
      <trkpt lat="43.60786" lon="1.39712">
        <ele>159.24</ele>
        <time>2017-03-05T09:05:03Z</time>
      </trkpt>
      <trkpt lat="43.60784" lon="1.39714">
        <ele>159.24</ele>
        <time>2017-03-05T09:05:04Z</time>
      </trkpt>
      <trkpt lat="43.60782" lon="1.39715">
        <ele>159.24</ele>
        <time>2017-03-05T09:05:05Z</time>
      </trkpt>
      <trkpt lat="43.60781" lon="1.39716">
        <ele>159.24</ele>
        <time>2017-03-05T09:05:06Z</time>
      </trkpt>
      <trkpt lat="43.60779" lon="1.39718">
        <ele>159.24</ele>
        <time>2017-03-05T09:05:07Z</time>
      </trkpt>
      <trkpt lat="43.60777" lon="1.39719">
        <ele>159.24</ele>
        <time>2017-03-05T09:05:08Z</time>
      </trkpt>
      <trkpt lat="43.60776" lon="1.3972">
        <ele>159.24</ele>
        <time>2017-03-05T09:05:09Z</time>
      </trkpt>
      <trkpt lat="43.60774" lon="1.39723">
        <ele>159.24</ele>
        <time>2017-03-05T09:05:15Z</time>
      </trkpt>
      <trkpt lat="43.60774" lon="1.3974">
        <ele>159.24</ele>
        <time>2017-03-05T09:05:21Z</time>
      </trkpt>
      <trkpt lat="43.60774" lon="1.39745">
        <ele>159.24</ele>
        <time>2017-03-05T09:05:22Z</time>
      </trkpt>
      <trkpt lat="43.60776" lon="1.39763">
        <ele>159.24</ele>
        <time>2017-03-05T09:05:25Z</time>
      </trkpt>
      <trkpt lat="43.60774" lon="1.39768">
        <ele>159.24</ele>
        <time>2017-03-05T09:05:26Z</time>
      </trkpt>
      <trkpt lat="43.60772" lon="1.39774">
        <ele>159.24</ele>
        <time>2017-03-05T09:05:27Z</time>
      </trkpt>
      <trkpt lat="43.60769" lon="1.3978">
        <ele>159.24</ele>
        <time>2017-03-05T09:05:28Z</time>
      </trkpt>
      <trkpt lat="43.60767" lon="1.39785">
        <ele>159.24</ele>
        <time>2017-03-05T09:05:29Z</time>
      </trkpt>
      <trkpt lat="43.60709" lon="1.39915">
        <ele>157.79</ele>
        <time>2017-03-05T09:05:50Z</time>
      </trkpt>
      <trkpt lat="43.60695" lon="1.39947">
        <ele>156.83</ele>
        <time>2017-03-05T09:05:55Z</time>
      </trkpt>
      <trkpt lat="43.60692" lon="1.39954">
        <ele>156.83</ele>
        <time>2017-03-05T09:05:56Z</time>
      </trkpt>
      <trkpt lat="43.6069" lon="1.3996">
        <ele>156.83</ele>
        <time>2017-03-05T09:05:57Z</time>
      </trkpt>
      <trkpt lat="43.60643" lon="1.40065">
        <ele>154.91</ele>
        <time>2017-03-05T09:06:10Z</time>
      </trkpt>
      <trkpt lat="43.60596" lon="1.40151">
        <ele>152.99</ele>
        <time>2017-03-05T09:06:21Z</time>
      </trkpt>
      <trkpt lat="43.60588" lon="1.40166">
        <ele>152.03</ele>
        <time>2017-03-05T09:06:23Z</time>
      </trkpt>
      <trkpt lat="43.60584" lon="1.40174">
        <ele>152.03</ele>
        <time>2017-03-05T09:06:24Z</time>
      </trkpt>
      <trkpt lat="43.60531" lon="1.40306">
        <ele>149.14</ele>
        <time>2017-03-05T09:06:39Z</time>
      </trkpt>
      <trkpt lat="43.60506" lon="1.40364">
        <ele>147.22</ele>
        <time>2017-03-05T09:06:46Z</time>
      </trkpt>
      <trkpt lat="43.6046" lon="1.40458">
        <ele>145.78</ele>
        <time>2017-03-05T09:06:59Z</time>
      </trkpt>
      <trkpt lat="43.60444" lon="1.4048">
        <ele>145.78</ele>
        <time>2017-03-05T09:07:07Z</time>
      </trkpt>
      <trkpt lat="43.6044" lon="1.40483">
        <ele>147.22</ele>
        <time>2017-03-05T09:07:15Z</time>
      </trkpt>
      <trkpt lat="43.60437" lon="1.40493">
        <ele>147.22</ele>
        <time>2017-03-05T09:07:28Z</time>
      </trkpt>
      <trkpt lat="43.60429" lon="1.40512">
        <ele>147.22</ele>
        <time>2017-03-05T09:07:33Z</time>
      </trkpt>
      <trkpt lat="43.6039" lon="1.40598">
        <ele>147.22</ele>
        <time>2017-03-05T09:07:47Z</time>
      </trkpt>
      <trkpt lat="43.60378" lon="1.40625">
        <ele>147.22</ele>
        <time>2017-03-05T09:07:51Z</time>
      </trkpt>
      <trkpt lat="43.60371" lon="1.40639">
        <ele>147.22</ele>
        <time>2017-03-05T09:07:53Z</time>
      </trkpt>
      <trkpt lat="43.60368" lon="1.40646">
        <ele>147.22</ele>
        <time>2017-03-05T09:07:54Z</time>
      </trkpt>
      <trkpt lat="43.60346" lon="1.40681">
        <ele>147.22</ele>
        <time>2017-03-05T09:08:00Z</time>
      </trkpt>
      <trkpt lat="43.60321" lon="1.40746">
        <ele>147.22</ele>
        <time>2017-03-05T09:08:12Z</time>
      </trkpt>
      <trkpt lat="43.60284" lon="1.40827">
        <ele>147.22</ele>
        <time>2017-03-05T09:08:26Z</time>
      </trkpt>
      <trkpt lat="43.60246" lon="1.40921">
        <ele>147.22</ele>
        <time>2017-03-05T09:08:41Z</time>
      </trkpt>
      <trkpt lat="43.60246" lon="1.40925">
        <ele>147.22</ele>
        <time>2017-03-05T09:08:42Z</time>
      </trkpt>
      <trkpt lat="43.60247" lon="1.4093">
        <ele>147.22</ele>
        <time>2017-03-05T09:08:43Z</time>
      </trkpt>
      <trkpt lat="43.60247" lon="1.40934">
        <ele>147.22</ele>
        <time>2017-03-05T09:08:44Z</time>
      </trkpt>
      <trkpt lat="43.60248" lon="1.40939">
        <ele>147.22</ele>
        <time>2017-03-05T09:08:45Z</time>
      </trkpt>
      <trkpt lat="43.60247" lon="1.40944">
        <ele>147.22</ele>
        <time>2017-03-05T09:08:46Z</time>
      </trkpt>
      <trkpt lat="43.60246" lon="1.40949">
        <ele>147.22</ele>
        <time>2017-03-05T09:08:47Z</time>
      </trkpt>
      <trkpt lat="43.60244" lon="1.40954">
        <ele>147.22</ele>
        <time>2017-03-05T09:08:48Z</time>
      </trkpt>
      <trkpt lat="43.60241" lon="1.4096">
        <ele>147.22</ele>
        <time>2017-03-05T09:08:49Z</time>
      </trkpt>
      <trkpt lat="43.60236" lon="1.40971">
        <ele>147.22</ele>
        <time>2017-03-05T09:08:51Z</time>
      </trkpt>
      <trkpt lat="43.60233" lon="1.40976">
        <ele>147.22</ele>
        <time>2017-03-05T09:08:52Z</time>
      </trkpt>
      <trkpt lat="43.6023" lon="1.40983">
        <ele>147.22</ele>
        <time>2017-03-05T09:08:53Z</time>
      </trkpt>
      <trkpt lat="43.60227" lon="1.40989">
        <ele>147.22</ele>
        <time>2017-03-05T09:08:54Z</time>
      </trkpt>
      <trkpt lat="43.60224" lon="1.40995">
        <ele>147.22</ele>
        <time>2017-03-05T09:08:55Z</time>
      </trkpt>
      <trkpt lat="43.60221" lon="1.41001">
        <ele>147.22</ele>
        <time>2017-03-05T09:08:56Z</time>
      </trkpt>
      <trkpt lat="43.60219" lon="1.41007">
        <ele>147.22</ele>
        <time>2017-03-05T09:08:57Z</time>
      </trkpt>
      <trkpt lat="43.60216" lon="1.41014">
        <ele>147.22</ele>
        <time>2017-03-05T09:08:58Z</time>
      </trkpt>
      <trkpt lat="43.60171" lon="1.41117">
        <ele>147.22</ele>
        <time>2017-03-05T09:09:14Z</time>
      </trkpt>
      <trkpt lat="43.60157" lon="1.41148">
        <ele>147.22</ele>
        <time>2017-03-05T09:09:19Z</time>
      </trkpt>
      <trkpt lat="43.60154" lon="1.41154">
        <ele>147.22</ele>
        <time>2017-03-05T09:09:20Z</time>
      </trkpt>
      <trkpt lat="43.60148" lon="1.41173">
        <ele>147.22</ele>
        <time>2017-03-05T09:09:23Z</time>
      </trkpt>
      <trkpt lat="43.6013" lon="1.41212">
        <ele>147.22</ele>
        <time>2017-03-05T09:09:30Z</time>
      </trkpt>
      <trkpt lat="43.60128" lon="1.41218">
        <ele>147.22</ele>
        <time>2017-03-05T09:09:31Z</time>
      </trkpt>
      <trkpt lat="43.60126" lon="1.41224">
        <ele>147.22</ele>
        <time>2017-03-05T09:09:32Z</time>
      </trkpt>
      <trkpt lat="43.6008" lon="1.41331">
        <ele>147.22</ele>
        <time>2017-03-05T09:09:48Z</time>
      </trkpt>
      <trkpt lat="43.60067" lon="1.41359">
        <ele>147.22</ele>
        <time>2017-03-05T09:09:52Z</time>
      </trkpt>
      <trkpt lat="43.60007" lon="1.41488">
        <ele>147.22</ele>
        <time>2017-03-05T09:10:12Z</time>
      </trkpt>
      <trkpt lat="43.60001" lon="1.415">
        <ele>147.22</ele>
        <time>2017-03-05T09:10:14Z</time>
      </trkpt>
      <trkpt lat="43.59969" lon="1.41576">
        <ele>147.22</ele>
        <time>2017-03-05T09:10:25Z</time>
      </trkpt>
      <trkpt lat="43.59931" lon="1.41673">
        <ele>147.22</ele>
        <time>2017-03-05T09:10:39Z</time>
      </trkpt>
      <trkpt lat="43.59928" lon="1.4168">
        <ele>147.22</ele>
        <time>2017-03-05T09:10:40Z</time>
      </trkpt>
      <trkpt lat="43.59891" lon="1.4176">
        <ele>147.22</ele>
        <time>2017-03-05T09:10:53Z</time>
      </trkpt>
      <trkpt lat="43.59886" lon="1.41767">
        <ele>147.22</ele>
        <time>2017-03-05T09:10:55Z</time>
      </trkpt>
      <trkpt lat="43.59884" lon="1.41771">
        <ele>147.22</ele>
        <time>2017-03-05T09:10:56Z</time>
      </trkpt>
      <trkpt lat="43.59882" lon="1.41776">
        <ele>147.22</ele>
        <time>2017-03-05T09:10:57Z</time>
      </trkpt>
      <trkpt lat="43.5988" lon="1.41781">
        <ele>147.22</ele>
        <time>2017-03-05T09:10:58Z</time>
      </trkpt>
      <trkpt lat="43.59877" lon="1.41787">
        <ele>147.22</ele>
        <time>2017-03-05T09:10:59Z</time>
      </trkpt>
      <trkpt lat="43.59857" lon="1.41837">
        <ele>148.18</ele>
        <time>2017-03-05T09:11:08Z</time>
      </trkpt>
      <trkpt lat="43.59809" lon="1.41942">
        <ele>148.18</ele>
        <time>2017-03-05T09:11:26Z</time>
      </trkpt>
      <trkpt lat="43.59794" lon="1.4198">
        <ele>148.18</ele>
        <time>2017-03-05T09:11:33Z</time>
      </trkpt>
      <trkpt lat="43.5979" lon="1.41982">
        <ele>148.18</ele>
        <time>2017-03-05T09:11:34Z</time>
      </trkpt>
      <trkpt lat="43.59785" lon="1.41983">
        <ele>148.18</ele>
        <time>2017-03-05T09:11:35Z</time>
      </trkpt>
      <trkpt lat="43.59779" lon="1.41981">
        <ele>148.18</ele>
        <time>2017-03-05T09:11:36Z</time>
      </trkpt>
      <trkpt lat="43.59774" lon="1.41979">
        <ele>148.18</ele>
        <time>2017-03-05T09:11:37Z</time>
      </trkpt>
      <trkpt lat="43.59756" lon="1.41976">
        <ele>148.18</ele>
        <time>2017-03-05T09:11:40Z</time>
      </trkpt>
      <trkpt lat="43.59703" lon="1.4197">
        <ele>148.18</ele>
        <time>2017-03-05T09:11:49Z</time>
      </trkpt>
      <trkpt lat="43.59625" lon="1.41958">
        <ele>147.22</ele>
        <time>2017-03-05T09:12:03Z</time>
      </trkpt>
      <trkpt lat="43.5959" lon="1.41944">
        <ele>147.22</ele>
        <time>2017-03-05T09:12:14Z</time>
      </trkpt>
      <trkpt lat="43.59551" lon="1.41937">
        <ele>148.18</ele>
        <time>2017-03-05T09:12:28Z</time>
      </trkpt>
      <trkpt lat="43.59485" lon="1.41927">
        <ele>147.22</ele>
        <time>2017-03-05T09:12:41Z</time>
      </trkpt>
      <trkpt lat="43.59383" lon="1.41913">
        <ele>143.85</ele>
        <time>2017-03-05T09:12:55Z</time>
      </trkpt>
      <trkpt lat="43.59377" lon="1.41915">
        <ele>143.85</ele>
        <time>2017-03-05T09:12:56Z</time>
      </trkpt>
      <trkpt lat="43.59332" lon="1.41908">
        <ele>142.89</ele>
        <time>2017-03-05T09:13:06Z</time>
      </trkpt>
      <trkpt lat="43.5929" lon="1.41903">
        <ele>145.78</ele>
        <time>2017-03-05T09:13:17Z</time>
      </trkpt>
      <trkpt lat="43.59283" lon="1.419">
        <ele>147.22</ele>
        <time>2017-03-05T09:13:19Z</time>
      </trkpt>
      <trkpt lat="43.59264" lon="1.41897">
        <ele>147.22</ele>
        <time>2017-03-05T09:13:23Z</time>
      </trkpt>
      <trkpt lat="43.59188" lon="1.41889">
        <ele>148.18</ele>
        <time>2017-03-05T09:13:38Z</time>
      </trkpt>
      <trkpt lat="43.5918" lon="1.41889">
        <ele>148.18</ele>
        <time>2017-03-05T09:13:40Z</time>
      </trkpt>
      <trkpt lat="43.5917" lon="1.41888">
        <ele>148.18</ele>
        <time>2017-03-05T09:13:43Z</time>
      </trkpt>
      <trkpt lat="43.59168" lon="1.41889">
        <ele>148.18</ele>
        <time>2017-03-05T09:13:44Z</time>
      </trkpt>
      <trkpt lat="43.59154" lon="1.41897">
        <ele>148.18</ele>
        <time>2017-03-05T09:13:49Z</time>
      </trkpt>
      <trkpt lat="43.59151" lon="1.41898">
        <ele>148.18</ele>
        <time>2017-03-05T09:13:50Z</time>
      </trkpt>
      <trkpt lat="43.59147" lon="1.41899">
        <ele>148.18</ele>
        <time>2017-03-05T09:13:51Z</time>
      </trkpt>
      <trkpt lat="43.59145" lon="1.419">
        <ele>148.18</ele>
        <time>2017-03-05T09:13:52Z</time>
      </trkpt>
      <trkpt lat="43.59143" lon="1.419">
        <ele>148.18</ele>
        <time>2017-03-05T09:13:53Z</time>
      </trkpt>
      <trkpt lat="43.59138" lon="1.41908">
        <ele>148.18</ele>
        <time>2017-03-05T09:14:00Z</time>
      </trkpt>
      <trkpt lat="43.59137" lon="1.41911">
        <ele>148.18</ele>
        <time>2017-03-05T09:14:01Z</time>
      </trkpt>
      <trkpt lat="43.59136" lon="1.41914">
        <ele>148.18</ele>
        <time>2017-03-05T09:14:02Z</time>
      </trkpt>
      <trkpt lat="43.59135" lon="1.41918">
        <ele>148.18</ele>
        <time>2017-03-05T09:14:03Z</time>
      </trkpt>
      <trkpt lat="43.59134" lon="1.41922">
        <ele>148.18</ele>
        <time>2017-03-05T09:14:04Z</time>
      </trkpt>
      <trkpt lat="43.59109" lon="1.41955">
        <ele>148.18</ele>
        <time>2017-03-05T09:14:13Z</time>
      </trkpt>
      <trkpt lat="43.59068" lon="1.42023">
        <ele>148.18</ele>
        <time>2017-03-05T09:14:26Z</time>
      </trkpt>
      <trkpt lat="43.59047" lon="1.42058">
        <ele>147.22</ele>
        <time>2017-03-05T09:14:33Z</time>
      </trkpt>
      <trkpt lat="43.59044" lon="1.42063">
        <ele>147.22</ele>
        <time>2017-03-05T09:14:34Z</time>
      </trkpt>
      <trkpt lat="43.58995" lon="1.42138">
        <ele>147.22</ele>
        <time>2017-03-05T09:14:48Z</time>
      </trkpt>
      <trkpt lat="43.58987" lon="1.42155">
        <ele>147.22</ele>
        <time>2017-03-05T09:14:51Z</time>
      </trkpt>
      <trkpt lat="43.58984" lon="1.4216">
        <ele>147.22</ele>
        <time>2017-03-05T09:14:52Z</time>
      </trkpt>
      <trkpt lat="43.58952" lon="1.42199">
        <ele>147.22</ele>
        <time>2017-03-05T09:15:03Z</time>
      </trkpt>
      <trkpt lat="43.58921" lon="1.42251">
        <ele>147.22</ele>
        <time>2017-03-05T09:15:13Z</time>
      </trkpt>
      <trkpt lat="43.58855" lon="1.42354">
        <ele>144.82</ele>
        <time>2017-03-05T09:15:28Z</time>
      </trkpt>
      <trkpt lat="43.58838" lon="1.42387">
        <ele>143.85</ele>
        <time>2017-03-05T09:15:32Z</time>
      </trkpt>
      <trkpt lat="43.58785" lon="1.42459">
        <ele>145.78</ele>
        <time>2017-03-05T09:15:49Z</time>
      </trkpt>
      <trkpt lat="43.58743" lon="1.42526">
        <ele>147.22</ele>
        <time>2017-03-05T09:16:02Z</time>
      </trkpt>
      <trkpt lat="43.58696" lon="1.42596">
        <ele>147.22</ele>
        <time>2017-03-05T09:16:15Z</time>
      </trkpt>
      <trkpt lat="43.58692" lon="1.42601">
        <ele>147.22</ele>
        <time>2017-03-05T09:16:16Z</time>
      </trkpt>
      <trkpt lat="43.58688" lon="1.42606">
        <ele>147.22</ele>
        <time>2017-03-05T09:16:17Z</time>
      </trkpt>
      <trkpt lat="43.58681" lon="1.42617">
        <ele>147.22</ele>
        <time>2017-03-05T09:16:19Z</time>
      </trkpt>
      <trkpt lat="43.58634" lon="1.42691">
        <ele>148.18</ele>
        <time>2017-03-05T09:16:32Z</time>
      </trkpt>
      <trkpt lat="43.58577" lon="1.42782">
        <ele>148.18</ele>
        <time>2017-03-05T09:16:49Z</time>
      </trkpt>
      <trkpt lat="43.5855" lon="1.4282">
        <ele>148.18</ele>
        <time>2017-03-05T09:16:59Z</time>
      </trkpt>
      <trkpt lat="43.58547" lon="1.4282">
        <ele>148.18</ele>
        <time>2017-03-05T09:17:00Z</time>
      </trkpt>
      <trkpt lat="43.58544" lon="1.42818">
        <ele>148.18</ele>
        <time>2017-03-05T09:17:01Z</time>
      </trkpt>
      <trkpt lat="43.58541" lon="1.42815">
        <ele>148.18</ele>
        <time>2017-03-05T09:17:02Z</time>
      </trkpt>
      <trkpt lat="43.5854" lon="1.42812">
        <ele>148.18</ele>
        <time>2017-03-05T09:17:03Z</time>
      </trkpt>
      <trkpt lat="43.58539" lon="1.42809">
        <ele>148.18</ele>
        <time>2017-03-05T09:17:04Z</time>
      </trkpt>
      <trkpt lat="43.58536" lon="1.42807">
        <ele>148.18</ele>
        <time>2017-03-05T09:17:05Z</time>
      </trkpt>
      <trkpt lat="43.58533" lon="1.42805">
        <ele>148.18</ele>
        <time>2017-03-05T09:17:06Z</time>
      </trkpt>
      <trkpt lat="43.5853" lon="1.42803">
        <ele>148.18</ele>
        <time>2017-03-05T09:17:07Z</time>
      </trkpt>
      <trkpt lat="43.58527" lon="1.42801">
        <ele>148.18</ele>
        <time>2017-03-05T09:17:08Z</time>
      </trkpt>
      <trkpt lat="43.58523" lon="1.42799">
        <ele>148.18</ele>
        <time>2017-03-05T09:17:09Z</time>
      </trkpt>
      <trkpt lat="43.5852" lon="1.42798">
        <ele>148.18</ele>
        <time>2017-03-05T09:17:10Z</time>
      </trkpt>
      <trkpt lat="43.58516" lon="1.42797">
        <ele>148.18</ele>
        <time>2017-03-05T09:17:11Z</time>
      </trkpt>
      <trkpt lat="43.58513" lon="1.42798">
        <ele>148.18</ele>
        <time>2017-03-05T09:17:12Z</time>
      </trkpt>
      <trkpt lat="43.58509" lon="1.42799">
        <ele>148.18</ele>
        <time>2017-03-05T09:17:13Z</time>
      </trkpt>
      <trkpt lat="43.58493" lon="1.42827">
        <ele>148.18</ele>
        <time>2017-03-05T09:17:22Z</time>
      </trkpt>
      <trkpt lat="43.58492" lon="1.42856">
        <ele>148.18</ele>
        <time>2017-03-05T09:17:27Z</time>
      </trkpt>
      <trkpt lat="43.58491" lon="1.42862">
        <ele>148.18</ele>
        <time>2017-03-05T09:17:28Z</time>
      </trkpt>
      <trkpt lat="43.5849" lon="1.42868">
        <ele>148.18</ele>
        <time>2017-03-05T09:17:29Z</time>
      </trkpt>
      <trkpt lat="43.58488" lon="1.42875">
        <ele>148.18</ele>
        <time>2017-03-05T09:17:30Z</time>
      </trkpt>
      <trkpt lat="43.58487" lon="1.42881">
        <ele>148.18</ele>
        <time>2017-03-05T09:17:31Z</time>
      </trkpt>
      <trkpt lat="43.58471" lon="1.42983">
        <ele>150.1</ele>
        <time>2017-03-05T09:17:46Z</time>
      </trkpt>
      <trkpt lat="43.58452" lon="1.43095">
        <ele>151.06</ele>
        <time>2017-03-05T09:18:01Z</time>
      </trkpt>
      <trkpt lat="43.58441" lon="1.4316">
        <ele>151.06</ele>
        <time>2017-03-05T09:18:10Z</time>
      </trkpt>
      <trkpt lat="43.58441" lon="1.43167">
        <ele>151.06</ele>
        <time>2017-03-05T09:18:11Z</time>
      </trkpt>
      <trkpt lat="43.58441" lon="1.43174">
        <ele>151.06</ele>
        <time>2017-03-05T09:18:12Z</time>
      </trkpt>
      <trkpt lat="43.58437" lon="1.43288">
        <ele>151.06</ele>
        <time>2017-03-05T09:18:27Z</time>
      </trkpt>
      <trkpt lat="43.58436" lon="1.43296">
        <ele>151.06</ele>
        <time>2017-03-05T09:18:28Z</time>
      </trkpt>
      <trkpt lat="43.58432" lon="1.43386">
        <ele>151.06</ele>
        <time>2017-03-05T09:18:39Z</time>
      </trkpt>
      <trkpt lat="43.58428" lon="1.435">
        <ele>151.06</ele>
        <time>2017-03-05T09:18:53Z</time>
      </trkpt>
      <trkpt lat="43.58423" lon="1.43628">
        <ele>151.06</ele>
        <time>2017-03-05T09:19:09Z</time>
      </trkpt>
      <trkpt lat="43.58417" lon="1.43726">
        <ele>151.06</ele>
        <time>2017-03-05T09:19:21Z</time>
      </trkpt>
      <trkpt lat="43.58412" lon="1.43841">
        <ele>152.03</ele>
        <time>2017-03-05T09:19:35Z</time>
      </trkpt>
      <trkpt lat="43.58406" lon="1.43949">
        <ele>152.03</ele>
        <time>2017-03-05T09:19:49Z</time>
      </trkpt>
      <trkpt lat="43.58404" lon="1.43994">
        <ele>152.03</ele>
        <time>2017-03-05T09:19:57Z</time>
      </trkpt>
      <trkpt lat="43.58403" lon="1.44088">
        <ele>151.06</ele>
        <time>2017-03-05T09:20:10Z</time>
      </trkpt>
      <trkpt lat="43.58402" lon="1.4411">
        <ele>151.06</ele>
        <time>2017-03-05T09:20:13Z</time>
      </trkpt>
      <trkpt lat="43.58401" lon="1.44157">
        <ele>151.06</ele>
        <time>2017-03-05T09:20:20Z</time>
      </trkpt>
      <trkpt lat="43.584" lon="1.44169">
        <ele>151.06</ele>
        <time>2017-03-05T09:20:22Z</time>
      </trkpt>
      <trkpt lat="43.584" lon="1.44175">
        <ele>151.06</ele>
        <time>2017-03-05T09:20:23Z</time>
      </trkpt>
      <trkpt lat="43.58393" lon="1.44255">
        <ele>151.06</ele>
        <time>2017-03-05T09:20:35Z</time>
      </trkpt>
      <trkpt lat="43.58395" lon="1.44277">
        <ele>150.1</ele>
        <time>2017-03-05T09:20:39Z</time>
      </trkpt>
      <trkpt lat="43.58393" lon="1.44356">
        <ele>150.1</ele>
        <time>2017-03-05T09:20:50Z</time>
      </trkpt>
      <trkpt lat="43.58389" lon="1.44402">
        <ele>150.1</ele>
        <time>2017-03-05T09:21:00Z</time>
      </trkpt>
      <trkpt lat="43.5839" lon="1.44403">
        <ele>151.06</ele>
        <time>2017-03-05T09:21:06Z</time>
      </trkpt>
      <trkpt lat="43.5839" lon="1.44413">
        <ele>151.06</ele>
        <time>2017-03-05T09:21:30Z</time>
      </trkpt>
      <trkpt lat="43.58391" lon="1.44416">
        <ele>151.06</ele>
        <time>2017-03-05T09:21:31Z</time>
      </trkpt>
      <trkpt lat="43.58393" lon="1.4442">
        <ele>151.06</ele>
        <time>2017-03-05T09:21:32Z</time>
      </trkpt>
      <trkpt lat="43.58394" lon="1.44424">
        <ele>151.06</ele>
        <time>2017-03-05T09:21:33Z</time>
      </trkpt>
      <trkpt lat="43.58395" lon="1.4443">
        <ele>151.06</ele>
        <time>2017-03-05T09:21:34Z</time>
      </trkpt>
      <trkpt lat="43.58396" lon="1.44436">
        <ele>151.06</ele>
        <time>2017-03-05T09:21:35Z</time>
      </trkpt>
      <trkpt lat="43.58397" lon="1.44443">
        <ele>151.06</ele>
        <time>2017-03-05T09:21:36Z</time>
      </trkpt>
      <trkpt lat="43.58398" lon="1.4445">
        <ele>151.06</ele>
        <time>2017-03-05T09:21:37Z</time>
      </trkpt>
      <trkpt lat="43.58398" lon="1.44457">
        <ele>151.06</ele>
        <time>2017-03-05T09:21:38Z</time>
      </trkpt>
      <trkpt lat="43.58402" lon="1.44493">
        <ele>151.06</ele>
        <time>2017-03-05T09:21:43Z</time>
      </trkpt>
      <trkpt lat="43.58404" lon="1.445">
        <ele>150.1</ele>
        <time>2017-03-05T09:21:44Z</time>
      </trkpt>
      <trkpt lat="43.58406" lon="1.44508">
        <ele>150.1</ele>
        <time>2017-03-05T09:21:45Z</time>
      </trkpt>
      <trkpt lat="43.58407" lon="1.44515">
        <ele>150.1</ele>
        <time>2017-03-05T09:21:46Z</time>
      </trkpt>
      <trkpt lat="43.58408" lon="1.44522">
        <ele>150.1</ele>
        <time>2017-03-05T09:21:47Z</time>
      </trkpt>
      <trkpt lat="43.5841" lon="1.44529">
        <ele>150.1</ele>
        <time>2017-03-05T09:21:48Z</time>
      </trkpt>
      <trkpt lat="43.58411" lon="1.44536">
        <ele>150.1</ele>
        <time>2017-03-05T09:21:49Z</time>
      </trkpt>
      <trkpt lat="43.58412" lon="1.44559">
        <ele>150.1</ele>
        <time>2017-03-05T09:21:52Z</time>
      </trkpt>
      <trkpt lat="43.58412" lon="1.44567">
        <ele>150.1</ele>
        <time>2017-03-05T09:21:53Z</time>
      </trkpt>
      <trkpt lat="43.58424" lon="1.44671">
        <ele>150.1</ele>
        <time>2017-03-05T09:22:06Z</time>
      </trkpt>
      <trkpt lat="43.5843" lon="1.44696">
        <ele>150.1</ele>
        <time>2017-03-05T09:22:09Z</time>
      </trkpt>
      <trkpt lat="43.58431" lon="1.44704">
        <ele>150.1</ele>
        <time>2017-03-05T09:22:10Z</time>
      </trkpt>
      <trkpt lat="43.58442" lon="1.44772">
        <ele>150.1</ele>
        <time>2017-03-05T09:22:19Z</time>
      </trkpt>
      <trkpt lat="43.58441" lon="1.44779">
        <ele>150.1</ele>
        <time>2017-03-05T09:22:20Z</time>
      </trkpt>
      <trkpt lat="43.58441" lon="1.44786">
        <ele>150.1</ele>
        <time>2017-03-05T09:22:21Z</time>
      </trkpt>
      <trkpt lat="43.58441" lon="1.44794">
        <ele>150.1</ele>
        <time>2017-03-05T09:22:22Z</time>
      </trkpt>
      <trkpt lat="43.58439" lon="1.44801">
        <ele>150.1</ele>
        <time>2017-03-05T09:22:23Z</time>
      </trkpt>
      <trkpt lat="43.58438" lon="1.44809">
        <ele>150.1</ele>
        <time>2017-03-05T09:22:24Z</time>
      </trkpt>
      <trkpt lat="43.58434" lon="1.4483">
        <ele>150.1</ele>
        <time>2017-03-05T09:22:27Z</time>
      </trkpt>
      <trkpt lat="43.58428" lon="1.44854">
        <ele>150.1</ele>
        <time>2017-03-05T09:22:30Z</time>
      </trkpt>
      <trkpt lat="43.58426" lon="1.44862">
        <ele>150.1</ele>
        <time>2017-03-05T09:22:31Z</time>
      </trkpt>
      <trkpt lat="43.58405" lon="1.44943">
        <ele>150.1</ele>
        <time>2017-03-05T09:22:42Z</time>
      </trkpt>
      <trkpt lat="43.58385" lon="1.45016">
        <ele>149.14</ele>
        <time>2017-03-05T09:22:52Z</time>
      </trkpt>
      <trkpt lat="43.58381" lon="1.45031">
        <ele>149.14</ele>
        <time>2017-03-05T09:22:55Z</time>
      </trkpt>
      <trkpt lat="43.58378" lon="1.45059">
        <ele>150.1</ele>
        <time>2017-03-05T09:23:00Z</time>
      </trkpt>
      <trkpt lat="43.58378" lon="1.45066">
        <ele>150.1</ele>
        <time>2017-03-05T09:23:01Z</time>
      </trkpt>
      <trkpt lat="43.58377" lon="1.45082">
        <ele>150.1</ele>
        <time>2017-03-05T09:23:03Z</time>
      </trkpt>
      <trkpt lat="43.58379" lon="1.45089">
        <ele>150.1</ele>
        <time>2017-03-05T09:23:04Z</time>
      </trkpt>
      <trkpt lat="43.58381" lon="1.45096">
        <ele>150.1</ele>
        <time>2017-03-05T09:23:05Z</time>
      </trkpt>
      <trkpt lat="43.58381" lon="1.4511">
        <ele>150.1</ele>
        <time>2017-03-05T09:23:07Z</time>
      </trkpt>
      <trkpt lat="43.58383" lon="1.45124">
        <ele>150.1</ele>
        <time>2017-03-05T09:23:09Z</time>
      </trkpt>
      <trkpt lat="43.58386" lon="1.4515">
        <ele>151.06</ele>
        <time>2017-03-05T09:23:13Z</time>
      </trkpt>
      <trkpt lat="43.58391" lon="1.45163">
        <ele>151.06</ele>
        <time>2017-03-05T09:23:15Z</time>
      </trkpt>
      <trkpt lat="43.58394" lon="1.4517">
        <ele>151.06</ele>
        <time>2017-03-05T09:23:16Z</time>
      </trkpt>
      <trkpt lat="43.58402" lon="1.45189">
        <ele>150.1</ele>
        <time>2017-03-05T09:23:19Z</time>
      </trkpt>
      <trkpt lat="43.58403" lon="1.45195">
        <ele>150.1</ele>
        <time>2017-03-05T09:23:20Z</time>
      </trkpt>
      <trkpt lat="43.58412" lon="1.45217">
        <ele>150.1</ele>
        <time>2017-03-05T09:23:23Z</time>
      </trkpt>
      <trkpt lat="43.58415" lon="1.45224">
        <ele>150.1</ele>
        <time>2017-03-05T09:23:24Z</time>
      </trkpt>
      <trkpt lat="43.58417" lon="1.45231">
        <ele>150.1</ele>
        <time>2017-03-05T09:23:25Z</time>
      </trkpt>
      <trkpt lat="43.58421" lon="1.45239">
        <ele>150.1</ele>
        <time>2017-03-05T09:23:26Z</time>
      </trkpt>
      <trkpt lat="43.58423" lon="1.45246">
        <ele>150.1</ele>
        <time>2017-03-05T09:23:27Z</time>
      </trkpt>
      <trkpt lat="43.58434" lon="1.45263">
        <ele>150.1</ele>
        <time>2017-03-05T09:23:29Z</time>
      </trkpt>
      <trkpt lat="43.58438" lon="1.45271">
        <ele>150.1</ele>
        <time>2017-03-05T09:23:30Z</time>
      </trkpt>
      <trkpt lat="43.58442" lon="1.45278">
        <ele>150.1</ele>
        <time>2017-03-05T09:23:31Z</time>
      </trkpt>
      <trkpt lat="43.58463" lon="1.4533">
        <ele>150.1</ele>
        <time>2017-03-05T09:23:38Z</time>
      </trkpt>
      <trkpt lat="43.58465" lon="1.45337">
        <ele>150.1</ele>
        <time>2017-03-05T09:23:39Z</time>
      </trkpt>
      <trkpt lat="43.58481" lon="1.45381">
        <ele>150.1</ele>
        <time>2017-03-05T09:23:45Z</time>
      </trkpt>
      <trkpt lat="43.58492" lon="1.45405">
        <ele>150.1</ele>
        <time>2017-03-05T09:23:49Z</time>
      </trkpt>
      <trkpt lat="43.58494" lon="1.45411">
        <ele>150.1</ele>
        <time>2017-03-05T09:23:50Z</time>
      </trkpt>
      <trkpt lat="43.58497" lon="1.45417">
        <ele>150.1</ele>
        <time>2017-03-05T09:23:51Z</time>
      </trkpt>
      <trkpt lat="43.58509" lon="1.45441">
        <ele>150.1</ele>
        <time>2017-03-05T09:23:58Z</time>
      </trkpt>
      <trkpt lat="43.58517" lon="1.45446">
        <ele>150.1</ele>
        <time>2017-03-05T09:23:59Z</time>
      </trkpt>
      <trkpt lat="43.5852" lon="1.4545">
        <ele>150.1</ele>
        <time>2017-03-05T09:24:00Z</time>
      </trkpt>
      <trkpt lat="43.58543" lon="1.45502">
        <ele>150.1</ele>
        <time>2017-03-05T09:24:10Z</time>
      </trkpt>
      <trkpt lat="43.58544" lon="1.45508">
        <ele>150.1</ele>
        <time>2017-03-05T09:24:11Z</time>
      </trkpt>
      <trkpt lat="43.58546" lon="1.45514">
        <ele>150.1</ele>
        <time>2017-03-05T09:24:12Z</time>
      </trkpt>
      <trkpt lat="43.58557" lon="1.45544">
        <ele>150.1</ele>
        <time>2017-03-05T09:24:16Z</time>
      </trkpt>
      <trkpt lat="43.58573" lon="1.45581">
        <ele>150.1</ele>
        <time>2017-03-05T09:24:21Z</time>
      </trkpt>
      <trkpt lat="43.58579" lon="1.45596">
        <ele>150.1</ele>
        <time>2017-03-05T09:24:23Z</time>
      </trkpt>
      <trkpt lat="43.58602" lon="1.45654">
        <ele>150.1</ele>
        <time>2017-03-05T09:24:31Z</time>
      </trkpt>
      <trkpt lat="43.58608" lon="1.45675">
        <ele>150.1</ele>
        <time>2017-03-05T09:24:34Z</time>
      </trkpt>
      <trkpt lat="43.58611" lon="1.45688">
        <ele>150.1</ele>
        <time>2017-03-05T09:24:36Z</time>
      </trkpt>
      <trkpt lat="43.58618" lon="1.45705">
        <ele>151.06</ele>
        <time>2017-03-05T09:24:39Z</time>
      </trkpt>
      <trkpt lat="43.58622" lon="1.45712">
        <ele>151.06</ele>
        <time>2017-03-05T09:24:40Z</time>
      </trkpt>
      <trkpt lat="43.58627" lon="1.45725">
        <ele>151.06</ele>
        <time>2017-03-05T09:24:42Z</time>
      </trkpt>
      <trkpt lat="43.58629" lon="1.45731">
        <ele>151.06</ele>
        <time>2017-03-05T09:24:43Z</time>
      </trkpt>
      <trkpt lat="43.58633" lon="1.45738">
        <ele>151.06</ele>
        <time>2017-03-05T09:24:44Z</time>
      </trkpt>
      <trkpt lat="43.58644" lon="1.45764">
        <ele>151.06</ele>
        <time>2017-03-05T09:24:48Z</time>
      </trkpt>
      <trkpt lat="43.58655" lon="1.45797">
        <ele>151.06</ele>
        <time>2017-03-05T09:24:53Z</time>
      </trkpt>
      <trkpt lat="43.58658" lon="1.45803">
        <ele>152.03</ele>
        <time>2017-03-05T09:24:54Z</time>
      </trkpt>
      <trkpt lat="43.58661" lon="1.4581">
        <ele>152.03</ele>
        <time>2017-03-05T09:24:55Z</time>
      </trkpt>
      <trkpt lat="43.58665" lon="1.45817">
        <ele>152.03</ele>
        <time>2017-03-05T09:24:56Z</time>
      </trkpt>
      <trkpt lat="43.58668" lon="1.45824">
        <ele>152.03</ele>
        <time>2017-03-05T09:24:57Z</time>
      </trkpt>
      <trkpt lat="43.58688" lon="1.45866">
        <ele>152.03</ele>
        <time>2017-03-05T09:25:03Z</time>
      </trkpt>
      <trkpt lat="43.58691" lon="1.45873">
        <ele>152.03</ele>
        <time>2017-03-05T09:25:04Z</time>
      </trkpt>
      <trkpt lat="43.58702" lon="1.45899">
        <ele>152.99</ele>
        <time>2017-03-05T09:25:08Z</time>
      </trkpt>
      <trkpt lat="43.5871" lon="1.45918">
        <ele>152.99</ele>
        <time>2017-03-05T09:25:11Z</time>
      </trkpt>
      <trkpt lat="43.58736" lon="1.45975">
        <ele>153.95</ele>
        <time>2017-03-05T09:25:20Z</time>
      </trkpt>
      <trkpt lat="43.58738" lon="1.45981">
        <ele>153.95</ele>
        <time>2017-03-05T09:25:21Z</time>
      </trkpt>
      <trkpt lat="43.5874" lon="1.45987">
        <ele>153.95</ele>
        <time>2017-03-05T09:25:22Z</time>
      </trkpt>
      <trkpt lat="43.58743" lon="1.45991">
        <ele>153.95</ele>
        <time>2017-03-05T09:25:23Z</time>
      </trkpt>
      <trkpt lat="43.58746" lon="1.45995">
        <ele>153.95</ele>
        <time>2017-03-05T09:25:24Z</time>
      </trkpt>
      <trkpt lat="43.58748" lon="1.45998">
        <ele>153.95</ele>
        <time>2017-03-05T09:25:25Z</time>
      </trkpt>
      <trkpt lat="43.5875" lon="1.46001">
        <ele>153.95</ele>
        <time>2017-03-05T09:25:26Z</time>
      </trkpt>
      <trkpt lat="43.58754" lon="1.46006">
        <ele>153.95</ele>
        <time>2017-03-05T09:25:29Z</time>
      </trkpt>
      <trkpt lat="43.58755" lon="1.46005">
        <ele>154.91</ele>
        <time>2017-03-05T09:25:30Z</time>
      </trkpt>
      <trkpt lat="43.58759" lon="1.45999">
        <ele>155.87</ele>
        <time>2017-03-05T09:25:37Z</time>
      </trkpt>
      <trkpt lat="43.58766" lon="1.45995">
        <ele>156.83</ele>
        <time>2017-03-05T09:25:44Z</time>
      </trkpt>
      <trkpt lat="43.58778" lon="1.45986">
        <ele>156.83</ele>
        <time>2017-03-05T09:25:50Z</time>
      </trkpt>
      <trkpt lat="43.588" lon="1.45961">
        <ele>156.83</ele>
        <time>2017-03-05T09:25:56Z</time>
      </trkpt>
      <trkpt lat="43.58849" lon="1.4585">
        <ele>154.91</ele>
        <time>2017-03-05T09:26:10Z</time>
      </trkpt>
      <trkpt lat="43.58895" lon="1.45743">
        <ele>152.99</ele>
        <time>2017-03-05T09:26:23Z</time>
      </trkpt>
      <trkpt lat="43.58944" lon="1.45629">
        <ele>152.03</ele>
        <time>2017-03-05T09:26:37Z</time>
      </trkpt>
      <trkpt lat="43.58948" lon="1.45622">
        <ele>152.03</ele>
        <time>2017-03-05T09:26:38Z</time>
      </trkpt>
      <trkpt lat="43.58952" lon="1.45614">
        <ele>152.03</ele>
        <time>2017-03-05T09:26:39Z</time>
      </trkpt>
      <trkpt lat="43.58955" lon="1.45605">
        <ele>152.03</ele>
        <time>2017-03-05T09:26:40Z</time>
      </trkpt>
      <trkpt lat="43.58961" lon="1.45591">
        <ele>152.03</ele>
        <time>2017-03-05T09:26:42Z</time>
      </trkpt>
      <trkpt lat="43.58964" lon="1.45584">
        <ele>152.03</ele>
        <time>2017-03-05T09:26:43Z</time>
      </trkpt>
      <trkpt lat="43.58989" lon="1.45524">
        <ele>152.03</ele>
        <time>2017-03-05T09:26:51Z</time>
      </trkpt>
      <trkpt lat="43.59036" lon="1.45417">
        <ele>151.06</ele>
        <time>2017-03-05T09:27:05Z</time>
      </trkpt>
      <trkpt lat="43.59056" lon="1.45373">
        <ele>151.06</ele>
        <time>2017-03-05T09:27:11Z</time>
      </trkpt>
      <trkpt lat="43.59059" lon="1.45366">
        <ele>151.06</ele>
        <time>2017-03-05T09:27:12Z</time>
      </trkpt>
      <trkpt lat="43.59062" lon="1.45359">
        <ele>151.06</ele>
        <time>2017-03-05T09:27:13Z</time>
      </trkpt>
      <trkpt lat="43.59066" lon="1.45353">
        <ele>151.06</ele>
        <time>2017-03-05T09:27:14Z</time>
      </trkpt>
      <trkpt lat="43.59072" lon="1.4535">
        <ele>151.06</ele>
        <time>2017-03-05T09:27:15Z</time>
      </trkpt>
      <trkpt lat="43.59078" lon="1.45347">
        <ele>151.06</ele>
        <time>2017-03-05T09:27:16Z</time>
      </trkpt>
      <trkpt lat="43.59084" lon="1.45347">
        <ele>151.06</ele>
        <time>2017-03-05T09:27:17Z</time>
      </trkpt>
      <trkpt lat="43.5909" lon="1.45347">
        <ele>151.06</ele>
        <time>2017-03-05T09:27:18Z</time>
      </trkpt>
      <trkpt lat="43.59183" lon="1.45337">
        <ele>151.06</ele>
        <time>2017-03-05T09:27:33Z</time>
      </trkpt>
      <trkpt lat="43.59261" lon="1.45323">
        <ele>151.06</ele>
        <time>2017-03-05T09:27:46Z</time>
      </trkpt>
      <trkpt lat="43.59345" lon="1.45305">
        <ele>151.06</ele>
        <time>2017-03-05T09:28:00Z</time>
      </trkpt>
      <trkpt lat="43.59357" lon="1.45304">
        <ele>151.06</ele>
        <time>2017-03-05T09:28:02Z</time>
      </trkpt>
      <trkpt lat="43.59364" lon="1.45304">
        <ele>151.06</ele>
        <time>2017-03-05T09:28:03Z</time>
      </trkpt>
      <trkpt lat="43.59434" lon="1.45293">
        <ele>152.03</ele>
        <time>2017-03-05T09:28:15Z</time>
      </trkpt>
      <trkpt lat="43.5947" lon="1.45286">
        <ele>152.03</ele>
        <time>2017-03-05T09:28:22Z</time>
      </trkpt>
      <trkpt lat="43.59474" lon="1.45292">
        <ele>152.03</ele>
        <time>2017-03-05T09:28:23Z</time>
      </trkpt>
      <trkpt lat="43.59478" lon="1.45299">
        <ele>152.03</ele>
        <time>2017-03-05T09:28:24Z</time>
      </trkpt>
      <trkpt lat="43.5948" lon="1.45307">
        <ele>152.03</ele>
        <time>2017-03-05T09:28:25Z</time>
      </trkpt>
      <trkpt lat="43.59481" lon="1.45316">
        <ele>152.03</ele>
        <time>2017-03-05T09:28:26Z</time>
      </trkpt>
      <trkpt lat="43.59482" lon="1.45324">
        <ele>152.03</ele>
        <time>2017-03-05T09:28:27Z</time>
      </trkpt>
      <trkpt lat="43.59484" lon="1.45332">
        <ele>152.03</ele>
        <time>2017-03-05T09:28:28Z</time>
      </trkpt>
      <trkpt lat="43.59489" lon="1.45348">
        <ele>152.03</ele>
        <time>2017-03-05T09:28:30Z</time>
      </trkpt>
      <trkpt lat="43.59493" lon="1.45355">
        <ele>152.03</ele>
        <time>2017-03-05T09:28:31Z</time>
      </trkpt>
      <trkpt lat="43.59502" lon="1.45367">
        <ele>152.03</ele>
        <time>2017-03-05T09:28:33Z</time>
      </trkpt>
      <trkpt lat="43.59506" lon="1.45372">
        <ele>152.03</ele>
        <time>2017-03-05T09:28:34Z</time>
      </trkpt>
      <trkpt lat="43.59511" lon="1.45377">
        <ele>152.03</ele>
        <time>2017-03-05T09:28:35Z</time>
      </trkpt>
      <trkpt lat="43.59542" lon="1.454">
        <ele>152.03</ele>
        <time>2017-03-05T09:28:41Z</time>
      </trkpt>
      <trkpt lat="43.59548" lon="1.45402">
        <ele>152.03</ele>
        <time>2017-03-05T09:28:42Z</time>
      </trkpt>
      <trkpt lat="43.59554" lon="1.45403">
        <ele>152.03</ele>
        <time>2017-03-05T09:28:43Z</time>
      </trkpt>
      <trkpt lat="43.5956" lon="1.45404">
        <ele>152.03</ele>
        <time>2017-03-05T09:28:44Z</time>
      </trkpt>
      <trkpt lat="43.59566" lon="1.45404">
        <ele>152.03</ele>
        <time>2017-03-05T09:28:45Z</time>
      </trkpt>
      <trkpt lat="43.5959" lon="1.45399">
        <ele>152.03</ele>
        <time>2017-03-05T09:28:49Z</time>
      </trkpt>
      <trkpt lat="43.59606" lon="1.45393">
        <ele>152.99</ele>
        <time>2017-03-05T09:28:52Z</time>
      </trkpt>
      <trkpt lat="43.59611" lon="1.45393">
        <ele>152.99</ele>
        <time>2017-03-05T09:28:53Z</time>
      </trkpt>
      <trkpt lat="43.59615" lon="1.45396">
        <ele>152.99</ele>
        <time>2017-03-05T09:28:54Z</time>
      </trkpt>
      <trkpt lat="43.59618" lon="1.45401">
        <ele>152.99</ele>
        <time>2017-03-05T09:28:55Z</time>
      </trkpt>
      <trkpt lat="43.5962" lon="1.45407">
        <ele>152.99</ele>
        <time>2017-03-05T09:28:56Z</time>
      </trkpt>
      <trkpt lat="43.59622" lon="1.45414">
        <ele>152.99</ele>
        <time>2017-03-05T09:28:57Z</time>
      </trkpt>
      <trkpt lat="43.59629" lon="1.45452">
        <ele>152.99</ele>
        <time>2017-03-05T09:29:02Z</time>
      </trkpt>
      <trkpt lat="43.59631" lon="1.45459">
        <ele>152.99</ele>
        <time>2017-03-05T09:29:03Z</time>
      </trkpt>
      <trkpt lat="43.59636" lon="1.45473">
        <ele>152.99</ele>
        <time>2017-03-05T09:29:05Z</time>
      </trkpt>
      <trkpt lat="43.59643" lon="1.45495">
        <ele>152.99</ele>
        <time>2017-03-05T09:29:08Z</time>
      </trkpt>
      <trkpt lat="43.59644" lon="1.45501">
        <ele>152.99</ele>
        <time>2017-03-05T09:29:09Z</time>
      </trkpt>
      <trkpt lat="43.59654" lon="1.45544">
        <ele>152.99</ele>
        <time>2017-03-05T09:29:15Z</time>
      </trkpt>
      <trkpt lat="43.59662" lon="1.45565">
        <ele>152.99</ele>
        <time>2017-03-05T09:29:18Z</time>
      </trkpt>
      <trkpt lat="43.59665" lon="1.45572">
        <ele>152.99</ele>
        <time>2017-03-05T09:29:19Z</time>
      </trkpt>
      <trkpt lat="43.59672" lon="1.45578">
        <ele>153.95</ele>
        <time>2017-03-05T09:29:20Z</time>
      </trkpt>
      <trkpt lat="43.59678" lon="1.45583">
        <ele>153.95</ele>
        <time>2017-03-05T09:29:21Z</time>
      </trkpt>
      <trkpt lat="43.59684" lon="1.45586">
        <ele>153.95</ele>
        <time>2017-03-05T09:29:22Z</time>
      </trkpt>
      <trkpt lat="43.5969" lon="1.45588">
        <ele>153.95</ele>
        <time>2017-03-05T09:29:23Z</time>
      </trkpt>
      <trkpt lat="43.59697" lon="1.45589">
        <ele>153.95</ele>
        <time>2017-03-05T09:29:24Z</time>
      </trkpt>
      <trkpt lat="43.59704" lon="1.4559">
        <ele>153.95</ele>
        <time>2017-03-05T09:29:25Z</time>
      </trkpt>
      <trkpt lat="43.5971" lon="1.45592">
        <ele>153.95</ele>
        <time>2017-03-05T09:29:26Z</time>
      </trkpt>
      <trkpt lat="43.59728" lon="1.45597">
        <ele>153.95</ele>
        <time>2017-03-05T09:29:29Z</time>
      </trkpt>
      <trkpt lat="43.59734" lon="1.45597">
        <ele>153.95</ele>
        <time>2017-03-05T09:29:30Z</time>
      </trkpt>
      <trkpt lat="43.59741" lon="1.45596">
        <ele>153.95</ele>
        <time>2017-03-05T09:29:31Z</time>
      </trkpt>
      <trkpt lat="43.5975" lon="1.45592">
        <ele>153.95</ele>
        <time>2017-03-05T09:29:32Z</time>
      </trkpt>
      <trkpt lat="43.59757" lon="1.45591">
        <ele>153.95</ele>
        <time>2017-03-05T09:29:33Z</time>
      </trkpt>
      <trkpt lat="43.5978" lon="1.4559">
        <ele>153.95</ele>
        <time>2017-03-05T09:29:37Z</time>
      </trkpt>
      <trkpt lat="43.59841" lon="1.45596">
        <ele>155.87</ele>
        <time>2017-03-05T09:29:50Z</time>
      </trkpt>
      <trkpt lat="43.59856" lon="1.45598">
        <ele>156.83</ele>
        <time>2017-03-05T09:29:54Z</time>
      </trkpt>
      <trkpt lat="43.59851" lon="1.45612">
        <ele>156.83</ele>
        <time>2017-03-05T09:29:55Z</time>
      </trkpt>
      <trkpt lat="43.59851" lon="1.45626">
        <ele>156.83</ele>
        <time>2017-03-05T09:29:57Z</time>
      </trkpt>
      <trkpt lat="43.5985" lon="1.45631">
        <ele>157.79</ele>
        <time>2017-03-05T09:29:58Z</time>
      </trkpt>
      <trkpt lat="43.59849" lon="1.45637">
        <ele>157.79</ele>
        <time>2017-03-05T09:29:59Z</time>
      </trkpt>
      <trkpt lat="43.59847" lon="1.45642">
        <ele>157.79</ele>
        <time>2017-03-05T09:30:00Z</time>
      </trkpt>
      <trkpt lat="43.59845" lon="1.45647">
        <ele>157.79</ele>
        <time>2017-03-05T09:30:01Z</time>
      </trkpt>
      <trkpt lat="43.5984" lon="1.45661">
        <ele>159.24</ele>
        <time>2017-03-05T09:30:10Z</time>
      </trkpt>
      <trkpt lat="43.59836" lon="1.45674">
        <ele>159.24</ele>
        <time>2017-03-05T09:30:16Z</time>
      </trkpt>
      <trkpt lat="43.59832" lon="1.45709">
        <ele>159.24</ele>
        <time>2017-03-05T09:30:24Z</time>
      </trkpt>
      <trkpt lat="43.59811" lon="1.45749">
        <ele>159.24</ele>
        <time>2017-03-05T09:30:34Z</time>
      </trkpt>
      <trkpt lat="43.59794" lon="1.45796">
        <ele>161.16</ele>
        <time>2017-03-05T09:30:44Z</time>
      </trkpt>
      <trkpt lat="43.59769" lon="1.45859">
        <ele>163.08</ele>
        <time>2017-03-05T09:30:56Z</time>
      </trkpt>
      <trkpt lat="43.59746" lon="1.4592">
        <ele>163.08</ele>
        <time>2017-03-05T09:31:06Z</time>
      </trkpt>
      <trkpt lat="43.59714" lon="1.46006">
        <ele>165</ele>
        <time>2017-03-05T09:31:22Z</time>
      </trkpt>
      <trkpt lat="43.59689" lon="1.46075">
        <ele>167.89</ele>
        <time>2017-03-05T09:31:37Z</time>
      </trkpt>
      <trkpt lat="43.59664" lon="1.46137">
        <ele>169.81</ele>
        <time>2017-03-05T09:31:51Z</time>
      </trkpt>
      <trkpt lat="43.59638" lon="1.46214">
        <ele>173.17</ele>
        <time>2017-03-05T09:32:08Z</time>
      </trkpt>
      <trkpt lat="43.59623" lon="1.46261">
        <ele>175.1</ele>
        <time>2017-03-05T09:32:19Z</time>
      </trkpt>
      <trkpt lat="43.596" lon="1.46321">
        <ele>177.02</ele>
        <time>2017-03-05T09:32:32Z</time>
      </trkpt>
      <trkpt lat="43.5957" lon="1.46374">
        <ele>178.94</ele>
        <time>2017-03-05T09:32:46Z</time>
      </trkpt>
      <trkpt lat="43.59563" lon="1.46383">
        <ele>178.94</ele>
        <time>2017-03-05T09:32:56Z</time>
      </trkpt>
      <trkpt lat="43.5956" lon="1.46393">
        <ele>178.94</ele>
        <time>2017-03-05T09:33:14Z</time>
      </trkpt>
      <trkpt lat="43.59561" lon="1.46395">
        <ele>178.94</ele>
        <time>2017-03-05T09:33:15Z</time>
      </trkpt>
      <trkpt lat="43.59562" lon="1.46397">
        <ele>178.94</ele>
        <time>2017-03-05T09:33:16Z</time>
      </trkpt>
      <trkpt lat="43.59564" lon="1.46399">
        <ele>178.94</ele>
        <time>2017-03-05T09:33:17Z</time>
      </trkpt>
      <trkpt lat="43.59585" lon="1.46439">
        <ele>179.9</ele>
        <time>2017-03-05T09:33:30Z</time>
      </trkpt>
      <trkpt lat="43.59617" lon="1.46487">
        <ele>180.87</ele>
        <time>2017-03-05T09:33:42Z</time>
      </trkpt>
      <trkpt lat="43.59625" lon="1.46501">
        <ele>180.87</ele>
        <time>2017-03-05T09:33:45Z</time>
      </trkpt>
      <trkpt lat="43.59651" lon="1.46556">
        <ele>181.83</ele>
        <time>2017-03-05T09:33:57Z</time>
      </trkpt>
      <trkpt lat="43.5965" lon="1.46559">
        <ele>181.83</ele>
        <time>2017-03-05T09:33:58Z</time>
      </trkpt>
      <trkpt lat="43.59648" lon="1.46561">
        <ele>181.83</ele>
        <time>2017-03-05T09:33:59Z</time>
      </trkpt>
      <trkpt lat="43.59635" lon="1.46568">
        <ele>181.83</ele>
        <time>2017-03-05T09:34:03Z</time>
      </trkpt>
      <trkpt lat="43.59598" lon="1.466">
        <ele>181.83</ele>
        <time>2017-03-05T09:34:16Z</time>
      </trkpt>
      <trkpt lat="43.59559" lon="1.46635">
        <ele>181.83</ele>
        <time>2017-03-05T09:34:30Z</time>
      </trkpt>
      <trkpt lat="43.59511" lon="1.46674">
        <ele>181.83</ele>
        <time>2017-03-05T09:34:44Z</time>
      </trkpt>
      <trkpt lat="43.59481" lon="1.46697">
        <ele>181.83</ele>
        <time>2017-03-05T09:34:55Z</time>
      </trkpt>
      <trkpt lat="43.59479" lon="1.467">
        <ele>181.83</ele>
        <time>2017-03-05T09:34:56Z</time>
      </trkpt>
      <trkpt lat="43.59479" lon="1.46703">
        <ele>181.83</ele>
        <time>2017-03-05T09:34:57Z</time>
      </trkpt>
      <trkpt lat="43.59475" lon="1.46726">
        <ele>180.87</ele>
        <time>2017-03-05T09:35:03Z</time>
      </trkpt>
      <trkpt lat="43.59464" lon="1.46768">
        <ele>180.87</ele>
        <time>2017-03-05T09:35:11Z</time>
      </trkpt>
      <trkpt lat="43.59441" lon="1.46834">
        <ele>181.83</ele>
        <time>2017-03-05T09:35:23Z</time>
      </trkpt>
      <trkpt lat="43.59417" lon="1.46924">
        <ele>184.23</ele>
        <time>2017-03-05T09:35:39Z</time>
      </trkpt>
      <trkpt lat="43.59417" lon="1.46929">
        <ele>184.23</ele>
        <time>2017-03-05T09:35:40Z</time>
      </trkpt>
      <trkpt lat="43.59416" lon="1.46936">
        <ele>184.23</ele>
        <time>2017-03-05T09:35:41Z</time>
      </trkpt>
      <trkpt lat="43.5941" lon="1.46975">
        <ele>184.23</ele>
        <time>2017-03-05T09:35:47Z</time>
      </trkpt>
      <trkpt lat="43.59408" lon="1.46987">
        <ele>184.23</ele>
        <time>2017-03-05T09:35:49Z</time>
      </trkpt>
      <trkpt lat="43.59407" lon="1.46994">
        <ele>184.23</ele>
        <time>2017-03-05T09:35:50Z</time>
      </trkpt>
      <trkpt lat="43.59405" lon="1.47">
        <ele>184.23</ele>
        <time>2017-03-05T09:35:51Z</time>
      </trkpt>
      <trkpt lat="43.59405" lon="1.47006">
        <ele>184.23</ele>
        <time>2017-03-05T09:35:52Z</time>
      </trkpt>
      <trkpt lat="43.59404" lon="1.47012">
        <ele>184.23</ele>
        <time>2017-03-05T09:35:53Z</time>
      </trkpt>
      <trkpt lat="43.59401" lon="1.47035">
        <ele>185.19</ele>
        <time>2017-03-05T09:35:57Z</time>
      </trkpt>
      <trkpt lat="43.59395" lon="1.47072">
        <ele>186.15</ele>
        <time>2017-03-05T09:36:03Z</time>
      </trkpt>
      <trkpt lat="43.59395" lon="1.47078">
        <ele>186.15</ele>
        <time>2017-03-05T09:36:04Z</time>
      </trkpt>
      <trkpt lat="43.59388" lon="1.47107">
        <ele>186.15</ele>
        <time>2017-03-05T09:36:09Z</time>
      </trkpt>
      <trkpt lat="43.59376" lon="1.47204">
        <ele>188.08</ele>
        <time>2017-03-05T09:36:25Z</time>
      </trkpt>
      <trkpt lat="43.59362" lon="1.47281">
        <ele>189.04</ele>
        <time>2017-03-05T09:36:40Z</time>
      </trkpt>
      <trkpt lat="43.59343" lon="1.47364">
        <ele>190</ele>
        <time>2017-03-05T09:36:55Z</time>
      </trkpt>
      <trkpt lat="43.59317" lon="1.47445">
        <ele>191.92</ele>
        <time>2017-03-05T09:37:12Z</time>
      </trkpt>
      <trkpt lat="43.59306" lon="1.47465">
        <ele>192.88</ele>
        <time>2017-03-05T09:37:19Z</time>
      </trkpt>
      <trkpt lat="43.59304" lon="1.47462">
        <ele>192.88</ele>
        <time>2017-03-05T09:37:20Z</time>
      </trkpt>
      <trkpt lat="43.59302" lon="1.47457">
        <ele>192.88</ele>
        <time>2017-03-05T09:37:21Z</time>
      </trkpt>
      <trkpt lat="43.593" lon="1.47452">
        <ele>192.88</ele>
        <time>2017-03-05T09:37:22Z</time>
      </trkpt>
      <trkpt lat="43.593" lon="1.47447">
        <ele>192.88</ele>
        <time>2017-03-05T09:37:23Z</time>
      </trkpt>
      <trkpt lat="43.59299" lon="1.47442">
        <ele>193.84</ele>
        <time>2017-03-05T09:37:24Z</time>
      </trkpt>
      <trkpt lat="43.59297" lon="1.47436">
        <ele>193.84</ele>
        <time>2017-03-05T09:37:25Z</time>
      </trkpt>
      <trkpt lat="43.59295" lon="1.47431">
        <ele>193.84</ele>
        <time>2017-03-05T09:37:26Z</time>
      </trkpt>
      <trkpt lat="43.59293" lon="1.47426">
        <ele>193.84</ele>
        <time>2017-03-05T09:37:27Z</time>
      </trkpt>
      <trkpt lat="43.59288" lon="1.47421">
        <ele>193.84</ele>
        <time>2017-03-05T09:37:28Z</time>
      </trkpt>
      <trkpt lat="43.59284" lon="1.47417">
        <ele>193.84</ele>
        <time>2017-03-05T09:37:29Z</time>
      </trkpt>
      <trkpt lat="43.59279" lon="1.47413">
        <ele>193.84</ele>
        <time>2017-03-05T09:37:30Z</time>
      </trkpt>
      <trkpt lat="43.59274" lon="1.4741">
        <ele>193.84</ele>
        <time>2017-03-05T09:37:31Z</time>
      </trkpt>
      <trkpt lat="43.59226" lon="1.47378">
        <ele>192.88</ele>
        <time>2017-03-05T09:37:40Z</time>
      </trkpt>
      <trkpt lat="43.59165" lon="1.47344">
        <ele>190</ele>
        <time>2017-03-05T09:37:51Z</time>
      </trkpt>
      <trkpt lat="43.59161" lon="1.47345">
        <ele>190</ele>
        <time>2017-03-05T09:37:52Z</time>
      </trkpt>
      <trkpt lat="43.59158" lon="1.4735">
        <ele>189.04</ele>
        <time>2017-03-05T09:37:53Z</time>
      </trkpt>
      <trkpt lat="43.59156" lon="1.47356">
        <ele>189.04</ele>
        <time>2017-03-05T09:37:54Z</time>
      </trkpt>
      <trkpt lat="43.59155" lon="1.47362">
        <ele>189.04</ele>
        <time>2017-03-05T09:37:55Z</time>
      </trkpt>
      <trkpt lat="43.59154" lon="1.47367">
        <ele>189.04</ele>
        <time>2017-03-05T09:37:56Z</time>
      </trkpt>
      <trkpt lat="43.59139" lon="1.4742">
        <ele>188.08</ele>
        <time>2017-03-05T09:38:06Z</time>
      </trkpt>
      <trkpt lat="43.59137" lon="1.47425">
        <ele>188.08</ele>
        <time>2017-03-05T09:38:07Z</time>
      </trkpt>
      <trkpt lat="43.59131" lon="1.47441">
        <ele>188.08</ele>
        <time>2017-03-05T09:38:10Z</time>
      </trkpt>
      <trkpt lat="43.59129" lon="1.47446">
        <ele>189.04</ele>
        <time>2017-03-05T09:38:11Z</time>
      </trkpt>
      <trkpt lat="43.59127" lon="1.47451">
        <ele>189.04</ele>
        <time>2017-03-05T09:38:12Z</time>
      </trkpt>
      <trkpt lat="43.59114" lon="1.47509">
        <ele>190</ele>
        <time>2017-03-05T09:38:25Z</time>
      </trkpt>
      <trkpt lat="43.59089" lon="1.47575">
        <ele>192.88</ele>
        <time>2017-03-05T09:38:42Z</time>
      </trkpt>
      <trkpt lat="43.59085" lon="1.47576">
        <ele>192.88</ele>
        <time>2017-03-05T09:38:43Z</time>
      </trkpt>
      <trkpt lat="43.59081" lon="1.47576">
        <ele>192.88</ele>
        <time>2017-03-05T09:38:44Z</time>
      </trkpt>
      <trkpt lat="43.59076" lon="1.47575">
        <ele>193.84</ele>
        <time>2017-03-05T09:38:45Z</time>
      </trkpt>
      <trkpt lat="43.59072" lon="1.47572">
        <ele>193.84</ele>
        <time>2017-03-05T09:38:46Z</time>
      </trkpt>
      <trkpt lat="43.59068" lon="1.47568">
        <ele>193.84</ele>
        <time>2017-03-05T09:38:47Z</time>
      </trkpt>
      <trkpt lat="43.59024" lon="1.47543">
        <ele>192.88</ele>
        <time>2017-03-05T09:38:59Z</time>
      </trkpt>
      <trkpt lat="43.59024" lon="1.47545">
        <ele>191.92</ele>
        <time>2017-03-05T09:39:00Z</time>
      </trkpt>
      <trkpt lat="43.59024" lon="1.47548">
        <ele>191.92</ele>
        <time>2017-03-05T09:39:01Z</time>
      </trkpt>
      <trkpt lat="43.59023" lon="1.47551">
        <ele>191.92</ele>
        <time>2017-03-05T09:39:02Z</time>
      </trkpt>
      <trkpt lat="43.59023" lon="1.47556">
        <ele>191.92</ele>
        <time>2017-03-05T09:39:03Z</time>
      </trkpt>
      <trkpt lat="43.59005" lon="1.47615">
        <ele>191.92</ele>
        <time>2017-03-05T09:39:16Z</time>
      </trkpt>
      <trkpt lat="43.58982" lon="1.47666">
        <ele>193.84</ele>
        <time>2017-03-05T09:39:30Z</time>
      </trkpt>
      <trkpt lat="43.58975" lon="1.47682">
        <ele>195.77</ele>
        <time>2017-03-05T09:39:41Z</time>
      </trkpt>
      <trkpt lat="43.58953" lon="1.47677">
        <ele>199.13</ele>
        <time>2017-03-05T09:40:44Z</time>
      </trkpt>
      <trkpt lat="43.58953" lon="1.47676">
        <ele>199.13</ele>
        <time>2017-03-05T09:40:48Z</time>
      </trkpt>
      <trkpt lat="43.58954" lon="1.47681">
        <ele>199.13</ele>
        <time>2017-03-05T09:41:08Z</time>
      </trkpt>
      <trkpt lat="43.58954" lon="1.47681">
        <ele>199.13</ele>
        <time>2017-03-05T09:41:10Z</time>
      </trkpt>
      <trkpt lat="43.58944" lon="1.4769">
        <ele>198.17</ele>
        <time>2017-03-05T09:51:07Z</time>
      </trkpt>
      <trkpt lat="43.58944" lon="1.4769">
        <ele>198.17</ele>
        <time>2017-03-05T09:51:10Z</time>
      </trkpt>
      <trkpt lat="43.58945" lon="1.47687">
        <ele>199.13</ele>
        <time>2017-03-05T09:51:18Z</time>
      </trkpt>
      <trkpt lat="43.58945" lon="1.47687">
        <ele>199.13</ele>
        <time>2017-03-05T09:51:20Z</time>
      </trkpt>
    </trkseg>
  </trk>
</gpx>